[[{"header":{"parameterUnit":"m.s-1","parameterCategory":1,"la1":31.0,"la2":29.5877,"lo1":-88.7671,"lo2":-86.6584,"dy":0.0162,"dx":0.0185,"nx":115,"ny":88,"refTime":"2024-08-26T12:00:00:Z","depth":0,"parameterNumber":2,"parameterNumberName":"U-component_of_WINDS"},"data":[0.0,0.0,0.0,0.0,0.0,0.0,0.0,0.0,0.0,0.0,0.0,0.0,0.0,0.0,0.0,0.0,0.0,0.0,0.0,0.0,0.0,0.0,0.0,0.0,0.0,0.0,0.0,0.0,0.0,0.0,0.0,0.0,0.0,0.0,0.0,0.0,0.0,0.0,0.0,0.0,0.0,0.0,0.0,0.0,0.0,0.0,0.0,0.0,0.0,0.0,0.0,0.0,0.0,0.0,0.0,0.0,0.0,0.0,0.0,0.0,0.0,0.0,0.0,0.0,0.0,0.0,0.0,0.0,0.0,0.0,0.0,0.0,0.0,0.0,0.0,0.0,0.0,0.0,0.0,0.0,0.0,0.0,0.0,0.0,0.0,0.0,0.0,0.0,0.0,0.0,0.0,0.0,0.0,0.0,0.0,0.0,0.0,0.0,0.0,0.0,0.0,0.0,0.0,0.0,0.0,0.0,0.0,0.0,0.0,0.0,0.0,0.0,0.0,0.0,0.0,0.0,0.0,0.0,0.0,0.0,0.0,0.0,0.0,0.0,0.0,0.0,0.0,0.0,0.0,0.0,0.0,0.0,0.0,0.0,0.0,0.0,0.0,0.0,0.0,0.0,0.0,0.0,0.0,0.0,0.0,0.0,0.0,0.0,0.0,0.0,0.0,0.0,0.0,0.0,0.0,0.0,0.0,0.0,0.0,0.0,0.0,0.0,0.0,0.0,0.0,0.0,0.0,0.0,0.0,0.0,0.0,0.0,0.0,0.0,0.0,0.0,0.0,0.0,0.0,0.0,0.0,0.0,0.0,0.0,0.0,0.0,0.0,0.0,0.0,0.0,0.0,0.0,0.0,0.0,0.0,0.0,0.0,0.0,0.0,0.0,0.0,0.0,0.0,0.0,0.0,0.0,0.0,0.0,0.0,0.0,0.0,0.0,0.0,0.0,0.0,0.0,0.0,0.0,0.0,0.0,0.0,0.0,0.0,0.0,0.0,0.0,0.0,0.0,0.0,0.0,0.0,0.0,0.0,0.0,0.0,0.0,0.0,0.0,0.0,0.0,0.0,0.0,0.0,0.0,0.0,0.0,0.0,0.0,0.0,0.0,0.0,0.0,0.0,0.0,0.0,0.0,0.0,0.0,0.0,0.0,0.0,0.0,0.0,0.0,0.0,0.0,0.0,0.0,0.0,0.0,0.0,0.0,0.0,0.0,0.0,0.0,0.0,0.0,0.0,0.0,0.0,0.0,0.0,0.0,0.0,0.0,0.0,0.0,0.0,0.0,0.0,0.0,0.0,0.0,0.0,0.0,0.0,0.0,0.0,0.0,0.0,0.0,0.0,0.0,0.0,0.0,0.0,0.0,0.0,0.0,0.0,0.0,0.0,0.0,0.0,0.0,0.0,0.0,0.0,0.0,0.0,0.0,0.0,0.0,0.0,0.0,0.0,0.0,0.0,0.0,0.0,0.0,0.0,0.0,0.0,0.0,0.0,0.0,0.0,0.0,0.0,0.0,0.0,0.0,0.0,0.0,0.0,0.0,0.0,0.0,0.0,0.0,0.0,0.0,0.0,0.0,0.0,0.0,0.0,0.0,0.0,0.0,0.0,0.0,0.0,0.0,0.0,0.0,0.0,0.0,0.0,0.0,0.0,0.0,0.0,0.0,0.0,0.0,0.0,0.0,0.0,0.0,0.0,0.0,0.0,0.0,0.0,0.0,0.0,0.0,0.0,0.0,0.0,0.0,0.0,0.0,0.0,0.0,0.0,0.0,0.0,0.0,0.0,0.0,0.0,0.0,0.0,0.0,0.0,0.0,0.0,0.0,0.0,0.0,0.0,0.0,0.0,0.0,0.0,0.0,0.0,0.0,0.0,0.0,0.0,0.0,0.0,0.0,0.0,0.0,0.0,0.0,0.0,0.0,0.0,0.0,0.0,0.0,0.0,0.0,0.0,0.0,0.0,0.0,0.0,0.0,0.0,0.0,0.0,0.0,0.0,0.0,0.0,0.0,0.0,0.0,0.0,0.0,0.0,0.0,0.0,0.0,0.0,0.0,0.0,0.0,0.0,0.0,0.0,0.0,0.0,0.0,0.0,0.0,0.0,0.0,0.0,0.0,0.0,0.0,0.0,0.0,0.0,0.0,0.0,0.0,0.0,0.0,0.0,0.0,0.0,0.0,0.0,0.0,0.0,0.0,0.0,0.0,0.0,0.0,0.0,0.0,0.0,0.0,0.0,0.0,0.0,0.0,0.0,0.0,0.0,0.0,0.0,0.0,0.0,0.0,0.0,0.0,0.0,0.0,0.0,0.0,0.0,0.0,0.0,0.0,0.0,0.0,0.0,0.0,0.0,0.0,0.0,0.0,0.0,0.0,0.0,0.0,0.0,0.0,0.0,0.0,0.0,0.0,0.0,0.0,0.0,0.0,0.0,0.0,0.0,0.0,0.0,0.0,0.0,0.0,0.0,0.0,0.0,0.0,0.0,0.0,0.0,0.0,0.0,0.0,0.0,0.0,0.0,0.0,0.0,0.0,0.0,0.0,0.0,0.0,0.0,0.0,0.0,0.0,0.0,0.0,0.0,0.0,0.0,0.0,0.0,0.0,0.0,0.0,0.0,0.0,0.0,0.0,0.0,0.0,0.0,0.0,0.0,0.0,0.0,0.0,0.0,0.0,0.0,0.0,0.0,0.0,0.0,0.0,0.0,0.0,0.0,0.0,0.0,0.0,0.0,0.0,0.0,0.0,0.0,0.0,0.0,0.0,0.0,0.0,0.0,0.0,0.0,0.0,0.0,0.0,0.0,0.0,0.0,0.0,0.0,0.0,0.0,0.0,0.0,0.0,0.0,0.0,0.0,0.0,0.0,0.0,0.0,0.0,0.0,0.0,0.0,0.0,0.0,0.0,0.0,0.0,0.0,0.0,0.0,0.0,0.0,0.0,0.0,0.0,0.0,0.0,0.0,0.0,0.0,0.0,0.0,0.0,0.0,0.0,0.0,0.0,0.0,0.0,0.0,0.0,0.0,0.0,0.0,0.0,0.0,0.0,0.0,0.0,0.0,0.0,0.0,0.0,0.0,0.0,0.0,0.0,0.0,0.0,0.0,0.0,0.0,0.0,0.0,0.0,0.0,0.0,0.0,0.0,0.0,0.0,0.0,0.0,0.0,0.0,0.0,0.0,0.0,0.0,0.0,0.0,0.0,0.0,0.0,0.0,0.0,0.0,0.0,0.0,0.0,0.0,0.0,0.0,0.0,0.0,0.0,0.0,0.0,0.0,0.0,0.0,0.0,0.0,0.0,0.0,0.0,0.0,0.0,0.0,0.0,0.0,0.0,0.0,0.0,0.0,0.0,0.0,0.0,0.0,0.0,0.0,0.0,0.0,0.0,0.0,0.0,0.0,0.0,0.0,0.0,0.0,0.0,0.0,0.0,0.0,0.0,0.0,0.0,0.0,0.0,0.0,0.0,0.0,0.0,0.0,0.0,0.0,0.0,0.0,0.0,0.0,0.0,0.0,0.0,0.0,0.0,0.0,0.0,0.0,0.0,0.0,0.0,0.0,0.0,0.0,0.0,0.0,0.0,0.0,0.0,0.0,0.0,0.0,0.0,0.0,0.0,0.0,0.0,0.0,0.0,0.0,0.0,0.0,0.0,0.0,0.0,0.0,0.0,0.0,0.0,0.0,0.0,0.0,0.0,0.0,0.0,0.0,0.0,0.0,0.0,0.0,0.0,0.0,0.0,0.0,0.0,0.0,0.0,0.0,0.0,0.0,0.0,0.0,0.0,0.0,0.0,0.0,0.0,0.0,0.0,0.0,0.0,0.0,0.0,0.0,0.0,0.0,0.0,0.0,0.0,0.0,0.0,0.0,0.0,0.0,0.0,0.0,0.0,0.0,0.0,0.0,0.0,0.0,0.0,0.0,0.0,0.0,0.0,0.0,0.0,0.0,0.0,0.0,0.0,0.0,0.0,0.0,0.0,0.0,0.0,0.0,0.0,0.0,0.0,0.0,0.0,0.0,0.0,0.0,0.0,0.0,0.0,0.0,0.0,0.0,0.0,0.0,0.0,0.0,0.0,0.0,0.0,0.0,0.0,0.0,0.0,0.0,0.0,0.0,0.0,0.0,0.0,0.0,0.0,0.0,0.0,0.0,0.0,0.0,0.0,0.0,0.0,0.0,0.0,0.0,0.0,0.0,0.0,0.0,0.0,0.0,0.0,0.0,0.0,0.0,0.0,0.0,0.0,0.0,0.0,0.0,0.0,0.0,0.0,0.0,-2.4429,0.0,0.0,0.0,0.0,0.0,0.0,0.0,0.0,0.0,0.0,0.0,0.0,0.0,0.0,0.0,0.0,0.0,0.0,0.0,0.0,0.0,0.0,0.0,0.0,0.0,0.0,0.0,0.0,0.0,0.0,0.0,0.0,0.0,0.0,0.0,0.0,0.0,0.0,0.0,0.0,0.0,0.0,0.0,0.0,0.0,0.0,0.0,0.0,0.0,0.0,0.0,0.0,0.0,0.0,0.0,0.0,0.0,0.0,0.0,0.0,0.0,0.0,0.0,0.0,0.0,0.0,0.0,0.0,0.0,0.0,0.0,0.0,0.0,0.0,0.0,0.0,0.0,0.0,0.0,0.0,0.0,0.0,0.0,0.0,0.0,0.0,0.0,0.0,0.0,0.0,0.0,0.0,0.0,0.0,0.0,0.0,0.0,0.0,0.0,0.0,0.0,0.0,0.0,0.0,0.0,0.0,0.0,0.0,0.0,0.0,-2.5089,-2.5089,-2.5089,-2.5018,-2.4793,0.0,0.0,0.0,0.0,0.0,0.0,0.0,0.0,0.0,0.0,0.0,0.0,0.0,0.0,0.0,0.0,0.0,0.0,0.0,0.0,0.0,0.0,0.0,0.0,0.0,0.0,0.0,0.0,0.0,0.0,0.0,0.0,0.0,0.0,0.0,0.0,0.0,0.0,0.0,0.0,0.0,0.0,0.0,0.0,0.0,0.0,0.0,0.0,0.0,0.0,0.0,0.0,0.0,0.0,0.0,0.0,0.0,0.0,0.0,0.0,0.0,0.0,0.0,0.0,0.0,0.0,0.0,0.0,0.0,0.0,0.0,0.0,0.0,0.0,0.0,0.0,0.0,0.0,0.0,0.0,0.0,0.0,0.0,0.0,0.0,0.0,0.0,0.0,0.0,0.0,0.0,0.0,0.0,0.0,0.0,0.0,0.0,0.0,0.0,0.0,0.0,0.0,0.0,0.0,0.0,0.0,0.0,0.0,0.0,0.0,0.0,0.0,-2.5675,-2.5232,-2.4491,0.0,0.0,0.0,0.0,0.0,0.0,0.0,0.0,0.0,0.0,0.0,0.0,0.0,0.0,0.0,0.0,0.0,0.0,0.0,0.0,0.0,0.0,0.0,0.0,0.0,0.0,0.0,0.0,0.0,0.0,0.0,0.0,0.0,0.0,0.0,0.0,0.0,0.0,0.0,0.0,0.0,0.0,0.0,0.0,0.0,0.0,0.0,0.0,0.0,0.0,0.0,0.0,0.0,0.0,0.0,0.0,0.0,0.0,0.0,0.0,0.0,0.0,0.0,0.0,0.0,0.0,0.0,0.0,0.0,0.0,0.0,0.0,0.0,0.0,0.0,0.0,0.0,0.0,0.0,0.0,0.0,0.0,0.0,0.0,0.0,0.0,0.0,0.0,0.0,0.0,0.0,0.0,0.0,0.0,0.0,0.0,0.0,0.0,0.0,0.0,0.0,0.0,0.0,0.0,0.0,0.0,0.0,0.0,0.0,0.0,-2.6567,-2.6666,-2.6133,0.0,-2.3096,0.0,0.0,0.0,0.0,0.0,0.0,0.0,0.0,0.0,0.0,0.0,0.0,0.0,0.0,0.0,0.0,0.0,0.0,0.0,0.0,0.0,0.0,0.0,0.0,0.0,0.0,0.0,0.0,0.0,0.0,0.0,0.0,0.0,0.0,0.0,0.0,0.0,0.0,0.0,0.0,0.0,0.0,0.0,0.0,0.0,0.0,0.0,0.0,0.0,0.0,0.0,0.0,0.0,0.0,0.0,0.0,0.0,0.0,0.0,0.0,0.0,0.0,0.0,0.0,0.0,0.0,0.0,0.0,0.0,0.0,0.0,0.0,0.0,0.0,0.0,0.0,0.0,0.0,0.0,0.0,0.0,0.0,0.0,0.0,0.0,0.0,0.0,0.0,0.0,0.0,0.0,0.0,0.0,0.0,0.0,0.0,0.0,0.0,0.0,0.0,0.0,0.0,0.0,0.0,0.0,0.0,0.0,0.0,0.0,0.0,-2.7584,-2.7613,-2.6947,-2.5597,0.0,0.0,0.0,0.0,0.0,0.0,0.0,0.0,0.0,0.0,0.0,0.0,0.0,0.0,0.0,0.0,0.0,0.0,0.0,0.0,0.0,0.0,0.0,0.0,0.0,0.0,0.0,0.0,0.0,0.0,0.0,0.0,0.0,0.0,0.0,0.0,0.0,0.0,0.0,0.0,0.0,0.0,0.0,0.0,0.0,0.0,0.0,0.0,0.0,0.0,0.0,0.0,0.0,0.0,0.0,0.0,0.0,0.0,0.0,0.0,0.0,0.0,0.0,0.0,0.0,0.0,0.0,0.0,0.0,0.0,0.0,0.0,0.0,0.0,0.0,0.0,0.0,0.0,0.0,0.0,0.0,0.0,0.0,0.0,0.0,0.0,0.0,0.0,0.0,0.0,0.0,0.0,0.0,0.0,0.0,0.0,0.0,0.0,0.0,0.0,0.0,0.0,0.0,0.0,0.0,0.0,0.0,0.0,0.0,0.0,-2.8211,-2.8383,-2.8068,-2.7326,-2.6064,-2.4236,0.0,0.0,0.0,0.0,0.0,0.0,0.0,0.0,0.0,0.0,0.0,0.0,0.0,0.0,0.0,0.0,0.0,0.0,0.0,0.0,0.0,0.0,0.0,0.0,0.0,0.0,0.0,0.0,0.0,0.0,0.0,0.0,0.0,0.0,0.0,0.0,0.0,0.0,0.0,0.0,0.0,0.0,0.0,0.0,0.0,0.0,0.0,0.0,0.0,0.0,0.0,0.0,0.0,0.0,0.0,0.0,0.0,0.0,0.0,0.0,0.0,0.0,0.0,0.0,0.0,0.0,0.0,0.0,0.0,0.0,0.0,0.0,0.0,0.0,0.0,0.0,0.0,0.0,0.0,0.0,0.0,0.0,0.0,0.0,0.0,0.0,0.0,0.0,0.0,0.0,0.0,0.0,0.0,0.0,0.0,0.0,0.0,0.0,0.0,0.0,0.0,0.0,0.0,0.0,0.0,0.0,0.0,0.0,-2.9188,-2.9318,-2.8828,-2.7799,-2.6967,-2.6015,0.0,0.0,0.0,0.0,0.0,0.0,0.0,0.0,0.0,0.0,0.0,0.0,0.0,0.0,0.0,0.0,0.0,0.0,0.0,0.0,0.0,0.0,0.0,0.0,0.0,0.0,0.0,0.0,0.0,0.0,0.0,0.0,0.0,0.0,0.0,0.0,0.0,0.0,0.0,0.0,0.0,0.0,0.0,0.0,0.0,0.0,0.0,0.0,0.0,0.0,0.0,0.0,0.0,0.0,0.0,0.0,0.0,0.0,0.0,0.0,0.0,0.0,0.0,0.0,0.0,0.0,0.0,0.0,0.0,0.0,0.0,0.0,0.0,0.0,0.0,0.0,0.0,0.0,0.0,0.0,0.0,0.0,0.0,0.0,0.0,0.0,0.0,0.0,0.0,0.0,0.0,0.0,0.0,0.0,0.0,0.0,0.0,0.0,0.0,0.0,0.0,0.0,0.0,0.0,0.0,0.0,0.0,0.0,0.0,-2.9405,-2.9987,-2.9973,-2.9239,-2.813,-2.7123,0.0,0.0,0.0,0.0,0.0,0.0,0.0,0.0,0.0,0.0,0.0,0.0,0.0,0.0,0.0,0.0,0.0,0.0,0.0,0.0,0.0,0.0,0.0,0.0,0.0,0.0,0.0,0.0,0.0,0.0,0.0,0.0,0.0,0.0,0.0,0.0,0.0,0.0,0.0,0.0,0.0,0.0,0.0,0.0,0.0,0.0,0.0,0.0,0.0,0.0,0.0,0.0,0.0,0.0,0.0,0.0,0.0,0.0,0.0,0.0,0.0,0.0,0.0,0.0,0.0,0.0,0.0,0.0,0.0,0.0,0.0,0.0,0.0,0.0,0.0,0.0,0.0,0.0,0.0,0.0,0.0,0.0,0.0,0.0,0.0,0.0,0.0,0.0,0.0,0.0,0.0,0.0,0.0,0.0,0.0,0.0,0.0,0.0,0.0,0.0,0.0,0.0,0.0,0.0,0.0,0.0,0.0,0.0,0.0,-2.9551,0.0,-3.0174,-2.9816,-2.8601,-2.7728,0.0,0.0,0.0,0.0,0.0,0.0,0.0,0.0,0.0,0.0,0.0,0.0,0.0,0.0,0.0,0.0,0.0,0.0,0.0,0.0,0.0,0.0,0.0,0.0,0.0,0.0,0.0,0.0,0.0,0.0,0.0,0.0,0.0,0.0,0.0,0.0,0.0,0.0,0.0,0.0,0.0,0.0,0.0,0.0,0.0,0.0,0.0,0.0,0.0,0.0,0.0,0.0,0.0,0.0,0.0,0.0,0.0,0.0,0.0,0.0,0.0,0.0,0.0,0.0,0.0,0.0,0.0,0.0,0.0,0.0,0.0,0.0,0.0,0.0,0.0,0.0,0.0,0.0,0.0,0.0,0.0,0.0,0.0,0.0,0.0,0.0,0.0,0.0,0.0,0.0,0.0,0.0,0.0,0.0,0.0,0.0,0.0,0.0,0.0,0.0,0.0,0.0,0.0,0.0,0.0,0.0,0.0,0.0,-2.9376,-2.9768,-2.9523,-2.9438,-2.93,-2.8301,-2.766,0.0,0.0,0.0,0.0,0.0,0.0,0.0,0.0,0.0,0.0,0.0,0.0,0.0,0.0,0.0,0.0,0.0,0.0,0.0,0.0,0.0,0.0,0.0,0.0,0.0,0.0,0.0,0.0,0.0,0.0,0.0,0.0,0.0,0.0,0.0,0.0,0.0,0.0,0.0,0.0,0.0,0.0,0.0,0.0,0.0,0.0,0.0,0.0,0.0,0.0,0.0,0.0,0.0,0.0,0.0,0.0,0.0,0.0,0.0,0.0,0.0,0.0,0.0,0.0,0.0,0.0,0.0,0.0,0.0,0.0,0.0,0.0,0.0,0.0,0.0,0.0,0.0,0.0,0.0,0.0,0.0,0.0,0.0,0.0,0.0,0.0,0.0,0.0,0.0,0.0,0.0,0.0,0.0,0.0,0.0,0.0,0.0,0.0,0.0,0.0,0.0,0.0,0.0,0.0,0.0,0.0,0.0,0.0,0.0,-3.0113,-3.0592,-3.07,-3.047,-2.9705,-2.8999,0.0,0.0,0.0,0.0,0.0,0.0,0.0,0.0,0.0,0.0,0.0,0.0,0.0,0.0,0.0,0.0,0.0,0.0,0.0,0.0,0.0,0.0,0.0,0.0,0.0,0.0,0.0,0.0,0.0,0.0,0.0,0.0,0.0,0.0,0.0,0.0,0.0,0.0,0.0,0.0,0.0,0.0,0.0,0.0,0.0,0.0,0.0,0.0,0.0,0.0,0.0,0.0,0.0,0.0,0.0,0.0,0.0,0.0,0.0,0.0,0.0,0.0,0.0,0.0,0.0,0.0,0.0,0.0,0.0,0.0,0.0,0.0,0.0,0.0,0.0,0.0,0.0,0.0,0.0,0.0,0.0,0.0,0.0,0.0,0.0,0.0,0.0,0.0,0.0,0.0,0.0,0.0,0.0,0.0,0.0,0.0,0.0,0.0,0.0,0.0,0.0,0.0,0.0,0.0,0.0,0.0,0.0,0.0,0.0,-3.0397,-3.0923,-3.1144,-3.1077,-3.0385,-2.9695,-2.9027,0.0,0.0,0.0,0.0,0.0,0.0,0.0,0.0,0.0,0.0,0.0,0.0,0.0,0.0,0.0,0.0,0.0,0.0,0.0,0.0,0.0,0.0,0.0,0.0,0.0,0.0,0.0,0.0,0.0,0.0,0.0,0.0,0.0,0.0,0.0,0.0,0.0,0.0,0.0,0.0,0.0,0.0,0.0,0.0,0.0,0.0,0.0,0.0,0.0,0.0,0.0,0.0,0.0,0.0,0.0,0.0,0.0,0.0,0.0,0.0,0.0,0.0,0.0,0.0,0.0,0.0,0.0,0.0,0.0,0.0,0.0,0.0,0.0,0.0,0.0,0.0,0.0,0.0,0.0,0.0,0.0,0.0,0.0,0.0,0.0,0.0,0.0,0.0,0.0,0.0,0.0,0.0,0.0,0.0,0.0,0.0,0.0,0.0,0.0,0.0,0.0,0.0,0.0,0.0,0.0,0.0,0.0,0.0,-3.0683,-3.0733,-3.0886,-3.1151,-3.0497,-2.9889,0.0,0.0,0.0,0.0,0.0,0.0,0.0,0.0,0.0,0.0,0.0,0.0,0.0,0.0,0.0,0.0,0.0,0.0,0.0,0.0,0.0,0.0,0.0,0.0,0.0,0.0,0.0,0.0,0.0,0.0,0.0,0.0,0.0,0.0,0.0,0.0,0.0,0.0,0.0,0.0,0.0,0.0,0.0,0.0,0.0,0.0,0.0,0.0,0.0,0.0,0.0,0.0,0.0,0.0,0.0,0.0,0.0,0.0,0.0,0.0,0.0,0.0,0.0,0.0,0.0,0.0,0.0,0.0,0.0,0.0,0.0,0.0,0.0,0.0,0.0,0.0,0.0,0.0,0.0,0.0,0.0,0.0,0.0,0.0,0.0,0.0,0.0,0.0,0.0,0.0,0.0,0.0,0.0,0.0,0.0,0.0,0.0,0.0,0.0,0.0,0.0,0.0,0.0,0.0,0.0,0.0,0.0,0.0,0.0,-3.1691,-3.2229,-3.2048,-3.1104,-3.1332,-3.0715,0.0,0.0,0.0,0.0,0.0,0.0,0.0,0.0,0.0,0.0,0.0,0.0,0.0,0.0,0.0,0.0,0.0,0.0,0.0,0.0,0.0,0.0,0.0,0.0,0.0,0.0,0.0,0.0,0.0,0.0,0.0,0.0,0.0,0.0,0.0,0.0,0.0,0.0,0.0,0.0,0.0,0.0,0.0,0.0,0.0,0.0,0.0,0.0,0.0,0.0,0.0,0.0,0.0,0.0,0.0,0.0,0.0,0.0,0.0,0.0,0.0,0.0,0.0,0.0,0.0,0.0,0.0,0.0,0.0,0.0,0.0,0.0,0.0,0.0,0.0,0.0,0.0,0.0,0.0,0.0,0.0,0.0,0.0,0.0,0.0,0.0,0.0,0.0,0.0,0.0,0.0,0.0,0.0,0.0,0.0,0.0,0.0,0.0,0.0,0.0,0.0,0.0,0.0,0.0,0.0,0.0,0.0,0.0,-3.1481,-3.2216,-3.2868,-3.2814,-3.1932,-3.2154,-3.1434,0.0,0.0,0.0,0.0,0.0,0.0,0.0,0.0,0.0,0.0,0.0,0.0,0.0,0.0,0.0,0.0,0.0,0.0,0.0,0.0,0.0,0.0,0.0,0.0,0.0,0.0,0.0,0.0,0.0,0.0,0.0,0.0,0.0,0.0,0.0,0.0,0.0,0.0,0.0,0.0,0.0,0.0,0.0,0.0,0.0,0.0,0.0,0.0,0.0,0.0,0.0,0.0,0.0,0.0,0.0,0.0,0.0,0.0,0.0,0.0,0.0,0.0,0.0,0.0,0.0,0.0,0.0,0.0,0.0,0.0,0.0,0.0,0.0,0.0,0.0,0.0,0.0,0.0,0.0,0.0,0.0,0.0,0.0,0.0,0.0,0.0,0.0,0.0,0.0,0.0,0.0,0.0,0.0,0.0,0.0,0.0,0.0,0.0,0.0,0.0,0.0,0.0,0.0,0.0,0.0,0.0,0.0,0.0,-3.1629,-3.2478,-3.29,-3.3093,-3.3077,-3.2838,-3.1978,0.0,0.0,0.0,0.0,0.0,0.0,0.0,0.0,0.0,0.0,0.0,0.0,0.0,0.0,0.0,0.0,0.0,0.0,0.0,0.0,0.0,0.0,0.0,0.0,0.0,0.0,0.0,0.0,0.0,0.0,0.0,0.0,0.0,0.0,0.0,0.0,0.0,0.0,0.0,0.0,0.0,0.0,0.0,0.0,0.0,0.0,0.0,0.0,0.0,0.0,0.0,0.0,0.0,0.0,0.0,0.0,0.0,0.0,0.0,0.0,0.0,0.0,0.0,0.0,0.0,0.0,0.0,0.0,0.0,0.0,0.0,0.0,0.0,0.0,0.0,0.0,0.0,0.0,0.0,0.0,0.0,0.0,0.0,0.0,0.0,0.0,0.0,0.0,0.0,0.0,0.0,0.0,0.0,0.0,0.0,0.0,0.0,0.0,0.0,0.0,0.0,0.0,0.0,0.0,0.0,0.0,0.0,0.0,-3.2258,-3.3154,-3.2798,-3.2504,-3.2336,-3.2566,-3.2028,0.0,0.0,0.0,0.0,0.0,0.0,0.0,0.0,0.0,0.0,0.0,0.0,0.0,0.0,0.0,0.0,0.0,0.0,0.0,0.0,0.0,0.0,0.0,0.0,0.0,0.0,0.0,0.0,0.0,0.0,0.0,0.0,0.0,0.0,0.0,0.0,0.0,0.0,0.0,0.0,0.0,0.0,0.0,0.0,0.0,0.0,0.0,0.0,-2.6902,0.0,0.0,0.0,0.0,0.0,0.0,0.0,0.0,0.0,0.0,0.0,0.0,0.0,0.0,0.0,0.0,0.0,0.0,0.0,0.0,0.0,0.0,0.0,0.0,0.0,0.0,0.0,0.0,0.0,0.0,0.0,0.0,0.0,0.0,0.0,0.0,0.0,0.0,0.0,0.0,0.0,0.0,0.0,0.0,0.0,0.0,0.0,0.0,0.0,0.0,0.0,0.0,0.0,0.0,0.0,0.0,0.0,0.0,0.0,-3.2452,-3.3354,-3.2915,-3.2641,-3.2528,-3.2751,-3.1971,0.0,0.0,0.0,0.0,0.0,0.0,0.0,0.0,0.0,0.0,0.0,0.0,0.0,0.0,0.0,0.0,0.0,0.0,0.0,0.0,0.0,0.0,0.0,0.0,0.0,0.0,0.0,0.0,0.0,0.0,0.0,0.0,0.0,0.0,0.0,0.0,0.0,0.0,0.0,0.0,0.0,0.0,0.0,0.0,0.0,0.0,0.0,0.0,0.0,0.0,0.0,0.0,0.0,0.0,0.0,0.0,0.0,0.0,0.0,0.0,0.0,0.0,0.0,0.0,0.0,0.0,0.0,0.0,0.0,0.0,0.0,0.0,0.0,0.0,0.0,0.0,0.0,0.0,0.0,0.0,0.0,0.0,0.0,0.0,0.0,0.0,0.0,0.0,0.0,0.0,0.0,0.0,0.0,0.0,0.0,0.0,0.0,0.0,0.0,0.0,0.0,0.0,0.0,0.0,0.0,0.0,0.0,-3.2442,-3.2467,-3.3364,-3.2989,-3.2761,-3.2707,-3.2718,-3.1693,-2.9513,0.0,0.0,0.0,0.0,0.0,0.0,0.0,0.0,0.0,0.0,0.0,0.0,0.0,0.0,0.0,0.0,0.0,0.0,0.0,0.0,0.0,0.0,0.0,0.0,0.0,0.0,0.0,0.0,0.0,0.0,0.0,0.0,0.0,0.0,0.0,0.0,0.0,0.0,-2.7885,-2.8803,0.0,0.0,0.0,0.0,0.0,0.0,0.0,0.0,-2.9375,0.0,0.0,0.0,0.0,0.0,0.0,0.0,0.0,0.0,0.0,0.0,0.0,0.0,0.0,0.0,0.0,0.0,0.0,0.0,0.0,0.0,0.0,0.0,0.0,0.0,0.0,0.0,0.0,0.0,0.0,0.0,0.0,0.0,0.0,0.0,0.0,0.0,0.0,0.0,0.0,0.0,0.0,0.0,0.0,0.0,0.0,0.0,0.0,0.0,0.0,0.0,0.0,0.0,0.0,0.0,0.0,-3.4548,-3.2884,-3.2464,-3.3442,-3.2343,-3.1625,-3.1438,-3.1538,-3.0768,-2.9147,0.0,0.0,0.0,0.0,0.0,0.0,0.0,0.0,0.0,0.0,0.0,0.0,0.0,0.0,0.0,0.0,0.0,0.0,0.0,0.0,0.0,0.0,0.0,0.0,0.0,0.0,0.0,0.0,0.0,0.0,0.0,0.0,0.0,0.0,0.0,0.0,0.0,0.0,0.0,-2.879,-2.9663,0.0,0.0,0.0,0.0,0.0,0.0,0.0,0.0,-2.9536,0.0,0.0,0.0,0.0,0.0,0.0,0.0,0.0,0.0,0.0,0.0,0.0,0.0,0.0,0.0,0.0,0.0,0.0,0.0,0.0,0.0,0.0,0.0,0.0,0.0,0.0,0.0,0.0,0.0,0.0,0.0,0.0,0.0,0.0,0.0,0.0,0.0,0.0,0.0,0.0,0.0,0.0,0.0,0.0,0.0,0.0,0.0,0.0,0.0,0.0,0.0,0.0,0.0,0.0,0.0,-3.4007,-3.2991,-3.2665,-3.3286,-3.2271,-3.1538,-3.1249,-3.1379,-3.0739,0.0,0.0,0.0,0.0,0.0,0.0,0.0,0.0,0.0,0.0,0.0,0.0,0.0,0.0,0.0,0.0,0.0,0.0,0.0,0.0,0.0,0.0,0.0,0.0,0.0,0.0,0.0,0.0,0.0,0.0,0.0,0.0,0.0,0.0,0.0,0.0,0.0,0.0,0.0,0.0,-2.9233,-3.0032,-3.0869,0.0,0.0,0.0,0.0,0.0,0.0,-3.0346,-3.0255,0.0,0.0,0.0,0.0,0.0,0.0,0.0,0.0,0.0,0.0,0.0,0.0,0.0,0.0,0.0,0.0,0.0,0.0,0.0,0.0,0.0,0.0,0.0,0.0,0.0,0.0,0.0,0.0,0.0,0.0,0.0,0.0,0.0,0.0,0.0,0.0,0.0,0.0,0.0,0.0,0.0,0.0,0.0,0.0,0.0,0.0,0.0,0.0,0.0,0.0,0.0,0.0,0.0,0.0,0.0,-3.346,-3.2978,-3.2849,-3.3117,-3.2227,-3.1552,-3.1219,-3.1393,-3.0738,0.0,0.0,0.0,0.0,0.0,0.0,0.0,0.0,0.0,0.0,0.0,0.0,0.0,0.0,0.0,0.0,0.0,0.0,0.0,0.0,0.0,0.0,0.0,0.0,0.0,0.0,0.0,0.0,0.0,0.0,0.0,0.0,0.0,0.0,0.0,0.0,0.0,0.0,0.0,0.0,0.0,-3.0215,-3.0882,-3.1024,0.0,0.0,0.0,0.0,-3.1024,-3.1024,0.0,0.0,0.0,0.0,0.0,0.0,0.0,0.0,0.0,0.0,0.0,0.0,0.0,0.0,0.0,0.0,0.0,0.0,0.0,0.0,0.0,0.0,0.0,0.0,0.0,0.0,0.0,0.0,0.0,0.0,0.0,0.0,0.0,0.0,0.0,0.0,0.0,0.0,0.0,0.0,0.0,0.0,0.0,0.0,0.0,0.0,0.0,0.0,0.0,0.0,0.0,0.0,0.0,0.0,0.0,0.0,-3.3427,-3.2978,-3.2801,-3.2976,-3.1811,-3.1102,-3.0851,-3.0881,-3.0236,0.0,0.0,0.0,0.0,0.0,0.0,0.0,0.0,0.0,0.0,0.0,0.0,0.0,0.0,0.0,0.0,0.0,0.0,0.0,0.0,0.0,0.0,0.0,0.0,0.0,0.0,0.0,0.0,0.0,0.0,0.0,0.0,0.0,0.0,0.0,0.0,0.0,0.0,0.0,0.0,0.0,-2.9758,-3.0843,-3.1024,-3.1024,0.0,0.0,-3.1024,-3.1024,-3.1024,0.0,0.0,0.0,0.0,0.0,0.0,0.0,0.0,0.0,0.0,0.0,0.0,0.0,0.0,0.0,0.0,0.0,0.0,0.0,0.0,0.0,0.0,0.0,0.0,0.0,0.0,0.0,0.0,0.0,0.0,0.0,0.0,0.0,0.0,0.0,0.0,0.0,0.0,0.0,0.0,0.0,0.0,0.0,0.0,0.0,0.0,0.0,0.0,0.0,0.0,0.0,0.0,0.0,0.0,0.0,-3.2526,-3.2949,-3.272,-3.2657,-3.2803,-3.1585,-3.0955,-3.0955,-3.0762,-3.009,0.0,0.0,0.0,0.0,0.0,0.0,0.0,0.0,0.0,0.0,0.0,0.0,0.0,0.0,0.0,0.0,0.0,0.0,0.0,0.0,0.0,0.0,0.0,0.0,0.0,0.0,0.0,0.0,0.0,0.0,0.0,0.0,0.0,0.0,0.0,0.0,0.0,0.0,0.0,0.0,0.0,0.0,-3.0921,-3.1024,0.0,0.0,0.0,-3.1024,-3.1024,0.0,0.0,0.0,0.0,0.0,0.0,0.0,0.0,0.0,0.0,0.0,0.0,0.0,0.0,0.0,0.0,0.0,0.0,0.0,0.0,0.0,0.0,0.0,0.0,0.0,0.0,0.0,0.0,0.0,0.0,0.0,0.0,0.0,0.0,0.0,0.0,0.0,0.0,0.0,0.0,0.0,0.0,0.0,0.0,0.0,0.0,0.0,0.0,0.0,0.0,0.0,0.0,0.0,0.0,0.0,0.0,0.0,-3.2546,-3.2329,-3.237,-3.2613,-3.1388,-3.0821,-3.0955,-3.0586,0.0,0.0,0.0,0.0,0.0,0.0,0.0,0.0,0.0,0.0,0.0,0.0,0.0,0.0,0.0,0.0,0.0,0.0,0.0,0.0,0.0,0.0,0.0,0.0,0.0,0.0,0.0,-2.3259,0.0,0.0,0.0,0.0,0.0,0.0,0.0,0.0,0.0,0.0,0.0,0.0,0.0,0.0,-3.0541,-3.0885,-3.0986,-3.0986,0.0,0.0,-3.0934,-3.0703,-3.0375,-3.0333,0.0,0.0,0.0,0.0,0.0,0.0,0.0,0.0,0.0,0.0,0.0,0.0,0.0,0.0,0.0,0.0,0.0,0.0,0.0,0.0,0.0,0.0,0.0,0.0,0.0,0.0,0.0,0.0,0.0,0.0,0.0,0.0,0.0,0.0,0.0,0.0,0.0,0.0,0.0,0.0,0.0,0.0,0.0,0.0,0.0,0.0,0.0,0.0,0.0,0.0,0.0,0.0,0.0,0.0,-3.2012,-3.239,-3.1724,-3.1744,-3.2437,-3.128,-3.0598,-3.0628,-3.0001,-2.932,0.0,0.0,0.0,0.0,0.0,0.0,0.0,0.0,0.0,0.0,0.0,0.0,0.0,0.0,0.0,0.0,0.0,0.0,0.0,0.0,0.0,0.0,0.0,0.0,0.0,0.0,0.0,0.0,0.0,0.0,0.0,0.0,0.0,0.0,0.0,0.0,0.0,0.0,0.0,0.0,0.0,-3.0064,-3.062,-3.0874,-3.0861,0.0,-3.0748,-3.0766,-2.9984,-3.0004,-3.0333,-3.0882,0.0,0.0,0.0,0.0,0.0,0.0,0.0,0.0,0.0,0.0,0.0,0.0,0.0,0.0,0.0,0.0,0.0,0.0,0.0,0.0,0.0,0.0,0.0,0.0,0.0,0.0,0.0,0.0,0.0,0.0,0.0,0.0,0.0,0.0,0.0,0.0,0.0,0.0,0.0,0.0,0.0,0.0,0.0,0.0,0.0,0.0,0.0,0.0,0.0,0.0,0.0,0.0,0.0,-3.1716,-3.23,-3.1232,-3.0999,-3.1541,-3.0118,-2.9314,-2.93,-2.8622,-2.8054,0.0,0.0,0.0,0.0,0.0,0.0,0.0,0.0,0.0,0.0,0.0,0.0,0.0,0.0,0.0,0.0,0.0,0.0,0.0,0.0,0.0,0.0,0.0,0.0,0.0,0.0,0.0,0.0,-2.2125,-2.211,-2.2116,0.0,0.0,0.0,0.0,0.0,0.0,0.0,0.0,0.0,0.0,-3.056,-3.0862,-3.0949,0.0,0.0,-3.0911,-3.0908,-3.0574,-3.0285,-3.0333,-3.0895,-3.1173,0.0,0.0,0.0,0.0,0.0,0.0,0.0,0.0,0.0,0.0,0.0,0.0,0.0,0.0,0.0,0.0,0.0,0.0,0.0,0.0,0.0,0.0,0.0,0.0,0.0,0.0,0.0,0.0,0.0,0.0,0.0,0.0,0.0,0.0,0.0,0.0,0.0,0.0,0.0,0.0,0.0,0.0,0.0,0.0,0.0,0.0,0.0,0.0,0.0,0.0,0.0,0.0,-3.1416,-3.223,-3.0908,-3.0411,-3.085,-2.93,-2.8505,-2.8478,-2.7859,-2.7383,0.0,0.0,0.0,0.0,0.0,0.0,0.0,0.0,0.0,0.0,0.0,0.0,0.0,0.0,0.0,0.0,0.0,0.0,0.0,0.0,0.0,0.0,0.0,0.0,0.0,0.0,0.0,0.0,-2.2377,-2.255,-2.304,0.0,0.0,0.0,0.0,0.0,0.0,0.0,0.0,0.0,0.0,-3.055,-3.0753,-3.0854,-3.0957,-3.1125,-3.1228,-3.124,-3.0995,-3.0683,-3.0668,-3.129,0.0,0.0,0.0,0.0,0.0,0.0,0.0,0.0,0.0,0.0,0.0,0.0,0.0,0.0,0.0,0.0,0.0,0.0,0.0,0.0,0.0,0.0,0.0,0.0,0.0,0.0,0.0,-2.5336,0.0,0.0,-2.6105,0.0,0.0,0.0,0.0,0.0,0.0,0.0,0.0,0.0,0.0,0.0,0.0,0.0,0.0,0.0,0.0,0.0,0.0,0.0,0.0,0.0,0.0,-3.111,-3.204,-3.0697,-3.0085,-3.0248,-2.9143,-2.846,-2.846,-2.8016,-2.7462,-2.6813,0.0,0.0,0.0,0.0,0.0,0.0,0.0,0.0,0.0,0.0,0.0,0.0,0.0,0.0,0.0,0.0,0.0,0.0,0.0,0.0,0.0,0.0,0.0,0.0,0.0,0.0,-2.3562,-2.3432,-2.3716,0.0,0.0,0.0,0.0,0.0,0.0,0.0,0.0,0.0,-2.9791,-2.9733,-2.9731,-3.0251,-3.049,-3.0813,-3.1289,-3.1701,-3.1736,-3.1055,-3.1057,-3.1446,0.0,0.0,0.0,0.0,0.0,0.0,0.0,0.0,0.0,0.0,0.0,0.0,0.0,0.0,0.0,0.0,0.0,0.0,0.0,0.0,0.0,0.0,0.0,0.0,0.0,0.0,0.0,-2.5576,-2.5762,0.0,0.0,0.0,0.0,0.0,0.0,0.0,0.0,0.0,0.0,0.0,-2.558,-2.5488,0.0,0.0,0.0,0.0,0.0,0.0,0.0,0.0,0.0,0.0,0.0,0.0,-3.0771,-3.1316,-3.0012,-2.9296,-2.9323,-2.795,-2.7162,-2.7162,-2.6627,-2.6155,-2.5811,0.0,0.0,0.0,0.0,0.0,0.0,0.0,0.0,0.0,0.0,0.0,0.0,0.0,0.0,0.0,0.0,0.0,0.0,0.0,0.0,0.0,0.0,0.0,0.0,0.0,-2.4228,0.0,0.0,0.0,0.0,0.0,0.0,0.0,0.0,0.0,0.0,0.0,-2.9246,-2.9277,-2.942,-2.9814,-3.0405,-3.0704,-3.1051,0.0,0.0,0.0,0.0,0.0,0.0,0.0,0.0,0.0,0.0,0.0,0.0,0.0,0.0,-3.1026,-3.1588,-3.1769,-3.1743,-3.1433,0.0,0.0,0.0,0.0,0.0,0.0,0.0,0.0,0.0,0.0,0.0,0.0,0.0,0.0,-2.5425,-2.5531,-2.5346,0.0,0.0,0.0,0.0,0.0,0.0,0.0,0.0,-2.5881,-2.539,-2.4962,-2.4839,-2.499,0.0,-2.5364,-2.5808,0.0,0.0,0.0,0.0,0.0,0.0,0.0,0.0,-3.0786,-3.1034,-3.005,-2.9189,-2.8587,-2.7394,-2.6688,-2.6499,-2.6034,-2.5764,-2.5679,-2.6205,-2.6501,0.0,0.0,0.0,0.0,0.0,0.0,0.0,0.0,0.0,0.0,0.0,0.0,0.0,0.0,0.0,0.0,0.0,0.0,0.0,0.0,0.0,0.0,0.0,-2.5094,0.0,0.0,0.0,0.0,0.0,0.0,0.0,0.0,0.0,-2.8399,-2.8899,-2.9155,-2.8781,-2.8985,-2.9417,-3.0144,0.0,0.0,0.0,0.0,0.0,0.0,0.0,-3.1492,-3.1311,-3.151,-3.1532,-3.1024,-3.0755,-3.0404,-2.9964,0.0,0.0,-3.1085,-3.1336,-3.1399,-3.1497,-3.1473,-3.145,-3.145,-3.1755,-3.2077,0.0,0.0,0.0,0.0,0.0,0.0,0.0,0.0,-2.5498,-2.5385,0.0,-2.5117,0.0,0.0,0.0,0.0,0.0,-2.6369,0.0,0.0,-2.568,-2.5498,-2.5923,-2.5695,-2.5574,-2.5618,-2.5782,-2.588,-2.5999,-2.6595,0.0,0.0,0.0,0.0,0.0,0.0,-3.1155,-3.1042,-3.0698,-2.9804,-2.821,-2.7582,-2.704,-2.6499,-2.626,-2.6224,-2.6407,-2.6089,-2.5871,-2.5827,-2.6175,0.0,0.0,0.0,0.0,0.0,0.0,0.0,0.0,0.0,0.0,0.0,0.0,0.0,0.0,0.0,0.0,0.0,0.0,0.0,0.0,-2.5961,0.0,0.0,0.0,0.0,0.0,0.0,0.0,0.0,0.0,0.0,-2.9799,-2.9017,-2.8431,-2.8397,0.0,0.0,0.0,0.0,-2.9929,-3.1352,-3.1757,-3.1921,-3.1965,-3.1965,-3.1777,-3.1255,0.0,0.0,-3.1358,-3.0908,-3.033,-2.9613,-2.9788,-3.0023,-2.9771,-2.9852,-2.9966,-3.0237,-3.0932,-3.1512,-3.1613,-3.2098,-3.2778,-2.8336,0.0,0.0,0.0,0.0,-2.8276,-2.7944,-2.8061,-2.7191,-2.6811,-2.6758,-2.6552,0.0,0.0,0.0,0.0,0.0,0.0,-2.6599,-2.6836,-2.6191,-2.592,-2.5923,-2.5878,-2.5823,-2.5813,-2.5868,-2.6079,-2.6393,-2.6585,-2.6893,-2.7288,0.0,0.0,0.0,0.0,-3.0676,-3.0103,-3.0387,-2.9953,-2.8675,-2.7783,-2.7087,-2.6671,-2.6561,-2.662,-2.6801,-2.6834,-2.6677,-2.6252,-2.6057,0.0,0.0,0.0,0.0,0.0,0.0,0.0,0.0,0.0,0.0,0.0,0.0,0.0,0.0,0.0,0.0,0.0,0.0,0.0,-2.5337,-2.5723,-2.6214,0.0,0.0,0.0,0.0,0.0,0.0,0.0,0.0,0.0,-2.9672,-2.9361,-2.8979,0.0,0.0,-2.8538,-2.8884,-2.9079,-2.9591,-3.0722,-3.0791,0.0,-3.1427,-3.1407,-3.1229,-3.1083,-3.0479,-2.9844,-2.9528,-2.9037,-2.8606,-2.8421,-2.8437,-2.8434,-2.8188,-2.9176,-3.0034,-3.0215,-3.0441,-3.0588,-3.0621,-3.0845,-3.1024,-2.8236,-2.8723,-2.9353,-2.95,-2.9265,-2.8543,-2.8131,-2.7968,-2.7317,-2.7042,-2.7043,-2.6711,-2.679,-2.7151,-2.6836,0.0,0.0,0.0,-2.6483,-2.6528,-2.6236,-2.601,-2.593,-2.593,-2.593,-2.593,-2.593,-2.6065,-2.6345,-2.6532,-2.6701,-2.6941,0.0,0.0,-2.8913,-2.9683,-2.9761,-2.9149,-2.9409,-2.9031,-2.7886,-2.7212,-2.6674,-2.6205,-2.6392,-2.6579,-2.6731,-2.6927,-2.6858,-2.6497,-2.6173,-2.5946,0.0,0.0,0.0,0.0,0.0,0.0,0.0,0.0,0.0,0.0,0.0,-2.755,-2.7128,0.0,0.0,0.0,-2.5723,-2.5977,-2.6645,-2.6934,0.0,0.0,0.0,0.0,0.0,0.0,0.0,-3.1103,-3.0905,-3.053,-2.997,-2.953,-2.8983,-2.8151,-2.8058,-2.8149,-2.8398,0.0,-2.8978,-2.9749,-2.9795,-2.9897,-3.0352,-3.0318,-3.0148,-2.9863,-2.9035,-2.8376,-2.8179,-2.7858,-2.7655,-2.7665,-2.7665,-2.7572,-2.7361,-2.8269,-2.9026,-2.9084,-2.9349,-2.9578,-2.9624,-2.9886,-3.0215,-2.7911,-2.8122,-2.9515,-2.9079,-2.7498,-2.829,-2.7711,-2.6225,-2.6655,-2.6689,-2.6441,-2.6215,-2.6455,-2.6945,-2.6991,0.0,-2.6692,-2.6403,-2.6226,-2.6079,-2.6034,-2.6034,-2.5989,-2.6044,-2.5989,-2.6044,-2.5989,-2.5989,-2.603,-2.6423,-2.6816,-2.7079,-2.7655,-2.8186,-2.8609,-2.8744,-2.861,-2.8223,-2.8099,-2.7467,-2.6336,-2.6256,-2.5946,-2.547,-2.5972,-2.6287,-2.6336,-2.6516,-2.6589,-2.6589,-2.6396,-2.6106,-2.5634,0.0,0.0,0.0,0.0,0.0,0.0,0.0,0.0,0.0,0.0,0.0,0.0,0.0,0.0,-2.6823,-2.6708,0.0,-2.8632,-2.8997,0.0,0.0,0.0,-3.1091,-3.1125,-3.1491,-3.195,-3.2398,0.0,0.0,-3.0468,-2.9526,-2.8617,-2.7709,-2.7584,-2.7678,-2.7904,-2.7951,-2.8081,-2.8631,-2.8874,-2.9035,-2.9163,-2.9163,-2.8932,-2.8315,-2.762,-2.7452,-2.7378,-2.734,-2.732,-2.734,-2.732,-2.732,-2.732,-2.7394,-2.732,-2.7404,-2.8045,-2.8585,-2.8631,-2.9211,-2.9761,-2.8205,-2.856,-2.9346,-2.9142,-2.8296,-2.8143,-2.8267,-2.8566,-2.8715,-2.8715,-2.8591,-2.8212,-2.7711,-2.7238,-2.7604,-2.7687,-2.764,-2.7207,-2.7212,-2.7471,-2.7118,-2.6978,-2.6978,-2.6988,-2.6978,-2.6978,-2.6967,-2.6988,-2.6988,-2.7092,-2.7238,-2.7437,-2.7636,-2.7857,-2.8154,-2.8562,-2.8388,-2.7788,-2.8088,-2.7632,-2.6348,-2.6278,-2.6066,-2.5641,-2.5764,-2.6045,-2.6492,-2.6564,-2.6578,-2.6521,-2.647,-2.6235,-2.5701,-2.5497,0.0,0.0,0.0,0.0,0.0,0.0,0.0,0.0,0.0,-2.8575,-2.9155,0.0,-2.8291,0.0,-2.8413,-2.8482,-2.9228,-2.9556,0.0,0.0,-3.1311,-3.1681,-3.2101,-3.2419,-3.2381,-3.1863,-3.1616,-3.0898,-2.9515,-2.8863,-2.8223,-2.7488,-2.7357,-2.7404,-2.7452,-2.7489,-2.7631,-2.8081,-2.8222,-2.8373,-2.8689,-2.8781,-2.8595,-2.8092,-2.7893,-2.7715,-2.7357,-2.732,-2.732,-2.732,-2.732,-2.732,-2.732,-2.732,-2.732,-2.7309,-2.7489,-2.762,-2.7631,-2.7857,-2.8034,-2.8445,-2.8724,-2.9013,-2.8947,-2.8656,-2.8631,-2.8827,-2.9138,-2.9106,-2.908,-2.9071,-2.8828,-2.8398,-2.7951,-2.8175,-2.8305,-2.8269,-2.8045,-2.8092,-2.8269,-2.7809,-2.7631,-2.7584,-2.7404,-2.732,-2.732,-2.732,-2.7394,-2.7631,-2.7631,-2.7752,-2.8081,-2.8092,-2.8233,-2.8445,-2.8198,-2.7763,-2.7183,-2.7077,-2.6629,-2.588,-2.6172,-2.6143,-2.5624,-2.5907,-2.6162,-2.6377,-2.6491,-2.6531,-2.6507,-2.6703,-2.6581,-2.6099,-2.6316,-2.6574,0.0,0.0,0.0,0.0,0.0,0.0,0.0,0.0,0.0,0.0,0.0,-2.9665,-3.0434,-2.9825,-2.9768,-3.0744,-3.08,-3.1141,-3.2074,-3.2328,-3.2513,-3.2835,-3.2969,-3.2718,-3.171,-3.1181,-3.0203,-2.8528,-2.7749,-2.7057,-2.6334,-2.6225,-2.6514,-2.7156,-2.732,-2.7394,-2.7631,-2.7668,-2.7762,-2.8034,-2.8092,-2.7987,-2.7762,-2.7668,-2.7573,-2.7357,-2.732,-2.732,-2.732,-2.732,-2.732,-2.732,-2.732,-2.732,-2.732,-2.732,-2.732,-2.7299,-2.7096,-2.6998,-2.8724,-2.8817,-2.8863,-2.891,-2.8956,-2.9393,-2.9301,-2.8885,-2.8828,-2.8817,-2.8817,-2.8874,-2.8817,-2.8735,-2.8771,-2.8771,-2.8678,-2.8631,-2.8538,-2.8434,-2.7987,-2.7704,-2.761,-2.7183,-2.7061,-2.7167,-2.7119,-2.7441,-2.7904,-2.7904,-2.8139,-2.8538,-2.8642,-2.8792,-2.9013,-2.8091,-2.7275,-2.6608,-2.5969,-2.554,-2.537,-2.6142,-2.6287,-2.5791,-2.6284,-2.6514,-2.6342,-2.6565,-2.6731,-2.68,-2.7174,-2.7219,-2.6846,-2.7472,-2.7885,0.0,-2.7885,0.0,0.0,0.0,0.0,0.0,0.0,0.0,0.0,-3.0962,-3.1456,-3.1871,-3.1088,-3.1099,-3.2259,-3.1997,-3.2051,-3.2744,-3.2869,-3.2869,-3.2857,-3.2857,-3.246,-3.1345,-3.0405,-2.9232,-2.7512,-2.6504,-2.5689,-2.5254,-2.5187,-2.5635,-2.6764,-2.7061,-2.7109,-2.7262,-2.732,-2.7357,-2.7404,-2.7357,-2.7357,-2.732,-2.7357,-2.7262,-2.7109,-2.7109,-2.7109,-2.7109,-2.7119,-2.7167,-2.7262,-2.7214,-2.7109,-2.7119,-2.701,-2.6995,-2.7117,-2.6915,-2.6615,-2.8967,-2.9393,-2.976,-2.9943,-2.9932,-3.0034,-2.9806,-2.9359,-2.9347,-2.9347,-2.9382,-2.9749,-2.9474,-2.8839,-2.9163,-2.9095,-2.8678,-2.8315,-2.7788,-2.7115,-2.6648,-2.6129,-2.547,-2.5382,-2.5693,-2.6294,-2.6342,-2.6726,-2.7452,-2.7452,-2.7584,-2.782,-2.8243,-2.8617,-2.885,0.0,0.0,0.0,-2.6303,-2.6217,-2.6335,-2.6704,-2.6932,-2.6967,-2.7071,0.0,-2.7607,-2.769,-2.7874,-2.8253,-2.8367,0.0,0.0,0.0,0.0,0.0,0.0,0.0,0.0,0.0,0.0,0.0,-2.9657,-3.0418,-3.1431,-3.2328,-3.2707,-3.2386,-3.2558,-3.2453,-3.1827,-3.1671,-3.1338,-3.0628,-3.0546,-3.0557,-3.0546,-3.0557,-3.0161,-2.9209,-2.8625,-2.7824,-2.6724,-2.6084,-2.5703,-2.5489,-2.5548,-2.5645,-2.5945,-2.6197,-2.6582,-2.7167,-2.7214,-2.7262,-2.732,-2.7262,-2.7167,-2.732,-2.732,-2.7013,-2.6438,-2.6342,-2.6342,-2.6332,-2.6342,-2.6524,-2.7119,-2.6784,-2.6342,-2.6342,-2.6052,-2.5943,-2.6599,-2.663,-2.6465,-2.9559,0.0,-2.9336,-2.9187,0.0,-2.8702,-2.8563,-2.8423,-2.9417,-2.9852,-2.9806,-2.9566,-2.9198,-2.8735,-2.8481,-2.82,-2.7955,-2.7731,-2.7389,-2.6962,-2.6504,-2.6071,-2.5664,-2.5441,-2.5489,-2.5897,-2.5897,-2.6235,-2.6907,-2.6907,-2.7098,-2.741,-2.7694,-2.7882,-2.8013,-2.8484,-2.8331,-2.7514,-2.7149,-2.7059,-2.7335,-2.7432,-2.7616,-2.782,-2.7937,0.0,0.0,0.0,0.0,0.0,0.0,0.0,0.0,0.0,0.0,-2.8646,-2.7987,-2.7695,-2.7973,-2.7778,-2.7677,-2.7866,-2.8817,-2.9799,-3.0782,-3.1323,-3.1487,-3.1247,-3.1455,-3.1392,-3.0867,-3.0753,-3.0546,-2.9974,-2.9932,-2.9932,-2.9901,-2.9715,-2.9188,-2.8211,-2.748,-2.6703,-2.5585,-2.5038,-2.4789,-2.483,-2.4709,-2.4801,-2.5298,-2.5674,-2.6042,-2.6274,-2.6418,-2.6476,-2.637,-2.6322,-2.6332,-2.6322,-2.6225,-2.5974,-2.5586,-2.5499,-2.5489,-2.5499,-2.5538,-2.5693,-2.5974,-2.5781,-2.5499,-2.5479,-2.5324,-2.5178,-2.5456,-2.5655,-2.5927,-2.9869,-2.8575,-2.8517,-2.803,-2.7179,-2.7179,-2.7179,-2.7332,0.0,0.0,0.0,-2.8806,-2.8434,-2.8387,-2.7568,-2.7142,-2.7094,-2.7057,-2.6952,-2.6713,-2.635,-2.6071,-2.5926,-2.5499,-2.5353,-2.5499,-2.5499,-2.5781,-2.636,-2.636,-2.6542,-2.6904,-2.7047,-2.7142,-2.7206,-2.7654,-2.7987,-2.8192,-2.7984,-2.8028,-2.8327,-2.8336,-2.8445,-2.8693,-2.8889,-2.8889,-2.8737,-2.8889,-2.8877,-2.8692,-2.8692,-2.8808,-2.9082,-2.8981,-2.9105,-2.942,-2.8316,-2.7623,-2.7698,-2.6529,-2.5992,-2.6339,-2.7455,-2.8594,-2.9694,-2.987,-2.9932,-2.9932,-2.9932,-2.9817,-2.9608,-2.9597,-2.9503,-2.9345,-2.9292,-2.9303,-2.9262,-2.9001,-2.8243,-2.7318,-2.6553,-2.5738,-2.4706,-2.429,-2.4058,-2.4179,-2.4173,-2.4052,-2.4946,-2.5463,-2.5693,-2.5586,-2.5732,-2.5693,-2.5441,-2.5392,-2.5294,-2.5392,-2.5138,-2.4894,-2.4698,-2.4698,-2.4698,-2.4698,-2.4698,-2.4796,-2.4903,-2.492,-2.4735,-2.4622,-2.4651,-2.4498,-2.4088,-2.4431,-2.4986,-2.8879,-2.7945,-2.7945,-2.7658,-2.7179,-2.7179,-2.7179,-2.7237,-2.751,-2.7615,-2.7615,-2.7474,-2.7426,-2.7379,-2.7274,-2.701,-2.66,-2.66,-2.5974,-2.4913,-2.4815,-2.443,-2.3836,-2.3746,-2.4035,-2.4627,-2.4677,-2.506,-2.5742,-2.579,-2.5839,-2.5974,-2.635,-2.6781,-2.7179,-2.7269,-2.7332,-2.7406,-2.8386,-2.9021,-2.9301,-2.9521,-2.9726,-2.9953,-2.9941,-2.9964,-2.9964,-2.9953,-2.9591,-2.8747,-2.8701,-2.8364,-2.7547,-2.7142,-2.6861,-2.6903,-2.6358,-2.6183,-2.6578,-2.6408,-2.6317,-2.6291,-2.6336,-2.7203,-2.9209,-2.9694,-2.9932,-2.988,-2.9828,-2.9493,-2.8595,-2.8426,-2.8043,-2.7232,-2.7107,-2.7062,-2.7187,-2.6811,-2.6392,-2.5893,-2.5317,-2.5029,-2.4803,-2.4688,-2.4789,-2.5076,-2.5042,-2.5146,-2.5302,-2.5564,-2.5703,-2.5645,-2.5693,-2.5693,-2.545,-2.5401,-2.5235,-2.5294,-2.502,-2.4566,-2.4067,-2.394,-2.3949,-2.3913,-2.394,-2.4161,-2.4705,-2.46,-2.4186,-2.3726,-2.3664,-2.3601,-2.3024,-2.3392,-2.3811,-2.8499,-2.7372,-2.7312,-2.6903,-2.6208,-2.5994,-2.5751,-2.5586,-2.5577,-2.6196,-2.7094,-2.6638,-2.6398,-2.635,-2.5819,-2.5441,-2.5255,-2.5265,-2.4922,-2.4341,-2.4341,-2.4143,-2.3845,-2.3854,-2.4003,-2.4341,-2.4341,-2.4538,-2.4873,-2.4883,-2.4873,-2.4922,-2.5157,-2.5635,-2.634,-2.6388,-2.6675,-2.7179,-2.7487,-2.7839,-2.8248,-2.8077,-2.8174,-2.8588,-2.8552,-2.8563,-2.8563,-2.8563,-2.8376,-2.7908,-2.7617,-2.7363,-2.7206,-2.6661,-2.6527,-2.6811,-2.6354,-2.6132,-2.6332,-2.5839,-2.5631,-2.579,-2.573,-2.6296,-2.7709,-2.7985,-2.8101,-2.8101,-2.8101,-2.7781,-2.7091,-2.7009,-2.672,-2.5993,-2.6105,-2.6243,-2.6206,-2.5885,-2.5708,-2.5672,-2.5203,-2.4867,-2.5078,-2.5106,-2.5252,-2.5653,-2.5745,-2.5681,-2.547,-2.547,-2.5409,-2.508,-2.5123,-2.501,-2.4801,-2.4634,-2.4587,-2.4564,-2.4194,-2.3889,-2.3674,-2.357,-2.3509,-2.3649,-2.3553,-2.3602,-2.4176,-2.4083,-2.3736,-2.3325,-2.3061,-2.2904,-2.2681,-2.2846,-2.3057,-2.8101,-2.6699,-2.6689,-2.6196,-2.5387,-2.5001,-2.4601,-2.4349,-2.4248,-2.506,-2.6292,-2.5684,-2.5362,-2.5255,-2.4538,-2.4211,-2.4211,-2.4211,-2.4211,-2.4211,-2.4211,-2.4211,-2.4211,-2.4211,-2.4211,-2.4211,-2.4211,-2.4211,-2.4211,-2.4211,-2.4211,-2.4211,-2.4211,-2.4587,-2.5362,-2.5353,-2.5732,-2.6464,-2.6094,-2.632,-2.7158,-2.6791,-2.678,-2.7148,-2.7226,-2.7179,-2.7179,-2.7179,-2.7094,-2.6846,-2.6482,-2.6367,-2.6491,-2.6215,-2.6235,-2.6577,-2.632,-2.6073,-2.6073,-2.5404,-2.5041,-2.5396,-2.5506,-2.5828,-2.6353,-2.6628,-2.6719,-2.671,-2.6755,-2.6471,-2.6175,-2.6074,-2.5855,-2.5506,-2.5773,-2.603,-2.5984,-2.5736,-2.5653,-2.5883,-2.5344,-2.5069,-2.5442,-2.5552,-2.5718,-2.6058,-2.6149,-2.6021,-2.5702,-2.5635,-2.531,-2.4978,-2.4823,-2.4659,-2.4079,-2.4014,-2.4056,-2.3971,-2.3591,-2.3496,-2.3608,-2.3443,-2.334,-2.3625,-2.3469,-2.3453,-2.3649,-2.3795,-2.3581,-2.3152,-2.2954,-2.2877,-2.2627,-2.2634,-2.2731,-2.74,-2.6187,-2.6106,-2.585,-2.5405,-2.4968,-2.4776,-2.4666,-2.4367,-2.4291,-2.4538,-2.4399,-2.435,-2.4341,-2.426,-2.4211,-2.4211,-2.4211,-2.4211,-2.4211,-2.4211,-2.4211,-2.4211,-2.4211,-2.4211,-2.4211,-2.4211,-2.4211,-2.4211,-2.4211,-2.4211,-2.4211,-2.4211,-2.4251,-2.4341,-2.435,-2.4399,-2.4489,-2.4452,-2.5305,-2.7084,-2.7138,-2.7148,-2.7179,-2.7189,-2.7179,-2.7115,-2.7179,-2.6771,-2.5926,-2.5809,-2.5412,-2.4674,-2.4814,-2.4969,-2.5075,-2.5344,-2.5463,-2.5515,-2.542,-2.5387,-2.5442,-2.5764,-2.5984,-2.6149,-2.6756,-2.7114,-2.7059,-2.6784,-2.6444,-2.6067,-2.6021,-2.5846,-2.5497,-2.5773,-2.6012,-2.6002,-2.5984,-2.5975,-2.5993,-2.5653,-2.5515,-2.5874,-2.5957,-2.6122,-2.6462,-2.6454,-2.6435,-2.6344,-2.6149,-2.5903,-2.5731,-2.5345,-2.4839,-2.4514,-2.4245,-2.4202,-2.4088,-2.3825,-2.3744,-2.3751,-2.3734,-2.3657,-2.3819,-2.3682,-2.3665,-2.3785,-2.3888,-2.3802,-2.3195,-2.3117,-2.3332,-2.2808,-2.2594,-2.2702,-2.6896,-2.6379,-2.6388,-2.6149,-2.5764,-2.5537,-2.5258,-2.4776,-2.4661,-2.444,-2.422,-2.4211,-2.4211,-2.4211,-2.4211,-2.4211,-2.4211,-2.4211,-2.4211,-2.4211,-2.4211,-2.4211,-2.4211,-2.4211,-2.4211,-2.4211,-2.4211,-2.4211,-2.4211,-2.4211,-2.4211,-2.4211,-2.4211,-2.4211,-2.4211,-2.4211,-2.4211,-2.4211,-2.4211,-2.4627,-2.5285,-2.5431,-2.5441,-2.547,-2.5643,-2.5778,-2.5807,-2.601,-2.5954,-2.555,-2.5293,-2.5073,-2.4909,-2.4872,-2.4946,-2.5166,-2.5552,-2.583,-2.6078,-2.5911,-2.5874,-2.6068,-2.6058,-2.6205,-2.6682,-2.6784,-2.6912,-2.7114,-2.7031,-2.6774,-2.6425,-2.6168,-2.5855,-2.5509,-2.5773,-2.6012,-2.6012,-2.6012,-2.6094,-2.6296,-2.603,-2.5929,-2.6233,-2.6334,-2.6408,-2.6564,-2.6591,-2.6591,-2.6573,-2.6435,-2.6299,-2.6082,-2.5784,-2.5476,-2.5108,-2.4845,-2.4721,-2.4597,-2.4276,-2.4042,-2.4264,-2.4119,-2.4059,-2.4273,-2.4119,-2.4119,-2.4359,-2.4376,-2.4282,-2.3546,-2.2869,-2.2877,-2.2312,-2.2448,-2.2624,-2.6591,-2.6591,-2.6591,-2.6417,-2.6123,-2.6058,-2.569,-2.5124,-2.4996,-2.4817,-2.456,-2.4532,-2.4542,-2.4523,-2.4422,-2.4431,-2.4523,-2.4542,-2.4542,-2.4542,-2.4532,-2.4532,-2.4532,-2.4413,-2.4431,-2.4486,-2.4312,-2.4211,-2.4211,-2.4211,-2.4211,-2.4211,-2.4211,-2.4211,-2.4211,-2.4211,-2.4211,-2.4211,-2.4211,-2.4211,-2.422,-2.4312,-2.4321,-2.4257,-2.4606,-2.4836,-2.4794,-2.517,-2.5372,-2.5414,-2.4996,-2.4959,-2.5378,-2.5096,-2.517,-2.5656,-2.6021,-2.6261,-2.6573,-2.6307,-2.6315,-2.6518,-2.6289,-2.6425,-2.6839,-2.6848,-2.6885,-2.7114,-2.7169,-2.6967,-2.6454,-2.6195,-2.5855,-2.5454,-2.5773,-2.6002,-2.6012,-2.6094,-2.6261,-2.6509,-2.6361,-2.6287,-2.6499,-2.6573,-2.6573,-2.6582,-2.6591,-2.6591,-2.6591,-2.6582,-2.6518,-2.63,-2.6227,-2.601,-2.5574,-2.5344,-2.5307,-2.5217,-2.4883,-2.4752,-2.4982,-2.4677,-2.4511,-2.4694,-2.4508,-2.4453,-2.4598,-2.4693,-2.4538,-2.3802,-2.3152,-2.2585,-2.2354,-2.2474,-2.2568,-2.6591,-2.6591,-2.6591,-2.6573,-2.6518,-2.6195,-2.5993,-2.5855,-2.55,-2.5368,-2.5313,-2.5313,-2.5298,-2.5313,-2.4992,-2.5019,-2.5262,-2.5313,-2.5295,-2.5243,-2.5313,-2.5298,-2.5341,-2.4941,-2.4941,-2.5185,-2.4569,-2.4238,-2.4211,-2.4211,-2.4211,-2.4211,-2.4229,-2.4229,-2.4238,-2.4248,-2.422,-2.4248,-2.422,-2.4211,-2.4248,-2.4578,-2.4519,-2.4312,-2.4592,-2.4891,-2.4849,-2.5179,-2.5399,-2.539,-2.5051,-2.4996,-2.5344,-2.5433,-2.5773,-2.6389,-2.6527,-2.6545,-2.6573,-2.6545,-2.6554,-2.6582,-2.6545,-2.6564,-2.6664,-2.6894,-2.7059,-2.7215,-2.7123,-2.683,-2.6206,-2.6131,-2.5929,-2.5598,-2.581,-2.6021,-2.6039,-2.6316,-2.6527,-2.6582,-2.6591,-2.6572,-2.6582,-2.6591,-2.6591,-2.6591,-2.6591,-2.6591,-2.6591,-2.6591,-2.6582,-2.6582,-2.6527,-2.6336,-2.5836,-2.5637,-2.5682,-2.5581,-2.5537,-2.5516,-2.5487,-2.5432,-2.5267,-2.5101,-2.4884,-2.4774,-2.4795,-2.4658,-2.435,-2.3768,-2.3109,-2.2611,-2.2457,-2.2534,-2.2603,-2.6591,-2.6591,-2.6591,-2.6591,-2.6573,-2.6417,-2.6206,-2.6002,-2.5865,-2.5653,-2.5399,-2.5372,-2.5561,-2.5791,-2.5653,-2.5525,-2.5381,-2.5372,-2.5372,-2.5372,-2.5372,-2.5372,-2.5353,-2.5216,-2.5216,-2.5313,-2.4872,-2.4468,-2.422,-2.4211,-2.4211,-2.4257,-2.4477,-2.4606,-2.4597,-2.4606,-2.4606,-2.4528,-2.4349,-2.4211,-2.422,-2.4349,-2.4468,-2.4643,-2.5197,-2.547,-2.5221,-2.5793,-2.6151,-2.6151,-2.581,-2.572,-2.6096,-2.6151,-2.627,-2.6545,-2.6591,-2.6591,-2.6591,-2.6591,-2.6591,-2.6591,-2.6591,-2.6591,-2.66,-2.671,-2.6802,-2.6802,-2.6802,-2.6619,-2.6472,-2.6353,-2.6298,-2.6206,-2.627,-2.6353,-2.6389,-2.6499,-2.6591,-2.6591,-2.6591,-2.6591,-2.6591,-2.6591,-2.6591,-2.6591,-2.6591,-2.6591,-2.6591,-2.6591,-2.6591,-2.6591,-2.6591,-2.6537,-2.6364,-2.6063,-2.5953,-2.5898,-2.5835,-2.5725,-2.5624,-2.5624,-2.5496,-2.5276,-2.5128,-2.4979,-2.4906,-2.4359,-2.4076,-2.3794,-2.3126,-2.2671,-2.2603,-2.2603,-2.2603,-2.6591,-2.6591,-2.6591,-2.6591,-2.6591,-2.6591,-2.6426,-2.6169,-2.6214,-2.6067,-2.5793,-2.5766,-2.5966,-2.6186,-2.6214,-2.6032,-2.5784,-2.5766,-2.5819,-2.5757,-2.5766,-2.5819,-2.58,-2.5681,-2.569,-2.5736,-2.5353,-2.495,-2.4643,-2.4597,-2.4597,-2.4633,-2.49,-2.4977,-2.4959,-2.4849,-2.4836,-2.4702,-2.4413,-2.4211,-2.4229,-2.4468,-2.4652,-2.4946,-2.5674,-2.6021,-2.5644,-2.6224,-2.6591,-2.6536,-2.6241,-2.614,-2.6353,-2.6518,-2.6591,-2.66,-2.671,-2.671,-2.6628,-2.671,-2.6729,-2.66,-2.6591,-2.6591,-2.6591,-2.6591,-2.6591,-2.6591,-2.6591,-2.6591,-2.6591,-2.6582,-2.6591,-2.6591,-2.6591,-2.6591,-2.6591,-2.6582,-2.6591,-2.6591,-2.6591,-2.6591,-2.6591,-2.6591,-2.6591,-2.6591,-2.6591,-2.6591,-2.6591,-2.6591,-2.6591,-2.6591,-2.6591,-2.6591,-2.6527,-2.6354,-2.6245,-2.6245,-2.619,-2.6026,-2.5916,-2.5852,-2.5734,-2.5505,-2.5284,-2.5072,-2.4683,-2.4127,-2.3853,-2.3682,-2.3186,-2.2628,-2.2603,-2.2603,-2.2603,-2.6591,-2.6591,-2.6591,-2.6591,-2.6591,-2.6591,-2.6582,-2.6545,-2.6545,-2.649,-2.6426,-2.6518,-2.6472,-2.6554,-2.6518,-2.6545,-2.6481,-2.6454,-2.6454,-2.6463,-2.649,-2.649,-2.6463,-2.6177,-2.6159,-2.638,-2.6096,-2.5764,-2.5341,-2.5295,-2.5304,-2.5359,-2.5378,-2.5424,-2.5433,-2.5041,-2.4821,-2.479,-2.4459,-2.4211,-2.4293,-2.4845,-2.5065,-2.4931,-2.5858,-2.627,-2.6002,-2.6353,-2.6591,-2.6545,-2.6215,-2.603,-2.6168,-2.6389,-2.6591,-2.6637,-2.6921,-2.694,-2.6674,-2.6903,-2.6894,-2.6738,-2.6619,-2.6683,-2.6747,-2.6683,-2.6655,-2.6664,-2.6609,-2.6591,-2.6591,-2.6591,-2.6591,-2.6591,-2.6591,-2.6591,-2.6591,-2.6591,-2.6591,-2.6591,-2.6591,-2.6591,-2.6591,-2.6591,-2.6591,-2.6591,-2.6591,-2.6591,-2.6591,-2.6591,-2.6591,-2.6591,-2.6591,-2.6591,-2.6591,-2.6582,-2.6582,-2.6582,-2.6527,-2.6418,-2.6309,-2.6254,-2.6081,-2.5852,-2.5395,-2.5119,-2.4756,-2.4264,-2.3845,-2.3562,-2.3049,-2.2637,-2.2603,-2.2603,-2.2603,-2.6591,-2.6591,-2.6591,-2.6591,-2.6591,-2.6591,-2.6591,-2.6591,-2.6591,-2.6591,-2.6591,-2.6591,-2.6591,-2.6591,-2.6591,-2.6591,-2.6591,-2.6591,-2.6591,-2.6591,-2.6591,-2.6591,-2.6554,-2.6454,-2.6307,-2.616,-2.6085,-2.581,-2.5454,-2.539,-2.5372,-2.546,-2.5708,-2.5828,-2.581,-2.5399,-2.5188,-2.5166,-2.4551,-2.4211,-2.4211,-2.445,-2.4652,-2.484,-2.5427,-2.5837,-2.6012,-2.6371,-2.6573,-2.6591,-2.6463,-2.6389,-2.6417,-2.6518,-2.6582,-2.66,-2.6692,-2.6738,-2.6628,-2.671,-2.6875,-2.694,-2.6985,-2.7141,-2.7315,-2.7132,-2.7004,-2.6949,-2.6756,-2.6591,-2.6591,-2.6591,-2.6591,-2.6591,-2.6591,-2.6591,-2.6591,-2.6591,-2.6591,-2.6591,-2.6591,-2.6591,-2.6591,-2.6591,-2.6591,-2.6591,-2.6591,-2.6591,-2.6591,-2.6591,-2.6591,-2.6591,-2.6591,-2.6591,-2.6591,-2.6591,-2.6591,-2.6591,-2.6591,-2.6591,-2.6591,-2.6537,-2.6364,-2.6017,-2.5569,-2.5113,-2.4751,-2.4333,-2.3862,-2.3529,-2.3057,-2.28,-2.2654,-2.2603,-2.2603,-2.6591,-2.6591,-2.6591,-2.6591,-2.6591,-2.6591,-2.6591,-2.6591,-2.6591,-2.6591,-2.6591,-2.6591,-2.6591,-2.6591,-2.6591,-2.6591,-2.6591,-2.6591,-2.6591,-2.6591,-2.6591,-2.6591,-2.6591,-2.6591,-2.6472,-2.6243,-2.6251,-2.6068,-2.5892,-2.5821,-2.583,-2.5885,-2.6078,-2.6241,-2.6151,-2.5855,-2.5589,-2.5359,-2.4771,-2.4358,-2.4266,-2.4358,-2.4583,-2.5047,-2.5433,-2.5828,-2.6223,-2.6454,-2.6591,-2.6591,-2.6591,-2.6591,-2.6591,-2.6582,-2.6591,-2.6609,-2.671,-2.6765,-2.6628,-2.6747,-2.6903,-2.7123,-2.7169,-2.7343,-2.7618,-2.7499,-2.7417,-2.7206,-2.6967,-2.6747,-2.6619,-2.6591,-2.6591,-2.6591,-2.6591,-2.6591,-2.6591,-2.6591,-2.6591,-2.6591,-2.6591,-2.6591,-2.6591,-2.6591,-2.6591,-2.6591,-2.6591,-2.6591,-2.6591,-2.6591,-2.6591,-2.6591,-2.6591,-2.6591,-2.6591,-2.6591,-2.6591,-2.6591,-2.6591,-2.6591,-2.6591,-2.6591,-2.6482,-2.6017,-2.5569,-2.5064,-2.4686,-2.4147,-2.3648,-2.3306,-2.3083,-2.28,-2.2603,-2.2603,-2.2603,-2.6591,-2.6591,-2.6591,-2.6591,-2.6591,-2.6591,-2.6591,-2.6591,-2.6591,-2.6591,-2.6591,-2.6591,-2.6591,-2.6591,-2.6591,-2.6591,-2.6591,-2.6591,-2.6591,-2.6591,-2.6591,-2.6591,-2.6591,-2.6591,-2.6554,-2.6536,-2.6545,-2.6536,-2.6499,-2.6454,-2.6582,-2.6499,-2.649,-2.6564,-2.6444,-2.616,-2.581,-2.5488,-2.4996,-2.4574,-2.4367,-2.4556,-2.4941,-2.5378,-2.5764,-2.6131,-2.6371,-2.6527,-2.6591,-2.6591,-2.6591,-2.6591,-2.6591,-2.66,-2.6664,-2.6701,-2.7004,-2.7004,-2.6848,-2.7031,-2.7215,-2.727,-2.7343,-2.7389,-2.7774,-2.7829,-2.7711,-2.7381,-2.7243,-2.6985,-2.6683,-2.6591,-2.6591,-2.6591,-2.6591,-2.6591,-2.6591,-2.6591,-2.6591,-2.6591,-2.6591,-2.6591,-2.6591,-2.6591,-2.6591,-2.6591,-2.6591,-2.6591,-2.6591,-2.6591,-2.6591,-2.6591,-2.6591,-2.6591,-2.6591,-2.6591,-2.6591,-2.6591,-2.6591,-2.6591,-2.6591,-2.6591,-2.6482,-2.6017,-2.5652,-2.5138,-2.4631,-2.4169,-2.3727,-2.3391,-2.3074,-2.2757,-2.2603,-2.2603,-2.2603,-2.6591,-2.6591,-2.6591,-2.6591,-2.6591,-2.6591,-2.6591,-2.6591,-2.6591,-2.6591,-2.6591,-2.6591,-2.6591,-2.6591,-2.6591,-2.6591,-2.6591,-2.6591,-2.6591,-2.6591,-2.6591,-2.6591,-2.6591,-2.6591,-2.6591,-2.6591,-2.6591,-2.6591,-2.6591,-2.6582,-2.6573,-2.6591,-2.66,-2.66,-2.6581,-2.626,-2.5984,-2.5764,-2.5115,-2.4964,-2.5047,-2.4891,-2.4977,-2.5362,-2.5828,-2.6085,-2.6223,-2.648,-2.6582,-2.6591,-2.6591,-2.6591,-2.6628,-2.6848,-2.6995,-2.7086,-2.7361,-2.7629,-2.7537,-2.7574,-2.7647,-2.7646,-2.7811,-2.8113,-2.8205,-2.8223,-2.8022,-2.7664,-2.7427,-2.7022,-2.6692,-2.6591,-2.6591,-2.6591,-2.6591,-2.6591,-2.6591,-2.6591,-2.6591,-2.6591,-2.6591,-2.6591,-2.6591,-2.6591,-2.6591,-2.6591,-2.6591,-2.6591,-2.6591,-2.6591,-2.6591,-2.6591,-2.6591,-2.6591,-2.6591,-2.6591,-2.6591,-2.6591,-2.6591,-2.6591,-2.6591,-2.6591,-2.6418,-2.6072,-2.5852,-2.5436,-2.4881,-2.4369,-2.3943,-2.3477,-2.3057,-2.2731,-2.2637,-2.2603,-2.2603,-2.6591,-2.6591,-2.6591,-2.6591,-2.6591,-2.6591,-2.6591,-2.6591,-2.6591,-2.6591,-2.6591,-2.6591,-2.6591,-2.6591,-2.6591,-2.6591,-2.6591,-2.6591,-2.6591,-2.6591,-2.6591,-2.6591,-2.6591,-2.6591,-2.6591,-2.6591,-2.6591,-2.6535,-2.6443,-2.649,-2.649,-2.6426,-2.6674,-2.682,-2.6848,-2.6673,-2.6425,-2.6205,-2.5592,-2.5396,-2.5396,-2.5152,-2.546,-2.5775,-2.6142,-2.6379,-2.6728,-2.6866,-2.6774,-2.6637,-2.6591,-2.6655,-2.6839,-2.7096,-2.7298,-2.7398,-2.7702,-2.7813,-2.7813,-2.7822,-2.7904,-2.7967,-2.8168,-2.8315,-2.8507,-2.8517,-2.8214,-2.7849,-2.7601,-2.7169,-2.6719,-2.6591,-2.6591,-2.6591,-2.6591,-2.6591,-2.6591,-2.6591,-2.6591,-2.6591,-2.6591,-2.6591,-2.6591,-2.6591,-2.6591,-2.6591,-2.6591,-2.6591,-2.6591,-2.6591,-2.6591,-2.6591,-2.6591,-2.6591,-2.6591,-2.6591,-2.6591,-2.6591,-2.6591,-2.6591,-2.6591,-2.6591,-2.6418,-2.619,-2.6017,-2.5663,-2.5088,-2.4538,-2.4067,-2.3573,-2.3083,-2.2817,-2.2714,-2.2603,-2.2603,-2.6591,-2.6591,-2.6591,-2.6591,-2.6591,-2.6591,-2.6591,-2.6591,-2.6591,-2.6591,-2.6591,-2.6591,-2.6591,-2.6591,-2.6591,-2.6591,-2.6591,-2.6591,-2.6591,-2.6591,-2.6591,-2.6591,-2.6591,-2.6591,-2.6591,-2.6591,-2.6591,-2.6462,-2.6379,-2.6509,-2.6463,-2.6481,-2.6995,-2.7196,-2.7233,-2.7261,-2.7031,-2.6793,-2.6388,-2.6104,-2.5957,-2.5812,-2.6113,-2.6609,-2.6729,-2.705,-2.7445,-2.7463,-2.7105,-2.6747,-2.671,-2.694,-2.7215,-2.726,-2.7481,-2.7792,-2.7996,-2.8051,-2.7987,-2.8079,-2.8031,-2.8269,-2.8086,-2.8132,-2.8654,-2.8608,-2.8352,-2.7939,-2.7868,-2.7408,-2.6811,-2.6591,-2.6591,-2.6591,-2.6591,-2.6591,-2.6591,-2.6591,-2.6591,-2.6591,-2.6591,-2.6591,-2.6591,-2.6591,-2.6591,-2.6591,-2.6591,-2.6591,-2.6591,-2.6591,-2.6591,-2.6591,-2.6591,-2.6591,-2.6591,-2.6591,-2.6591,-2.6591,-2.6591,-2.6591,-2.6591,-2.6582,-2.6418,-2.6254,-2.6136,-2.5809,-2.5332,-2.4744,-2.4225,-2.3763,-2.3375,-2.3023,-2.2783,-2.2654,-2.2603,-2.6591,-2.6591,-2.6591,-2.6591,-2.6591,-2.6591,-2.6591,-2.6591,-2.6591,-2.6591,-2.6591,-2.6591,-2.6591,-2.6591,-2.6591,-2.6591,-2.6591,-2.6591,-2.6591,-2.6591,-2.6591,-2.6591,-2.6591,-2.6591,-2.6591,-2.6591,-2.6591,-2.6581,-2.6536,-2.6765,-2.7004,-2.6976,-2.7372,-2.7702,-2.7636,-2.7702,-2.7675,-2.75,-2.716,-2.705,-2.7096,-2.6839,-2.7004,-2.7491,-2.749,-2.7572,-2.7757,-2.7748,-2.7656,-2.7592,-2.7574,-2.7581,-2.7673,-2.7921,-2.8113,-2.8269,-2.8535,-2.8682,-2.87,-2.8645,-2.8599,-2.8434,-2.8535,-2.8663,-2.8489,-2.8746,-2.8608,-2.8297,-2.8024,-2.7471,-2.6774,-2.66,-2.6591,-2.6591,-2.6591,-2.6591,-2.6591,-2.6591,-2.6591,-2.6591,-2.6591,-2.6591,-2.6591,-2.6591,-2.6591,-2.6591,-2.6591,-2.6591,-2.6591,-2.6591,-2.6591,-2.6591,-2.6591,-2.6591,-2.6619,-2.6664,-2.6738,-2.6738,-2.6719,-2.671,-2.6701,-2.6591,-2.6527,-2.6418,-2.6245,-2.5891,-2.5557,-2.5063,-2.4593,-2.4111,-2.3606,-2.3097,-2.2756,-2.2673,-2.2834,-2.6591,-2.6591,-2.6591,-2.6591,-2.6591,-2.6591,-2.6591,-2.6591,-2.6591,-2.6591,-2.6591,-2.6591,-2.6591,-2.6591,-2.6591,-2.6591,-2.6591,-2.6591,-2.6591,-2.6591,-2.6591,-2.6591,-2.6591,-2.6591,-2.6591,-2.6591,-2.6591,-2.6591,-2.6692,-2.6967,-2.715,-2.7242,-2.7746,-2.8031,-2.8058,-2.8058,-2.8067,-2.7976,-2.7721,-2.7629,-2.7739,-2.7638,-2.7711,-2.7976,-2.8077,-2.8122,-2.8391,-2.815,-2.8177,-2.8278,-2.8324,-2.8242,-2.8104,-2.8278,-2.8462,-2.8691,-2.8828,-2.8984,-2.8975,-2.8975,-2.8883,-2.8682,-2.8728,-2.8709,-2.8618,-2.8737,-2.8599,-2.8416,-2.8141,-2.7737,-2.6967,-2.6646,-2.6609,-2.6591,-2.6591,-2.6591,-2.6591,-2.6591,-2.6591,-2.6591,-2.6591,-2.6591,-2.6591,-2.6591,-2.6591,-2.6591,-2.6591,-2.6591,-2.6591,-2.6591,-2.6591,-2.6591,-2.6591,-2.66,-2.6646,-2.6747,-2.6986,-2.6949,-2.6958,-2.6958,-2.6958,-2.6774,-2.6591,-2.6473,-2.6418,-2.6245,-2.59,-2.5422,-2.4691,-2.3774,-2.3145,-2.2876,-2.2687,-2.2552,-2.2953,-2.6591,-2.6591,-2.6591,-2.6591,-2.6591,-2.6591,-2.6591,-2.6591,-2.6591,-2.6591,-2.6591,-2.6591,-2.6591,-2.6591,-2.6591,-2.6591,-2.6591,-2.6591,-2.6591,-2.6591,-2.6591,-2.6591,-2.6591,-2.6591,-2.6655,-2.6664,-2.6729,-2.6719,-2.6839,-2.7123,-2.7508,-2.7526,-2.8003,-2.8361,-2.8452,-2.8407,-2.8397,-2.8407,-2.8187,-2.8079,-2.8107,-2.8012,-2.8254,-2.8397,-2.8489,-2.8599,-2.8746,-2.8654,-2.8618,-2.8957,-2.8984,-2.8801,-2.8599,-2.8498,-2.8599,-2.8966,-2.8975,-2.8984,-2.8984,-2.8984,-2.8975,-2.8975,-2.8718,-2.8673,-2.8819,-2.8746,-2.8618,-2.8517,-2.8352,-2.8003,-2.7279,-2.693,-2.6701,-2.6609,-2.6591,-2.6591,-2.6591,-2.6591,-2.6591,-2.6591,-2.6591,-2.6591,-2.6591,-2.6591,-2.6591,-2.6591,-2.6591,-2.6591,-2.6591,-2.6591,-2.6591,-2.6683,-2.6719,-2.6802,-2.6857,-2.6885,-2.7059,-2.704,-2.7077,-2.7114,-2.7095,-2.6848,-2.6637,-2.6591,-2.6527,-2.6418,-2.6308,-2.6016,-2.5078,-2.3629,-2.2997,-2.2973,-2.2767,-2.2466,-2.2941,-2.6591,-2.6591,-2.6591,-2.6591,-2.6591,-2.6591,-2.6591,-2.6591,-2.6591,-2.6591,-2.6591,-2.6591,-2.6591,-2.6591,-2.6591,-2.6591,-2.6591,-2.6591,-2.6591,-2.6591,-2.6591,-2.6591,-2.6591,-2.6655,-2.6774,-2.7013,-2.7114,-2.7141,-2.7306,-2.7774,-2.804,-2.8196,-2.8333,-2.8553,-2.8645,-2.8608,-2.8572,-2.8709,-2.8663,-2.8654,-2.8654,-2.8663,-2.8682,-2.8819,-2.8819,-2.8883,-2.8938,-2.8929,-2.892,-2.8975,-2.8984,-2.8938,-2.8865,-2.8847,-2.8902,-2.8957,-2.8984,-2.8984,-2.8984,-2.8984,-2.8984,-2.8966,-2.8883,-2.8856,-2.8938,-2.8911,-2.8819,-2.8746,-2.8507,-2.8067,-2.727,-2.7086,-2.6894,-2.671,-2.6591,-2.6591,-2.6591,-2.6591,-2.6591,-2.6591,-2.6591,-2.6591,-2.6591,-2.6591,-2.6591,-2.6591,-2.6591,-2.6591,-2.6591,-2.6591,-2.6591,-2.6729,-2.6903,-2.7013,-2.7114,-2.7123,-2.7178,-2.7012,-2.7031,-2.7048,-2.6966,-2.6848,-2.6701,-2.6719,-2.6664,-2.6555,-2.6482,-2.6415,-2.541,-2.3941,-2.3504,-2.3142,-2.2456,-2.1885,-2.2474,-2.6591,-2.6591,-2.6591,-2.6591,-2.6591,-2.6591,-2.6591,-2.6591,-2.6591,-2.6591,-2.6591,-2.6591,-2.6591,-2.6591,-2.6591,-2.6591,-2.6591,-2.6591,-2.6591,-2.6591,-2.6591,-2.6591,-2.6646,-2.6774,-2.6976,-2.726,-2.7545,-2.7774,-2.7829,-2.8159,-2.8498,-2.8673,-2.87,-2.8709,-2.87,-2.8709,-2.8663,-2.8773,-2.8874,-2.8984,-2.8984,-2.8984,-2.8975,-2.8984,-2.8984,-2.8984,-2.8984,-2.8984,-2.8984,-2.8984,-2.8984,-2.8984,-2.8984,-2.8984,-2.8984,-2.8984,-2.8984,-2.8984,-2.8984,-2.8984,-2.8984,-2.8984,-2.8984,-2.8984,-2.8984,-2.8975,-2.8984,-2.8893,-2.8618,-2.815,-2.7554,-2.739,-2.6995,-2.6692,-2.6591,-2.6591,-2.6591,-2.6591,-2.6591,-2.6591,-2.6591,-2.6591,-2.6591,-2.6591,-2.6591,-2.6591,-2.6591,-2.6591,-2.6591,-2.6591,-2.6591,-2.6765,-2.694,-2.705,-2.7178,-2.727,-2.7306,-2.7159,-2.6642,-2.6668,-2.6722,-2.6541,-2.6718,-2.6893,-2.6802,-2.6774,-2.6489,-2.6287,-2.5233,-2.4159,-2.3117,-2.2186,-2.1584,-2.1401,-2.2053,-2.6591,-2.6591,-2.6591,-2.6591,-2.6591,-2.6591,-2.6591,-2.6591,-2.6591,-2.6591,-2.6591,-2.6591,-2.6591,-2.6591,-2.6591,-2.6591,-2.6591,-2.6591,-2.6591,-2.6591,-2.6591,-2.66,-2.6802,-2.7004,-2.7279,-2.7636,-2.7976,-2.8397,-2.8324,-2.8489,-2.8709,-2.881,-2.8911,-2.8801,-2.8645,-2.8709,-2.8654,-2.8718,-2.8792,-2.8975,-2.8975,-2.8902,-2.892,-2.8975,-2.8984,-2.8984,-2.8984,-2.8984,-2.8984,-2.8984,-2.8984,-2.8984,-2.8984,-2.8984,-2.8984,-2.8984,-2.8984,-2.8984,-2.8984,-2.8984,-2.8984,-2.8984,-2.8984,-2.8984,-2.8984,-2.8984,-2.8975,-2.892,-2.8737,-2.8379,-2.7939,-2.7592,-2.716,-2.682,-2.6664,-2.6591,-2.6591,-2.6591,-2.6591,-2.6591,-2.6591,-2.6591,-2.6591,-2.6591,-2.6591,-2.6591,-2.6591,-2.6591,-2.6591,-2.6591,-2.6628,-2.6857,-2.7004,-2.7059,-2.7187,-2.7408,-2.7463,-2.7426,-2.6462,-2.5872,-2.606,-2.6122,-2.6403,-2.6684,-2.7178,-2.7076,-2.6655,-2.6167,-2.526,-2.4099,-2.2445,-2.132,-2.0808,-2.1012,-2.1633,-2.6591,-2.6591,-2.6591,-2.6591,-2.6591,-2.6591,-2.6591,-2.6591,-2.6591,-2.6591,-2.6536,-2.6591,-2.6591,-2.6591,-2.6591,-2.6591,-2.6591,-2.6591,-2.6591,-2.6591,-2.6637,-2.6802,-2.705,-2.7123,-2.7646,-2.8031,-2.8315,-2.8388,-2.8498,-2.8746,-2.8893,-2.8929,-2.8746,-2.8581,-2.8746,-2.8691,-2.8627,-2.8847,-2.8948,-2.8984,-2.8938,-2.87,-2.8746,-2.8902,-2.8984,-2.8984,-2.8984,-2.8984,-2.8984,-2.8984,-2.8984,-2.8984,-2.8984,-2.8984,-2.8984,-2.8984,-2.8984,-2.8984,-2.8984,-2.8984,-2.8984,-2.8984,-2.8984,-2.8984,-2.8984,-2.8984,-2.8984,-2.8984,-2.8902,-2.8682,-2.8278,-2.7996,-2.7536,-2.7141,-2.682,-2.6674,-2.6591,-2.6591,-2.6591,-2.6591,-2.6591,-2.6591,-2.6591,-2.6591,-2.6591,-2.6591,-2.6591,-2.6591,-2.6591,-2.6591,-2.6619,-2.6774,-2.7022,-2.7077,-2.7059,-2.7242,-2.7315,-2.7444,-2.6329,-2.5255,-2.5522,-2.5783,-2.5886,-2.6228,-2.6888,-2.7552,-2.7489,-2.6786,-2.5603,-2.4147,-2.2631,-2.1228,-2.0011,-2.0493,-2.1162,-2.6591,-2.6591,-2.6591,-2.6591,-2.6591,-2.6591,-2.6591,-2.6591,-2.6582,-2.6454,-2.6325,-2.6554,-2.6591,-2.6591,-2.6591,-2.6591,-2.6591,-2.6591,-2.6591,-2.6683,-2.6802,-2.7013,-2.7251,-2.7627,-2.815,-2.8333,-2.8608,-2.8746,-2.8801,-2.8847,-2.8984,-2.8957,-2.8801,-2.8663,-2.8783,-2.8718,-2.8673,-2.8737,-2.8838,-2.8975,-2.8938,-2.8838,-2.8801,-2.8975,-2.8984,-2.8984,-2.8984,-2.8984,-2.8984,-2.8984,-2.8984,-2.8984,-2.8984,-2.8984,-2.8984,-2.8984,-2.8984,-2.8984,-2.8984,-2.8984,-2.8984,-2.8984,-2.8984,-2.8984,-2.8984,-2.8984,-2.8984,-2.8984,-2.8984,-2.8801,-2.8507,-2.8242,-2.7774,-2.7352,-2.7013,-2.6774,-2.6637,-2.6591,-2.6591,-2.6591,-2.6591,-2.6591,-2.6527,-2.6418,-2.6473,-2.6591,-2.6591,-2.6591,-2.6591,-2.6591,-2.6637,-2.6719,-2.6912,-2.7095,-2.7022,-2.704,-2.6957,-2.6836,-2.5848,-2.5078,-2.5259,-2.5439,-2.5566,-2.6365,-2.7432,-2.7933,-2.8177,-2.6802,-2.5079,-2.394,-2.2857,-2.142,-2.0024,-1.9763,-2.0252,-2.6683,-2.6591,-2.6591,-2.6591,-2.6591,-2.6591,-2.6591,-2.6591,-2.6591,-2.6417,-2.6315,-2.6444,-2.6591,-2.6591,-2.6591,-2.6591,-2.6591,-2.6591,-2.6664,-2.682,-2.7031,-2.7288,-2.7636,-2.8132,-2.8407,-2.8535,-2.8801,-2.8847,-2.8819,-2.892,-2.8984,-2.8984,-2.8948,-2.8828,-2.8718,-2.8783,-2.8847,-2.8682,-2.8737,-2.8856,-2.8938,-2.8856,-2.8874,-2.8948,-2.8984,-2.8984,-2.8984,-2.8984,-2.8984,-2.8984,-2.8984,-2.8984,-2.8984,-2.8984,-2.8984,-2.8984,-2.8984,-2.8984,-2.8984,-2.8984,-2.8984,-2.8984,-2.8984,-2.8984,-2.8984,-2.8984,-2.8984,-2.8984,-2.8984,-2.8819,-2.8608,-2.8471,-2.8022,-2.7591,-2.7215,-2.694,-2.671,-2.6664,-2.6619,-2.6591,-2.6591,-2.6591,-2.6473,-2.619,-2.6245,-2.6527,-2.6591,-2.6591,-2.6591,-2.6591,-2.6619,-2.6674,-2.6747,-2.6967,-2.705,-2.6958,-2.682,-2.6261,-2.5299,-2.4599,-2.46,-2.4887,-2.5124,-2.6269,-2.7575,-2.8142,-2.8275,-2.6347,-2.4532,-2.3955,-2.3095,-2.1391,-2.0227,-1.9839,-1.9514,-2.6921,-2.6591,-2.6591,-2.6591,-2.6591,-2.6591,-2.6591,-2.6591,-2.6591,-2.6564,-2.649,-2.6554,-2.6536,-2.6591,-2.6591,-2.6591,-2.6591,-2.6591,-2.6802,-2.7022,-2.7224,-2.7609,-2.8003,-2.8333,-2.8572,-2.8847,-2.8966,-2.8773,-2.8608,-2.8792,-2.8902,-2.8975,-2.8856,-2.8911,-2.8902,-2.8883,-2.8957,-2.8801,-2.8728,-2.8746,-2.881,-2.8764,-2.8691,-2.8929,-2.8984,-2.8984,-2.8984,-2.8984,-2.8984,-2.8984,-2.8984,-2.8984,-2.8984,-2.8984,-2.8984,-2.8984,-2.8984,-2.8984,-2.8984,-2.8984,-2.8984,-2.8984,-2.8984,-2.8984,-2.8984,-2.8984,-2.8984,-2.8984,-2.8984,-2.8966,-2.8801,-2.8608,-2.826,-2.7902,-2.7536,-2.7196,-2.6949,-2.6738,-2.6683,-2.6609,-2.6591,-2.6591,-2.6527,-2.6245,-2.6254,-2.6537,-2.6591,-2.6591,-2.6591,-2.6591,-2.6591,-2.6609,-2.6609,-2.6774,-2.704,-2.6967,-2.6674,-2.5949,-2.5039,-2.4192,-2.3649,-2.4081,-2.5033,-2.5869,-2.7133,-2.7785,-2.7957,-2.6067,-2.4671,-2.4293,-2.3248,-2.1281,-2.0195,-1.9775,-1.9456,-2.6949,-2.66,-2.6591,-2.6591,-2.6591,-2.6591,-2.6591,-2.6591,-2.6591,-2.6591,-2.6573,-2.6344,-2.6344,-2.6527,-2.6591,-2.6591,-2.6628,-2.6866,-2.7031,-2.7215,-2.7453,-2.7866,-2.8251,-2.8443,-2.8581,-2.8883,-2.8948,-2.8783,-2.8471,-2.8563,-2.8379,-2.837,-2.8462,-2.859,-2.8654,-2.8838,-2.8957,-2.8957,-2.8847,-2.8865,-2.8883,-2.8883,-2.8828,-2.8948,-2.8984,-2.8984,-2.8984,-2.8984,-2.8984,-2.8984,-2.8984,-2.8925,-2.8925,-2.8925,-2.8925,-2.8984,-2.8984,-2.8984,-2.8984,-2.8984,-2.8984,-2.8984,-2.8984,-2.8984,-2.8984,-2.8984,-2.8984,-2.8984,-2.8984,-2.8984,-2.8938,-2.8828,-2.8618,-2.826,-2.7893,-2.7526,-2.7169,-2.693,-2.6719,-2.6637,-2.66,-2.6591,-2.6473,-2.6309,-2.6427,-2.6537,-2.6591,-2.6591,-2.6591,-2.6591,-2.6591,-2.6591,-2.6591,-2.6591,-2.683,-2.671,-2.6491,-2.5602,-2.477,-2.4097,-2.3568,-2.4476,-2.5381,-2.6048,-2.6636,-2.7489,-2.7249,-2.5662,-2.4691,-2.4272,-2.2874,-2.0965,-2.0163,-1.9649,-1.9306,-2.694,-2.6609,-2.6591,-2.6591,-2.6591,-2.6591,-2.6591,-2.6591,-2.6591,-2.6591,-2.6564,-2.6333,-2.6289,-2.6527,-2.6591,-2.6591,-2.6692,-2.6958,-2.7205,-2.7416,-2.7711,-2.8012,-2.8223,-2.8324,-2.8342,-2.87,-2.8636,-2.8397,-2.8177,-2.8196,-2.7875,-2.7691,-2.7811,-2.8012,-2.8297,-2.859,-2.8856,-2.8957,-2.8984,-2.8984,-2.8984,-2.8975,-2.8966,-2.8984,-2.8984,-2.8984,-2.8984,-2.8984,-2.8984,-2.8797,-2.8668,-2.8618,-2.8677,-2.8746,-2.8687,-2.8865,-2.8984,-2.8984,-2.8984,-2.8984,-2.8984,-2.8984,-2.8984,-2.8984,-2.8984,-2.8984,-2.8984,-2.8984,-2.8984,-2.8984,-2.8984,-2.892,-2.8746,-2.837,-2.8287,-2.7948,-2.7389,-2.705,-2.683,-2.6655,-2.6619,-2.6591,-2.6582,-2.6418,-2.6473,-2.6537,-2.6591,-2.6591,-2.6591,-2.6591,-2.6591,-2.6591,-2.6591,-2.6591,-2.66,-2.6555,-2.6345,-2.5264,-2.4543,-2.408,-2.397,-2.471,-2.5218,-2.5704,-2.6385,-2.7237,-2.6631,-2.5266,-2.4677,-2.4233,-2.2362,-2.0338,-1.9884,-1.9356,-1.9099,-2.6949,-2.66,-2.6591,-2.6591,-2.6591,-2.6591,-2.6591,-2.6591,-2.6591,-2.6591,-2.6591,-2.6518,-2.6527,-2.6591,-2.6591,-2.6628,-2.6774,-2.7077,-2.7416,-2.7737,-2.7813,-2.8031,-2.8095,-2.8113,-2.7994,-2.8205,-2.815,-2.8033,-2.7849,-2.7849,-2.7427,-2.7022,-2.7169,-2.7499,-2.7792,-2.8205,-2.8599,-2.8929,-2.8975,-2.8984,-2.8984,-2.8984,-2.8984,-2.8984,-2.8984,-2.8984,-2.8984,-2.8984,-2.8984,-2.8916,-2.7873,-2.7873,-2.8489,-2.7753,-2.7822,-2.8677,-2.8925,-2.8984,-2.8984,-2.8984,-2.8984,-2.8984,-2.8984,-2.8984,-2.8984,-2.8984,-2.8797,-2.8609,-2.8865,-2.8916,-2.8925,-2.8838,-2.8501,-2.8568,-2.8486,-2.8199,-2.7585,-2.7297,-2.7105,-2.6811,-2.6664,-2.6591,-2.6591,-2.6591,-2.6591,-2.6591,-2.6591,-2.6591,-2.6591,-2.6591,-2.6591,-2.6591,-2.6591,-2.6591,-2.6591,-2.6591,-2.6199,-2.5119,-2.4223,-2.3768,-2.3432,-2.365,-2.4257,-2.5102,-2.6093,-2.7003,-2.6125,-2.4974,-2.3999,-2.2871,-2.1428,-1.9846,-1.944,-1.9166,-1.8958,-2.6949,-2.6591,-2.6591,-2.6591,-2.6591,-2.6591,-2.6591,-2.6591,-2.6591,-2.6591,-2.6591,-2.6591,-2.6591,-2.6591,-2.6637,-2.6738,-2.7022,-2.7389,-2.7783,-2.8104,-2.7911,-2.8058,-2.8077,-2.7783,-2.7666,-2.7904,-2.784,-2.761,-2.7436,-2.7436,-2.7105,-2.6774,-2.6784,-2.715,-2.771,-2.8187,-2.859,-2.8911,-2.8984,-2.8984,-2.8984,-2.8984,-2.8984,-2.8984,-2.8984,-2.8984,-2.8984,-2.8984,-2.8984,-2.8856,-2.7753,-2.7383,-2.7753,-2.7021,-2.7142,-2.7873,-2.8241,-2.8984,-2.8984,-2.8984,-2.8984,-2.8925,-2.8984,-2.8984,-2.8984,-2.8984,-2.8549,-2.8241,-2.8677,-2.8549,-2.7873,-2.7693,-2.7639,-2.8381,-2.841,-2.8102,-2.7696,-2.766,-2.7519,-2.7077,-2.6839,-2.6664,-2.66,-2.6364,-2.63,-2.6418,-2.6418,-2.6527,-2.6582,-2.6591,-2.6591,-2.6591,-2.6591,-2.6591,-2.6591,-2.6591,-2.6081,-2.5008,-2.4047,-2.332,-2.3095,-2.3038,-2.3761,-2.4824,-2.5812,-2.6573,-2.5666,-2.4524,-2.2606,-2.1118,-2.029,-1.9658,-1.9267,-1.9088,-1.9005,-2.682,-2.6591,-2.6591,-2.6591,-2.6591,-2.6591,-2.6591,-2.6591,-2.6591,-2.6591,-2.6591,-2.6591,-2.6591,-2.6619,-2.6756,-2.6875,-2.7242,-2.7756,-2.8031,-2.8324,-2.7948,-2.7967,-2.7829,-2.7444,-2.7279,-2.7491,-2.7473,-2.728,-2.7205,-2.7096,-2.683,-2.6646,-2.66,-2.6976,-2.7499,-2.793,-2.8342,-2.8663,-2.8828,-2.8984,-2.8984,-2.8984,-2.8984,-2.8984,-2.8984,-2.8984,-2.8984,-2.8984,-2.8984,-2.8609,-2.7873,-2.7013,-2.69,-2.6589,-2.6407,-2.665,-2.7444,-2.8122,-2.8241,-2.8865,-2.8737,-2.8241,-2.8668,-2.8984,-2.8984,-2.8984,-2.8618,-2.843,-2.8549,-2.8301,-2.7753,-2.7444,-2.7444,-2.8241,-2.8119,-2.7745,-2.8093,-2.7982,-2.7748,-2.7315,-2.6967,-2.6793,-2.6546,-2.6145,-2.5898,-2.6072,-2.6245,-2.6364,-2.6527,-2.6591,-2.6591,-2.6591,-2.6591,-2.6591,-2.6591,-2.6591,-2.5962,-2.4953,-2.3991,-2.3038,-2.3038,-2.3038,-2.3768,-2.4612,-2.5697,-2.6263,-2.5404,-2.4128,-2.2188,-2.0902,-2.0206,-1.9615,-1.9135,-1.8946,-1.887,-2.6591,-2.6591,-2.6591,-2.6591,-2.6591,-2.6591,-2.6591,-2.6591,-2.6591,-2.6591,-2.6591,-2.6591,-2.6628,-2.6765,-2.6995,-2.7224,-2.737,-2.8022,-2.8232,-2.8214,-2.7875,-2.7829,-2.7499,-2.7059,-2.6967,-2.694,-2.694,-2.6949,-2.7077,-2.6857,-2.6655,-2.66,-2.6591,-2.6839,-2.7187,-2.761,-2.8003,-2.8434,-2.8819,-2.8948,-2.8984,-2.8984,-2.8984,-2.8984,-2.8984,-2.8984,-2.8925,-2.8797,-2.8737,-2.8241,-2.7444,-2.6952,-2.6346,-2.5607,-2.5178,-2.5423,-2.6407,-2.6771,-2.7073,-2.7882,-2.7822,-2.7203,-2.7873,-2.8549,-2.8737,-2.8549,-2.831,-2.825,-2.837,-2.8489,-2.837,-2.7873,-2.7444,-2.7633,-2.7564,-2.7807,-2.831,-2.8223,-2.7893,-2.7536,-2.7169,-2.6912,-2.6537,-2.6136,-2.5852,-2.6136,-2.6309,-2.6309,-2.6418,-2.6591,-2.6591,-2.6591,-2.6591,-2.6591,-2.6591,-2.6591,-2.5569,-2.4445,-2.3768,-2.2982,-2.2982,-2.3038,-2.3768,-2.4612,-2.5798,-2.5852,-2.4723,-2.3376,-2.1801,-2.0751,-1.9914,-1.9461,-1.8997,-1.869,-1.8454,-2.6591,-2.6591,-2.6591,-2.6591,-2.6591,-2.6591,-2.6591,-2.6591,-2.6591,-2.6591,-2.6591,-2.6591,-2.6729,-2.7013,-2.7188,-2.7526,-2.782,-2.8031,-2.8159,-2.804,-2.7701,-2.7453,-2.7169,-2.6885,-2.6738,-2.6701,-2.6683,-2.6646,-2.6729,-2.6591,-2.6591,-2.6591,-2.6591,-2.6701,-2.6875,-2.7215,-2.7746,-2.8287,-2.8728,-2.8874,-2.8957,-2.8966,-2.8975,-2.8984,-2.8984,-2.8984,-2.8925,-2.8182,-2.7942,-2.7444,-2.5476,-2.4371,-2.4124,-2.3884,-2.3884,-2.4925,-2.5423,-2.5607,-2.5676,-2.5973,-2.6034,-2.579,-2.6156,-2.6702,-2.7194,-2.753,-2.7539,-2.7643,-2.766,-2.7548,-2.7488,-2.7176,-2.7315,-2.7573,-2.753,-2.7667,-2.8187,-2.844,-2.8092,-2.7721,-2.7353,-2.6894,-2.6537,-2.619,-2.6026,-2.6309,-2.6373,-2.6254,-2.6364,-2.6527,-2.6591,-2.6591,-2.6591,-2.6591,-2.6591,-2.6591,-2.5229,-2.3991,-2.3376,-2.27,-2.2248,-2.2531,-2.348,-2.4556,-2.5688,-2.5119,-2.3712,-2.2531,-2.1517,-2.0385,-1.9529,-1.9205,-1.8887,-1.8596,-1.8305,-2.6591,-2.6591,-2.6591,-2.6591,-2.6591,-2.6591,-2.6591,-2.6591,-2.6591,-2.6591,-2.6591,-2.6591,-2.6811,-2.715,-2.7408,-2.7711,-2.804,-2.8104,-2.8132,-2.7866,-2.7462,-2.7297,-2.705,-2.6802,-2.6646,-2.6591,-2.6591,-2.66,-2.6591,-2.6591,-2.6591,-2.6591,-2.6591,-2.6591,-2.6719,-2.704,-2.7508,-2.804,-2.8471,-2.8682,-2.8801,-2.8902,-2.8975,-2.8966,-2.8966,-2.8888,-2.8856,-2.7873,-2.7495,-2.7073,-2.5048,-2.4062,-2.345,-2.2772,-2.2466,-2.3325,-2.4008,-2.4131,-2.4371,-2.4871,-2.4679,-2.4494,-2.4625,-2.5109,-2.5557,-2.5929,-2.6179,-2.6429,-2.6404,-2.6388,-2.6318,-2.6363,-2.7063,-2.7711,-2.7651,-2.7531,-2.7975,-2.846,-2.8199,-2.7792,-2.7343,-2.6903,-2.6573,-2.6236,-2.6026,-2.6081,-2.5861,-2.5523,-2.5971,-2.6582,-2.6591,-2.6591,-2.6591,-2.6591,-2.6591,-2.6418,-2.5229,-2.4047,-2.332,-2.2644,-2.1801,-2.2305,-2.36,-2.4612,-2.5633,-2.4731,-2.3712,-2.2587,-2.1517,-2.0385,-1.9533,-1.9301,-1.901,-1.8713,-1.8369,-2.6591,-2.6591,-2.6591,-2.6591,-2.6591,-2.6591,-2.6591,-2.6591,-2.6591,-2.6591,-2.6591,-2.6591,-2.6802,-2.7169,-2.7426,-2.7691,-2.793,-2.8031,-2.7911,-2.7785,-2.726,-2.704,-2.694,-2.6774,-2.6619,-2.6591,-2.6591,-2.6591,-2.6591,-2.6591,-2.6591,-2.6591,-2.6591,-2.6591,-2.6646,-2.6875,-2.7224,-2.7526,-2.7967,-2.8269,-2.8498,-2.8718,-2.8929,-2.8893,-2.8747,-2.861,-2.8623,-2.8343,-2.7966,-2.7065,-2.6034,-2.4679,-2.3201,-2.1908,-2.1475,-2.1601,-2.2466,-2.2772,-2.3139,-2.3636,-2.3574,-2.3636,-2.3946,-2.376,-2.3828,-2.4579,-2.5109,-2.5625,-2.575,-2.5658,-2.5557,-2.6294,-2.7041,-2.754,-2.7635,-2.7479,-2.7513,-2.7849,-2.793,-2.7607,-2.7444,-2.6967,-2.6242,-2.5911,-2.5523,-2.5633,-2.5514,-2.5008,-2.5293,-2.6136,-2.6473,-2.6473,-2.6591,-2.6591,-2.6591,-2.6245,-2.5229,-2.4214,-2.3376,-2.2418,-2.1574,-2.2474,-2.3768,-2.4612,-2.5348,-2.4898,-2.4047,-2.2869,-2.1744,-2.0551,-1.9815,-1.9482,-1.9191,-1.8836,-1.8544,-2.6591,-2.6591,-2.6591,-2.6591,-2.6591,-2.6591,-2.6591,-2.6591,-2.6591,-2.6591,-2.6591,-2.6619,-2.6811,-2.7178,-2.7297,-2.7581,-2.8031,-2.7737,-2.7693,-2.7491,-2.7068,-2.683,-2.6756,-2.6664,-2.6591,-2.6591,-2.6591,-2.6591,-2.6591,-2.6591,-2.6591,-2.6591,-2.6591,-2.6591,-2.6591,-2.6784,-2.6903,-2.7196,-2.7473,-2.7911,-2.8324,-2.8416,-2.8535,-2.8133,-2.7818,-2.7278,-2.6815,-2.5427,-2.4743,-2.387,-2.2937,-2.2153,-2.1538,-2.1229,-2.1109,-2.1166,-2.1475,-2.1727,-2.1908,-2.2215,-2.2153,-2.1971,-2.1971,-2.1846,-2.2188,-2.3286,-2.4131,-2.4713,-2.4939,-2.4863,-2.5111,-2.6005,-2.6769,-2.7206,-2.767,-2.7418,-2.7108,-2.7346,-2.7564,-2.7561,-2.7506,-2.6933,-2.6187,-2.5585,-2.518,-2.5008,-2.4953,-2.4787,-2.4778,-2.534,-2.6026,-2.6199,-2.6527,-2.6591,-2.6591,-2.6245,-2.5284,-2.427,-2.3376,-2.2418,-2.1517,-2.2191,-2.3207,-2.427,-2.4889,-2.4381,-2.388,-2.3263,-2.2078,-2.0831,-1.9931,-1.9482,-1.9307,-1.901,-1.8719,-2.6591,-2.6591,-2.6591,-2.6591,-2.6591,-2.6591,-2.6591,-2.6591,-2.6591,-2.6591,-2.6591,-2.6619,-2.6802,-2.7132,-2.7178,-2.7381,-2.7774,-2.7407,-2.7205,-2.704,-2.693,-2.6692,-2.6591,-2.6591,-2.6591,-2.6591,-2.6591,-2.6591,-2.6591,-2.6591,-2.6591,-2.6591,-2.6591,-2.6591,-2.6591,-2.6609,-2.6784,-2.7141,-2.7234,-2.7583,-2.8086,-2.8113,-2.8113,-2.7697,-2.7004,-2.6375,-2.5738,-2.4396,-2.3521,-2.2773,-2.1929,-2.1461,-2.1229,-2.1102,-2.1102,-2.1102,-2.1166,-2.1102,-2.1102,-2.1102,-2.1102,-2.1102,-2.1102,-2.1355,-2.1409,-2.2426,-2.2666,-2.3135,-2.3278,-2.3204,-2.3956,-2.4841,-2.5413,-2.5826,-2.7068,-2.7687,-2.7505,-2.7588,-2.7816,-2.8046,-2.7779,-2.7107,-2.6385,-2.5561,-2.497,-2.3712,-2.3768,-2.4334,-2.439,-2.4573,-2.5247,-2.6071,-2.6491,-2.6619,-2.6591,-2.619,-2.5514,-2.4501,-2.3368,-2.332,-2.2926,-2.2361,-2.2531,-2.3865,-2.4376,-2.3712,-2.3199,-2.2933,-2.2207,-2.1002,-2.0155,-1.9424,-1.9301,-1.9127,-1.8836,-2.6591,-2.6591,-2.6591,-2.6591,-2.6591,-2.6591,-2.6591,-2.6591,-2.6591,-2.6591,-2.6591,-2.6591,-2.6811,-2.6995,-2.7095,-2.7188,-2.7188,-2.7077,-2.6885,-2.683,-2.6674,-2.66,-2.6591,-2.6591,-2.6591,-2.6591,-2.6591,-2.6591,-2.6591,-2.6591,-2.6591,-2.6591,-2.6591,-2.6591,-2.66,-2.6719,-2.6949,-2.7307,-2.7427,-2.7436,-2.762,-2.7739,-2.7748,-2.7332,-2.647,-2.5788,-2.5302,-2.4359,-2.3148,-2.2532,-2.1562,-2.1245,-2.1102,-2.1102,-2.1102,-2.1102,-2.1102,-2.1102,-2.1102,-2.1102,-2.1102,-2.1102,-2.1102,-2.1129,-2.1182,-2.138,-2.1676,-2.1777,-2.1914,-2.227,-2.3028,-2.372,-2.4234,-2.4797,-2.6269,-2.7687,-2.7661,-2.7675,-2.8009,-2.8295,-2.7826,-2.7209,-2.6244,-2.5457,-2.4333,-2.3012,-2.2716,-2.3384,-2.3896,-2.4153,-2.4616,-2.5783,-2.6719,-2.6756,-2.6628,-2.6245,-2.575,-2.4492,-2.3592,-2.4103,-2.4192,-2.315,-2.2857,-2.3755,-2.3964,-2.3569,-2.3083,-2.2764,-2.1895,-2.1219,-2.0162,-1.9424,-1.9359,-1.9185,-1.8887,-2.6591,-2.6591,-2.6591,-2.6591,-2.6591,-2.6591,-2.6591,-2.6591,-2.6591,-2.6591,-2.6591,-2.6591,-2.6664,-2.671,-2.6701,-2.6811,-2.7087,-2.6903,-2.6985,-2.7022,-2.6692,-2.6609,-2.6591,-2.6591,-2.6591,-2.6591,-2.6591,-2.6591,-2.6591,-2.6591,-2.6591,-2.6591,-2.6591,-2.66,-2.6646,-2.6811,-2.7105,-2.7326,-2.726,-2.7205,-2.7289,-2.7362,-2.7344,-2.6433,-2.4921,-2.4392,-2.357,-2.184,-2.1187,-2.0944,-2.111,-2.1112,-2.1076,-2.1069,-2.1069,-2.1009,-2.1015,-2.1069,-2.1062,-2.1089,-2.1096,-2.1102,-2.1102,-2.1109,-2.1196,-2.14,-2.1467,-2.1393,-2.1537,-2.1882,-2.2475,-2.3049,-2.3573,-2.4064,-2.5147,-2.6346,-2.6987,-2.7383,-2.7845,-2.7846,-2.7609,-2.6523,-2.524,-2.4402,-2.3447,-2.2298,-2.1586,-2.2356,-2.4184,-2.4161,-2.4012,-2.5499,-2.6893,-2.683,-2.6674,-2.6472,-2.5856,-2.4577,-2.3609,-2.3747,-2.3667,-2.3414,-2.3446,-2.3559,-2.3974,-2.3919,-2.3375,-2.284,-2.2347,-2.1649,-2.0259,-1.943,-1.9392,-1.9342,-1.9135]},{"header":{"parameterUnit":"m.s-1","parameterCategory":1,"la1":31.0,"la2":29.5877,"lo1":-88.7671,"lo2":-86.6584,"dy":0.0162,"dx":0.0185,"nx":115,"ny":88,"refTime":"2024-08-26T12:00:00:Z","depth":0,"parameterNumber":3,"parameterNumberName":"V-component_of_WINDS"},"data":[0.0,0.0,0.0,0.0,0.0,0.0,0.0,0.0,0.0,0.0,0.0,0.0,0.0,0.0,0.0,0.0,0.0,0.0,0.0,0.0,0.0,0.0,0.0,0.0,0.0,0.0,0.0,0.0,0.0,0.0,0.0,0.0,0.0,0.0,0.0,0.0,0.0,0.0,0.0,0.0,0.0,0.0,0.0,0.0,0.0,0.0,0.0,0.0,0.0,0.0,0.0,0.0,0.0,0.0,0.0,0.0,0.0,0.0,0.0,0.0,0.0,0.0,0.0,0.0,0.0,0.0,0.0,0.0,0.0,0.0,0.0,0.0,0.0,0.0,0.0,0.0,0.0,0.0,0.0,0.0,0.0,0.0,0.0,0.0,0.0,0.0,0.0,0.0,0.0,0.0,0.0,0.0,0.0,0.0,0.0,0.0,0.0,0.0,0.0,0.0,0.0,0.0,0.0,0.0,0.0,0.0,0.0,0.0,0.0,0.0,0.0,0.0,0.0,0.0,0.0,0.0,0.0,0.0,0.0,0.0,0.0,0.0,0.0,0.0,0.0,0.0,0.0,0.0,0.0,0.0,0.0,0.0,0.0,0.0,0.0,0.0,0.0,0.0,0.0,0.0,0.0,0.0,0.0,0.0,0.0,0.0,0.0,0.0,0.0,0.0,0.0,0.0,0.0,0.0,0.0,0.0,0.0,0.0,0.0,0.0,0.0,0.0,0.0,0.0,0.0,0.0,0.0,0.0,0.0,0.0,0.0,0.0,0.0,0.0,0.0,0.0,0.0,0.0,0.0,0.0,0.0,0.0,0.0,0.0,0.0,0.0,0.0,0.0,0.0,0.0,0.0,0.0,0.0,0.0,0.0,0.0,0.0,0.0,0.0,0.0,0.0,0.0,0.0,0.0,0.0,0.0,0.0,0.0,0.0,0.0,0.0,0.0,0.0,0.0,0.0,0.0,0.0,0.0,0.0,0.0,0.0,0.0,0.0,0.0,0.0,0.0,0.0,0.0,0.0,0.0,0.0,0.0,0.0,0.0,0.0,0.0,0.0,0.0,0.0,0.0,0.0,0.0,0.0,0.0,0.0,0.0,0.0,0.0,0.0,0.0,0.0,0.0,0.0,0.0,0.0,0.0,0.0,0.0,0.0,0.0,0.0,0.0,0.0,0.0,0.0,0.0,0.0,0.0,0.0,0.0,0.0,0.0,0.0,0.0,0.0,0.0,0.0,0.0,0.0,0.0,0.0,0.0,0.0,0.0,0.0,0.0,0.0,0.0,0.0,0.0,0.0,0.0,0.0,0.0,0.0,0.0,0.0,0.0,0.0,0.0,0.0,0.0,0.0,0.0,0.0,0.0,0.0,0.0,0.0,0.0,0.0,0.0,0.0,0.0,0.0,0.0,0.0,0.0,0.0,0.0,0.0,0.0,0.0,0.0,0.0,0.0,0.0,0.0,0.0,0.0,0.0,0.0,0.0,0.0,0.0,0.0,0.0,0.0,0.0,0.0,0.0,0.0,0.0,0.0,0.0,0.0,0.0,0.0,0.0,0.0,0.0,0.0,0.0,0.0,0.0,0.0,0.0,0.0,0.0,0.0,0.0,0.0,0.0,0.0,0.0,0.0,0.0,0.0,0.0,0.0,0.0,0.0,0.0,0.0,0.0,0.0,0.0,0.0,0.0,0.0,0.0,0.0,0.0,0.0,0.0,0.0,0.0,0.0,0.0,0.0,0.0,0.0,0.0,0.0,0.0,0.0,0.0,0.0,0.0,0.0,0.0,0.0,0.0,0.0,0.0,0.0,0.0,0.0,0.0,0.0,0.0,0.0,0.0,0.0,0.0,0.0,0.0,0.0,0.0,0.0,0.0,0.0,0.0,0.0,0.0,0.0,0.0,0.0,0.0,0.0,0.0,0.0,0.0,0.0,0.0,0.0,0.0,0.0,0.0,0.0,0.0,0.0,0.0,0.0,0.0,0.0,0.0,0.0,0.0,0.0,0.0,0.0,0.0,0.0,0.0,0.0,0.0,0.0,0.0,0.0,0.0,0.0,0.0,0.0,0.0,0.0,0.0,0.0,0.0,0.0,0.0,0.0,0.0,0.0,0.0,0.0,0.0,0.0,0.0,0.0,0.0,0.0,0.0,0.0,0.0,0.0,0.0,0.0,0.0,0.0,0.0,0.0,0.0,0.0,0.0,0.0,0.0,0.0,0.0,0.0,0.0,0.0,0.0,0.0,0.0,0.0,0.0,0.0,0.0,0.0,0.0,0.0,0.0,0.0,0.0,0.0,0.0,0.0,0.0,0.0,0.0,0.0,0.0,0.0,0.0,0.0,0.0,0.0,0.0,0.0,0.0,0.0,0.0,0.0,0.0,0.0,0.0,0.0,0.0,0.0,0.0,0.0,0.0,0.0,0.0,0.0,0.0,0.0,0.0,0.0,0.0,0.0,0.0,0.0,0.0,0.0,0.0,0.0,0.0,0.0,0.0,0.0,0.0,0.0,0.0,0.0,0.0,0.0,0.0,0.0,0.0,0.0,0.0,0.0,0.0,0.0,0.0,0.0,0.0,0.0,0.0,0.0,0.0,0.0,0.0,0.0,0.0,0.0,0.0,0.0,0.0,0.0,0.0,0.0,0.0,0.0,0.0,0.0,0.0,0.0,0.0,0.0,0.0,0.0,0.0,0.0,0.0,0.0,0.0,0.0,0.0,0.0,0.0,0.0,0.0,0.0,0.0,0.0,0.0,0.0,0.0,0.0,0.0,0.0,0.0,0.0,0.0,0.0,0.0,0.0,0.0,0.0,0.0,0.0,0.0,0.0,0.0,0.0,0.0,0.0,0.0,0.0,0.0,0.0,0.0,0.0,0.0,0.0,0.0,0.0,0.0,0.0,0.0,0.0,0.0,0.0,0.0,0.0,0.0,0.0,0.0,0.0,0.0,0.0,0.0,0.0,0.0,0.0,0.0,0.0,0.0,0.0,0.0,0.0,0.0,0.0,0.0,0.0,0.0,0.0,0.0,0.0,0.0,0.0,0.0,0.0,0.0,0.0,0.0,0.0,0.0,0.0,0.0,0.0,0.0,0.0,0.0,0.0,0.0,0.0,0.0,0.0,0.0,0.0,0.0,0.0,0.0,0.0,0.0,0.0,0.0,0.0,0.0,0.0,0.0,0.0,0.0,0.0,0.0,0.0,0.0,0.0,0.0,0.0,0.0,0.0,0.0,0.0,0.0,0.0,0.0,0.0,0.0,0.0,0.0,0.0,0.0,0.0,0.0,0.0,0.0,0.0,0.0,0.0,0.0,0.0,0.0,0.0,0.0,0.0,0.0,0.0,0.0,0.0,0.0,0.0,0.0,0.0,0.0,0.0,0.0,0.0,0.0,0.0,0.0,0.0,0.0,0.0,0.0,0.0,0.0,0.0,0.0,0.0,0.0,0.0,0.0,0.0,0.0,0.0,0.0,0.0,0.0,0.0,0.0,0.0,0.0,0.0,0.0,0.0,0.0,0.0,0.0,0.0,0.0,0.0,0.0,0.0,0.0,0.0,0.0,0.0,0.0,0.0,0.0,0.0,0.0,0.0,0.0,0.0,0.0,0.0,0.0,0.0,0.0,0.0,0.0,0.0,0.0,0.0,0.0,0.0,0.0,0.0,0.0,0.0,0.0,0.0,0.0,0.0,0.0,0.0,0.0,0.0,0.0,0.0,0.0,0.0,0.0,0.0,0.0,0.0,0.0,0.0,0.0,0.0,0.0,0.0,0.0,0.0,0.0,0.0,0.0,0.0,0.0,0.0,0.0,0.0,0.0,0.0,0.0,0.0,0.0,0.0,0.0,0.0,0.0,0.0,0.0,0.0,0.0,0.0,0.0,0.0,0.0,0.0,0.0,0.0,0.0,0.0,0.0,0.0,0.0,0.0,0.0,0.0,0.0,0.0,0.0,0.0,0.0,0.0,0.0,0.0,0.0,0.0,0.0,0.0,0.0,0.0,0.0,0.0,0.0,0.0,0.0,0.0,0.0,0.0,0.0,0.0,0.0,0.0,0.0,0.0,0.0,0.0,0.0,0.0,0.0,0.0,0.0,0.0,0.0,0.0,0.0,0.0,0.0,0.0,0.0,0.0,0.0,0.0,0.0,0.0,0.0,0.0,0.0,0.0,0.0,0.0,0.0,0.0,0.0,0.0,0.0,0.0,0.0,0.0,0.0,0.0,0.0,0.0,0.0,0.0,0.0,0.0,0.0,0.0,0.0,0.0,0.0,0.0,0.0,0.0,0.0,0.0,2.6197,0.0,0.0,0.0,0.0,0.0,0.0,0.0,0.0,0.0,0.0,0.0,0.0,0.0,0.0,0.0,0.0,0.0,0.0,0.0,0.0,0.0,0.0,0.0,0.0,0.0,0.0,0.0,0.0,0.0,0.0,0.0,0.0,0.0,0.0,0.0,0.0,0.0,0.0,0.0,0.0,0.0,0.0,0.0,0.0,0.0,0.0,0.0,0.0,0.0,0.0,0.0,0.0,0.0,0.0,0.0,0.0,0.0,0.0,0.0,0.0,0.0,0.0,0.0,0.0,0.0,0.0,0.0,0.0,0.0,0.0,0.0,0.0,0.0,0.0,0.0,0.0,0.0,0.0,0.0,0.0,0.0,0.0,0.0,0.0,0.0,0.0,0.0,0.0,0.0,0.0,0.0,0.0,0.0,0.0,0.0,0.0,0.0,0.0,0.0,0.0,0.0,0.0,0.0,0.0,0.0,0.0,0.0,0.0,0.0,0.0,2.5867,2.5867,2.5867,2.5907,2.6069,0.0,0.0,0.0,0.0,0.0,0.0,0.0,0.0,0.0,0.0,0.0,0.0,0.0,0.0,0.0,0.0,0.0,0.0,0.0,0.0,0.0,0.0,0.0,0.0,0.0,0.0,0.0,0.0,0.0,0.0,0.0,0.0,0.0,0.0,0.0,0.0,0.0,0.0,0.0,0.0,0.0,0.0,0.0,0.0,0.0,0.0,0.0,0.0,0.0,0.0,0.0,0.0,0.0,0.0,0.0,0.0,0.0,0.0,0.0,0.0,0.0,0.0,0.0,0.0,0.0,0.0,0.0,0.0,0.0,0.0,0.0,0.0,0.0,0.0,0.0,0.0,0.0,0.0,0.0,0.0,0.0,0.0,0.0,0.0,0.0,0.0,0.0,0.0,0.0,0.0,0.0,0.0,0.0,0.0,0.0,0.0,0.0,0.0,0.0,0.0,0.0,0.0,0.0,0.0,0.0,0.0,0.0,0.0,0.0,0.0,0.0,0.0,2.5452,2.5287,2.5195,0.0,0.0,0.0,0.0,0.0,0.0,0.0,0.0,0.0,0.0,0.0,0.0,0.0,0.0,0.0,0.0,0.0,0.0,0.0,0.0,0.0,0.0,0.0,0.0,0.0,0.0,0.0,0.0,0.0,0.0,0.0,0.0,0.0,0.0,0.0,0.0,0.0,0.0,0.0,0.0,0.0,0.0,0.0,0.0,0.0,0.0,0.0,0.0,0.0,0.0,0.0,0.0,0.0,0.0,0.0,0.0,0.0,0.0,0.0,0.0,0.0,0.0,0.0,0.0,0.0,0.0,0.0,0.0,0.0,0.0,0.0,0.0,0.0,0.0,0.0,0.0,0.0,0.0,0.0,0.0,0.0,0.0,0.0,0.0,0.0,0.0,0.0,0.0,0.0,0.0,0.0,0.0,0.0,0.0,0.0,0.0,0.0,0.0,0.0,0.0,0.0,0.0,0.0,0.0,0.0,0.0,0.0,0.0,0.0,0.0,2.5993,2.5864,2.5347,0.0,2.3197,0.0,0.0,0.0,0.0,0.0,0.0,0.0,0.0,0.0,0.0,0.0,0.0,0.0,0.0,0.0,0.0,0.0,0.0,0.0,0.0,0.0,0.0,0.0,0.0,0.0,0.0,0.0,0.0,0.0,0.0,0.0,0.0,0.0,0.0,0.0,0.0,0.0,0.0,0.0,0.0,0.0,0.0,0.0,0.0,0.0,0.0,0.0,0.0,0.0,0.0,0.0,0.0,0.0,0.0,0.0,0.0,0.0,0.0,0.0,0.0,0.0,0.0,0.0,0.0,0.0,0.0,0.0,0.0,0.0,0.0,0.0,0.0,0.0,0.0,0.0,0.0,0.0,0.0,0.0,0.0,0.0,0.0,0.0,0.0,0.0,0.0,0.0,0.0,0.0,0.0,0.0,0.0,0.0,0.0,0.0,0.0,0.0,0.0,0.0,0.0,0.0,0.0,0.0,0.0,0.0,0.0,0.0,0.0,0.0,0.0,2.6176,2.6146,2.5628,2.4665,0.0,0.0,0.0,0.0,0.0,0.0,0.0,0.0,0.0,0.0,0.0,0.0,0.0,0.0,0.0,0.0,0.0,0.0,0.0,0.0,0.0,0.0,0.0,0.0,0.0,0.0,0.0,0.0,0.0,0.0,0.0,0.0,0.0,0.0,0.0,0.0,0.0,0.0,0.0,0.0,0.0,0.0,0.0,0.0,0.0,0.0,0.0,0.0,0.0,0.0,0.0,0.0,0.0,0.0,0.0,0.0,0.0,0.0,0.0,0.0,0.0,0.0,0.0,0.0,0.0,0.0,0.0,0.0,0.0,0.0,0.0,0.0,0.0,0.0,0.0,0.0,0.0,0.0,0.0,0.0,0.0,0.0,0.0,0.0,0.0,0.0,0.0,0.0,0.0,0.0,0.0,0.0,0.0,0.0,0.0,0.0,0.0,0.0,0.0,0.0,0.0,0.0,0.0,0.0,0.0,0.0,0.0,0.0,0.0,0.0,2.6365,2.6295,2.5946,2.5482,2.4572,2.315,0.0,0.0,0.0,0.0,0.0,0.0,0.0,0.0,0.0,0.0,0.0,0.0,0.0,0.0,0.0,0.0,0.0,0.0,0.0,0.0,0.0,0.0,0.0,0.0,0.0,0.0,0.0,0.0,0.0,0.0,0.0,0.0,0.0,0.0,0.0,0.0,0.0,0.0,0.0,0.0,0.0,0.0,0.0,0.0,0.0,0.0,0.0,0.0,0.0,0.0,0.0,0.0,0.0,0.0,0.0,0.0,0.0,0.0,0.0,0.0,0.0,0.0,0.0,0.0,0.0,0.0,0.0,0.0,0.0,0.0,0.0,0.0,0.0,0.0,0.0,0.0,0.0,0.0,0.0,0.0,0.0,0.0,0.0,0.0,0.0,0.0,0.0,0.0,0.0,0.0,0.0,0.0,0.0,0.0,0.0,0.0,0.0,0.0,0.0,0.0,0.0,0.0,0.0,0.0,0.0,0.0,0.0,0.0,2.6805,2.6865,2.6301,2.514,2.4603,2.3734,0.0,0.0,0.0,0.0,0.0,0.0,0.0,0.0,0.0,0.0,0.0,0.0,0.0,0.0,0.0,0.0,0.0,0.0,0.0,0.0,0.0,0.0,0.0,0.0,0.0,0.0,0.0,0.0,0.0,0.0,0.0,0.0,0.0,0.0,0.0,0.0,0.0,0.0,0.0,0.0,0.0,0.0,0.0,0.0,0.0,0.0,0.0,0.0,0.0,0.0,0.0,0.0,0.0,0.0,0.0,0.0,0.0,0.0,0.0,0.0,0.0,0.0,0.0,0.0,0.0,0.0,0.0,0.0,0.0,0.0,0.0,0.0,0.0,0.0,0.0,0.0,0.0,0.0,0.0,0.0,0.0,0.0,0.0,0.0,0.0,0.0,0.0,0.0,0.0,0.0,0.0,0.0,0.0,0.0,0.0,0.0,0.0,0.0,0.0,0.0,0.0,0.0,0.0,0.0,0.0,0.0,0.0,0.0,0.0,2.6886,2.7059,2.6694,2.5755,2.4887,2.405,0.0,0.0,0.0,0.0,0.0,0.0,0.0,0.0,0.0,0.0,0.0,0.0,0.0,0.0,0.0,0.0,0.0,0.0,0.0,0.0,0.0,0.0,0.0,0.0,0.0,0.0,0.0,0.0,0.0,0.0,0.0,0.0,0.0,0.0,0.0,0.0,0.0,0.0,0.0,0.0,0.0,0.0,0.0,0.0,0.0,0.0,0.0,0.0,0.0,0.0,0.0,0.0,0.0,0.0,0.0,0.0,0.0,0.0,0.0,0.0,0.0,0.0,0.0,0.0,0.0,0.0,0.0,0.0,0.0,0.0,0.0,0.0,0.0,0.0,0.0,0.0,0.0,0.0,0.0,0.0,0.0,0.0,0.0,0.0,0.0,0.0,0.0,0.0,0.0,0.0,0.0,0.0,0.0,0.0,0.0,0.0,0.0,0.0,0.0,0.0,0.0,0.0,0.0,0.0,0.0,0.0,0.0,0.0,0.0,2.6725,0.0,2.6288,2.5748,2.4644,2.3892,0.0,0.0,0.0,0.0,0.0,0.0,0.0,0.0,0.0,0.0,0.0,0.0,0.0,0.0,0.0,0.0,0.0,0.0,0.0,0.0,0.0,0.0,0.0,0.0,0.0,0.0,0.0,0.0,0.0,0.0,0.0,0.0,0.0,0.0,0.0,0.0,0.0,0.0,0.0,0.0,0.0,0.0,0.0,0.0,0.0,0.0,0.0,0.0,0.0,0.0,0.0,0.0,0.0,0.0,0.0,0.0,0.0,0.0,0.0,0.0,0.0,0.0,0.0,0.0,0.0,0.0,0.0,0.0,0.0,0.0,0.0,0.0,0.0,0.0,0.0,0.0,0.0,0.0,0.0,0.0,0.0,0.0,0.0,0.0,0.0,0.0,0.0,0.0,0.0,0.0,0.0,0.0,0.0,0.0,0.0,0.0,0.0,0.0,0.0,0.0,0.0,0.0,0.0,0.0,0.0,0.0,0.0,0.0,2.6918,2.6395,2.5608,2.5198,2.4969,2.3852,2.3158,0.0,0.0,0.0,0.0,0.0,0.0,0.0,0.0,0.0,0.0,0.0,0.0,0.0,0.0,0.0,0.0,0.0,0.0,0.0,0.0,0.0,0.0,0.0,0.0,0.0,0.0,0.0,0.0,0.0,0.0,0.0,0.0,0.0,0.0,0.0,0.0,0.0,0.0,0.0,0.0,0.0,0.0,0.0,0.0,0.0,0.0,0.0,0.0,0.0,0.0,0.0,0.0,0.0,0.0,0.0,0.0,0.0,0.0,0.0,0.0,0.0,0.0,0.0,0.0,0.0,0.0,0.0,0.0,0.0,0.0,0.0,0.0,0.0,0.0,0.0,0.0,0.0,0.0,0.0,0.0,0.0,0.0,0.0,0.0,0.0,0.0,0.0,0.0,0.0,0.0,0.0,0.0,0.0,0.0,0.0,0.0,0.0,0.0,0.0,0.0,0.0,0.0,0.0,0.0,0.0,0.0,0.0,0.0,0.0,2.6061,2.6013,2.5703,2.5062,2.427,2.3746,0.0,0.0,0.0,0.0,0.0,0.0,0.0,0.0,0.0,0.0,0.0,0.0,0.0,0.0,0.0,0.0,0.0,0.0,0.0,0.0,0.0,0.0,0.0,0.0,0.0,0.0,0.0,0.0,0.0,0.0,0.0,0.0,0.0,0.0,0.0,0.0,0.0,0.0,0.0,0.0,0.0,0.0,0.0,0.0,0.0,0.0,0.0,0.0,0.0,0.0,0.0,0.0,0.0,0.0,0.0,0.0,0.0,0.0,0.0,0.0,0.0,0.0,0.0,0.0,0.0,0.0,0.0,0.0,0.0,0.0,0.0,0.0,0.0,0.0,0.0,0.0,0.0,0.0,0.0,0.0,0.0,0.0,0.0,0.0,0.0,0.0,0.0,0.0,0.0,0.0,0.0,0.0,0.0,0.0,0.0,0.0,0.0,0.0,0.0,0.0,0.0,0.0,0.0,0.0,0.0,0.0,0.0,0.0,0.0,2.579,2.5434,2.5163,2.4997,2.3954,2.3409,2.3401,0.0,0.0,0.0,0.0,0.0,0.0,0.0,0.0,0.0,0.0,0.0,0.0,0.0,0.0,0.0,0.0,0.0,0.0,0.0,0.0,0.0,0.0,0.0,0.0,0.0,0.0,0.0,0.0,0.0,0.0,0.0,0.0,0.0,0.0,0.0,0.0,0.0,0.0,0.0,0.0,0.0,0.0,0.0,0.0,0.0,0.0,0.0,0.0,0.0,0.0,0.0,0.0,0.0,0.0,0.0,0.0,0.0,0.0,0.0,0.0,0.0,0.0,0.0,0.0,0.0,0.0,0.0,0.0,0.0,0.0,0.0,0.0,0.0,0.0,0.0,0.0,0.0,0.0,0.0,0.0,0.0,0.0,0.0,0.0,0.0,0.0,0.0,0.0,0.0,0.0,0.0,0.0,0.0,0.0,0.0,0.0,0.0,0.0,0.0,0.0,0.0,0.0,0.0,0.0,0.0,0.0,0.0,0.0,2.5632,2.4174,2.3915,2.4779,2.3138,2.2421,0.0,0.0,0.0,0.0,0.0,0.0,0.0,0.0,0.0,0.0,0.0,0.0,0.0,0.0,0.0,0.0,0.0,0.0,0.0,0.0,0.0,0.0,0.0,0.0,0.0,0.0,0.0,0.0,0.0,0.0,0.0,0.0,0.0,0.0,0.0,0.0,0.0,0.0,0.0,0.0,0.0,0.0,0.0,0.0,0.0,0.0,0.0,0.0,0.0,0.0,0.0,0.0,0.0,0.0,0.0,0.0,0.0,0.0,0.0,0.0,0.0,0.0,0.0,0.0,0.0,0.0,0.0,0.0,0.0,0.0,0.0,0.0,0.0,0.0,0.0,0.0,0.0,0.0,0.0,0.0,0.0,0.0,0.0,0.0,0.0,0.0,0.0,0.0,0.0,0.0,0.0,0.0,0.0,0.0,0.0,0.0,0.0,0.0,0.0,0.0,0.0,0.0,0.0,0.0,0.0,0.0,0.0,0.0,0.0,2.5605,2.4507,2.426,2.4964,2.3879,2.3303,0.0,0.0,0.0,0.0,0.0,0.0,0.0,0.0,0.0,0.0,0.0,0.0,0.0,0.0,0.0,0.0,0.0,0.0,0.0,0.0,0.0,0.0,0.0,0.0,0.0,0.0,0.0,0.0,0.0,0.0,0.0,0.0,0.0,0.0,0.0,0.0,0.0,0.0,0.0,0.0,0.0,0.0,0.0,0.0,0.0,0.0,0.0,0.0,0.0,0.0,0.0,0.0,0.0,0.0,0.0,0.0,0.0,0.0,0.0,0.0,0.0,0.0,0.0,0.0,0.0,0.0,0.0,0.0,0.0,0.0,0.0,0.0,0.0,0.0,0.0,0.0,0.0,0.0,0.0,0.0,0.0,0.0,0.0,0.0,0.0,0.0,0.0,0.0,0.0,0.0,0.0,0.0,0.0,0.0,0.0,0.0,0.0,0.0,0.0,0.0,0.0,0.0,0.0,0.0,0.0,0.0,0.0,0.0,2.6474,2.5511,2.46,2.4281,2.4669,2.3793,2.342,0.0,0.0,0.0,0.0,0.0,0.0,0.0,0.0,0.0,0.0,0.0,0.0,0.0,0.0,0.0,0.0,0.0,0.0,0.0,0.0,0.0,0.0,0.0,0.0,0.0,0.0,0.0,0.0,0.0,0.0,0.0,0.0,0.0,0.0,0.0,0.0,0.0,0.0,0.0,0.0,0.0,0.0,0.0,0.0,0.0,0.0,0.0,0.0,0.0,0.0,0.0,0.0,0.0,0.0,0.0,0.0,0.0,0.0,0.0,0.0,0.0,0.0,0.0,0.0,0.0,0.0,0.0,0.0,0.0,0.0,0.0,0.0,0.0,0.0,0.0,0.0,0.0,0.0,0.0,0.0,0.0,0.0,0.0,0.0,0.0,0.0,0.0,0.0,0.0,0.0,0.0,0.0,0.0,0.0,0.0,0.0,0.0,0.0,0.0,0.0,0.0,0.0,0.0,0.0,0.0,0.0,0.0,0.0,2.654,2.5431,2.4623,2.4264,2.4253,2.3315,2.3074,0.0,0.0,0.0,0.0,0.0,0.0,0.0,0.0,0.0,0.0,0.0,0.0,0.0,0.0,0.0,0.0,0.0,0.0,0.0,0.0,0.0,0.0,0.0,0.0,0.0,0.0,0.0,0.0,0.0,0.0,0.0,0.0,0.0,0.0,0.0,0.0,0.0,0.0,0.0,0.0,0.0,0.0,0.0,0.0,0.0,0.0,0.0,0.0,0.0,0.0,0.0,0.0,0.0,0.0,0.0,0.0,0.0,0.0,0.0,0.0,0.0,0.0,0.0,0.0,0.0,0.0,0.0,0.0,0.0,0.0,0.0,0.0,0.0,0.0,0.0,0.0,0.0,0.0,0.0,0.0,0.0,0.0,0.0,0.0,0.0,0.0,0.0,0.0,0.0,0.0,0.0,0.0,0.0,0.0,0.0,0.0,0.0,0.0,0.0,0.0,0.0,0.0,0.0,0.0,0.0,0.0,0.0,0.0,2.7128,2.5961,2.5338,2.5111,2.5264,2.3661,2.3004,0.0,0.0,0.0,0.0,0.0,0.0,0.0,0.0,0.0,0.0,0.0,0.0,0.0,0.0,0.0,0.0,0.0,0.0,0.0,0.0,0.0,0.0,0.0,0.0,0.0,0.0,0.0,0.0,0.0,0.0,0.0,0.0,0.0,0.0,0.0,0.0,0.0,0.0,0.0,0.0,0.0,0.0,0.0,0.0,0.0,0.0,0.0,0.0,2.9944,0.0,0.0,0.0,0.0,0.0,0.0,0.0,0.0,0.0,0.0,0.0,0.0,0.0,0.0,0.0,0.0,0.0,0.0,0.0,0.0,0.0,0.0,0.0,0.0,0.0,0.0,0.0,0.0,0.0,0.0,0.0,0.0,0.0,0.0,0.0,0.0,0.0,0.0,0.0,0.0,0.0,0.0,0.0,0.0,0.0,0.0,0.0,0.0,0.0,0.0,0.0,0.0,0.0,0.0,0.0,0.0,0.0,0.0,0.0,2.7291,2.6118,2.5314,2.4933,2.5016,2.4069,2.3712,0.0,0.0,0.0,0.0,0.0,0.0,0.0,0.0,0.0,0.0,0.0,0.0,0.0,0.0,0.0,0.0,0.0,0.0,0.0,0.0,0.0,0.0,0.0,0.0,0.0,0.0,0.0,0.0,0.0,0.0,0.0,0.0,0.0,0.0,0.0,0.0,0.0,0.0,0.0,0.0,0.0,0.0,0.0,0.0,0.0,0.0,0.0,0.0,0.0,0.0,0.0,0.0,0.0,0.0,0.0,0.0,0.0,0.0,0.0,0.0,0.0,0.0,0.0,0.0,0.0,0.0,0.0,0.0,0.0,0.0,0.0,0.0,0.0,0.0,0.0,0.0,0.0,0.0,0.0,0.0,0.0,0.0,0.0,0.0,0.0,0.0,0.0,0.0,0.0,0.0,0.0,0.0,0.0,0.0,0.0,0.0,0.0,0.0,0.0,0.0,0.0,0.0,0.0,0.0,0.0,0.0,0.0,2.8264,2.7425,2.6421,2.5313,2.4743,2.4814,2.4767,2.4817,2.4929,0.0,0.0,0.0,0.0,0.0,0.0,0.0,0.0,0.0,0.0,0.0,0.0,0.0,0.0,0.0,0.0,0.0,0.0,0.0,0.0,0.0,0.0,0.0,0.0,0.0,0.0,0.0,0.0,0.0,0.0,0.0,0.0,0.0,0.0,0.0,0.0,0.0,0.0,3.1657,3.2201,0.0,0.0,0.0,0.0,0.0,0.0,0.0,0.0,3.2553,0.0,0.0,0.0,0.0,0.0,0.0,0.0,0.0,0.0,0.0,0.0,0.0,0.0,0.0,0.0,0.0,0.0,0.0,0.0,0.0,0.0,0.0,0.0,0.0,0.0,0.0,0.0,0.0,0.0,0.0,0.0,0.0,0.0,0.0,0.0,0.0,0.0,0.0,0.0,0.0,0.0,0.0,0.0,0.0,0.0,0.0,0.0,0.0,0.0,0.0,0.0,0.0,0.0,0.0,0.0,0.0,3.0098,2.8649,2.785,2.7752,2.6721,2.6302,2.6555,2.6405,2.6047,2.5505,0.0,0.0,0.0,0.0,0.0,0.0,0.0,0.0,0.0,0.0,0.0,0.0,0.0,0.0,0.0,0.0,0.0,0.0,0.0,0.0,0.0,0.0,0.0,0.0,0.0,0.0,0.0,0.0,0.0,0.0,0.0,0.0,0.0,0.0,0.0,0.0,0.0,0.0,0.0,3.2186,3.2872,0.0,0.0,0.0,0.0,0.0,0.0,0.0,0.0,3.2803,0.0,0.0,0.0,0.0,0.0,0.0,0.0,0.0,0.0,0.0,0.0,0.0,0.0,0.0,0.0,0.0,0.0,0.0,0.0,0.0,0.0,0.0,0.0,0.0,0.0,0.0,0.0,0.0,0.0,0.0,0.0,0.0,0.0,0.0,0.0,0.0,0.0,0.0,0.0,0.0,0.0,0.0,0.0,0.0,0.0,0.0,0.0,0.0,0.0,0.0,0.0,0.0,0.0,0.0,0.0,3.0153,2.906,2.8395,2.8241,2.6899,2.6405,2.6807,2.6564,2.608,0.0,0.0,0.0,0.0,0.0,0.0,0.0,0.0,0.0,0.0,0.0,0.0,0.0,0.0,0.0,0.0,0.0,0.0,0.0,0.0,0.0,0.0,0.0,0.0,0.0,0.0,0.0,0.0,0.0,0.0,0.0,0.0,0.0,0.0,0.0,0.0,0.0,0.0,0.0,0.0,3.2681,3.3354,3.4283,0.0,0.0,0.0,0.0,0.0,0.0,3.3703,3.3601,0.0,0.0,0.0,0.0,0.0,0.0,0.0,0.0,0.0,0.0,0.0,0.0,0.0,0.0,0.0,0.0,0.0,0.0,0.0,0.0,0.0,0.0,0.0,0.0,0.0,0.0,0.0,0.0,0.0,0.0,0.0,0.0,0.0,0.0,0.0,0.0,0.0,0.0,0.0,0.0,0.0,0.0,0.0,0.0,0.0,0.0,0.0,0.0,0.0,0.0,0.0,0.0,0.0,0.0,0.0,3.0061,2.9369,2.8808,2.8409,2.6922,2.6358,2.6782,2.6517,2.6022,0.0,0.0,0.0,0.0,0.0,0.0,0.0,0.0,0.0,0.0,0.0,0.0,0.0,0.0,0.0,0.0,0.0,0.0,0.0,0.0,0.0,0.0,0.0,0.0,0.0,0.0,0.0,0.0,0.0,0.0,0.0,0.0,0.0,0.0,0.0,0.0,0.0,0.0,0.0,0.0,0.0,3.3558,3.4298,3.438,0.0,0.0,0.0,0.0,3.438,3.438,0.0,0.0,0.0,0.0,0.0,0.0,0.0,0.0,0.0,0.0,0.0,0.0,0.0,0.0,0.0,0.0,0.0,0.0,0.0,0.0,0.0,0.0,0.0,0.0,0.0,0.0,0.0,0.0,0.0,0.0,0.0,0.0,0.0,0.0,0.0,0.0,0.0,0.0,0.0,0.0,0.0,0.0,0.0,0.0,0.0,0.0,0.0,0.0,0.0,0.0,0.0,0.0,0.0,0.0,0.0,0.0,3.0098,2.9369,2.8892,2.8602,2.7471,2.6977,2.7235,2.7201,2.6692,0.0,0.0,0.0,0.0,0.0,0.0,0.0,0.0,0.0,0.0,0.0,0.0,0.0,0.0,0.0,0.0,0.0,0.0,0.0,0.0,0.0,0.0,0.0,0.0,0.0,0.0,0.0,0.0,0.0,0.0,0.0,0.0,0.0,0.0,0.0,0.0,0.0,0.0,0.0,0.0,0.0,3.305,3.4254,3.438,3.438,0.0,0.0,3.438,3.438,3.438,0.0,0.0,0.0,0.0,0.0,0.0,0.0,0.0,0.0,0.0,0.0,0.0,0.0,0.0,0.0,0.0,0.0,0.0,0.0,0.0,0.0,0.0,0.0,0.0,0.0,0.0,0.0,0.0,0.0,0.0,0.0,0.0,0.0,0.0,0.0,0.0,0.0,0.0,0.0,0.0,0.0,0.0,0.0,0.0,0.0,0.0,0.0,0.0,0.0,0.0,0.0,0.0,0.0,0.0,0.0,3.1069,3.0591,2.9656,2.9084,2.8831,2.776,2.7146,2.7146,2.7335,2.6856,0.0,0.0,0.0,0.0,0.0,0.0,0.0,0.0,0.0,0.0,0.0,0.0,0.0,0.0,0.0,0.0,0.0,0.0,0.0,0.0,0.0,0.0,0.0,0.0,0.0,0.0,0.0,0.0,0.0,0.0,0.0,0.0,0.0,0.0,0.0,0.0,0.0,0.0,0.0,0.0,0.0,0.0,3.4341,3.438,0.0,0.0,0.0,3.438,3.438,0.0,0.0,0.0,0.0,0.0,0.0,0.0,0.0,0.0,0.0,0.0,0.0,0.0,0.0,0.0,0.0,0.0,0.0,0.0,0.0,0.0,0.0,0.0,0.0,0.0,0.0,0.0,0.0,0.0,0.0,0.0,0.0,0.0,0.0,0.0,0.0,0.0,0.0,0.0,0.0,0.0,0.0,0.0,0.0,0.0,0.0,0.0,0.0,0.0,0.0,0.0,0.0,0.0,0.0,0.0,0.0,0.0,3.102,3.0082,2.9403,2.9045,2.7954,2.7268,2.7146,2.7239,0.0,0.0,0.0,0.0,0.0,0.0,0.0,0.0,0.0,0.0,0.0,0.0,0.0,0.0,0.0,0.0,0.0,0.0,0.0,0.0,0.0,0.0,0.0,0.0,0.0,0.0,0.0,2.9837,0.0,0.0,0.0,0.0,0.0,0.0,0.0,0.0,0.0,0.0,0.0,0.0,0.0,0.0,3.4445,3.4452,3.4414,3.4414,0.0,0.0,3.4356,3.4249,3.3808,3.3688,0.0,0.0,0.0,0.0,0.0,0.0,0.0,0.0,0.0,0.0,0.0,0.0,0.0,0.0,0.0,0.0,0.0,0.0,0.0,0.0,0.0,0.0,0.0,0.0,0.0,0.0,0.0,0.0,0.0,0.0,0.0,0.0,0.0,0.0,0.0,0.0,0.0,0.0,0.0,0.0,0.0,0.0,0.0,0.0,0.0,0.0,0.0,0.0,0.0,0.0,0.0,0.0,0.0,0.0,3.2647,3.1211,3.0635,2.9992,2.9271,2.8103,2.749,2.7456,2.7013,2.6516,0.0,0.0,0.0,0.0,0.0,0.0,0.0,0.0,0.0,0.0,0.0,0.0,0.0,0.0,0.0,0.0,0.0,0.0,0.0,0.0,0.0,0.0,0.0,0.0,0.0,0.0,0.0,0.0,0.0,0.0,0.0,0.0,0.0,0.0,0.0,0.0,0.0,0.0,0.0,0.0,0.0,3.3981,3.461,3.4515,3.4501,0.0,3.4601,3.4244,3.3817,3.3616,3.3688,3.4298,0.0,0.0,0.0,0.0,0.0,0.0,0.0,0.0,0.0,0.0,0.0,0.0,0.0,0.0,0.0,0.0,0.0,0.0,0.0,0.0,0.0,0.0,0.0,0.0,0.0,0.0,0.0,0.0,0.0,0.0,0.0,0.0,0.0,0.0,0.0,0.0,0.0,0.0,0.0,0.0,0.0,0.0,0.0,0.0,0.0,0.0,0.0,0.0,0.0,0.0,0.0,0.0,0.0,3.3716,3.3375,3.1852,3.1066,3.1131,2.9597,2.8744,2.873,2.8249,2.7629,0.0,0.0,0.0,0.0,0.0,0.0,0.0,0.0,0.0,0.0,0.0,0.0,0.0,0.0,0.0,0.0,0.0,0.0,0.0,0.0,0.0,0.0,0.0,0.0,0.0,0.0,0.0,0.0,3.1598,3.1871,3.2482,0.0,0.0,0.0,0.0,0.0,0.0,0.0,0.0,0.0,0.0,3.5078,3.4578,3.4448,0.0,0.0,3.4481,3.4327,3.418,3.3783,3.3688,3.4312,3.485,0.0,0.0,0.0,0.0,0.0,0.0,0.0,0.0,0.0,0.0,0.0,0.0,0.0,0.0,0.0,0.0,0.0,0.0,0.0,0.0,0.0,0.0,0.0,0.0,0.0,0.0,0.0,0.0,0.0,0.0,0.0,0.0,0.0,0.0,0.0,0.0,0.0,0.0,0.0,0.0,0.0,0.0,0.0,0.0,0.0,0.0,0.0,0.0,0.0,0.0,0.0,0.0,3.4815,3.4866,3.3001,3.2047,3.2086,3.0407,2.9518,2.949,2.8975,2.8294,0.0,0.0,0.0,0.0,0.0,0.0,0.0,0.0,0.0,0.0,0.0,0.0,0.0,0.0,0.0,0.0,0.0,0.0,0.0,0.0,0.0,0.0,0.0,0.0,0.0,0.0,0.0,0.0,3.2635,3.3274,3.4239,0.0,0.0,0.0,0.0,0.0,0.0,0.0,0.0,0.0,0.0,3.6168,3.5221,3.5028,3.5068,3.5258,3.5219,3.5078,3.4956,3.4528,3.4437,3.4981,0.0,0.0,0.0,0.0,0.0,0.0,0.0,0.0,0.0,0.0,0.0,0.0,0.0,0.0,0.0,0.0,0.0,0.0,0.0,0.0,0.0,0.0,0.0,0.0,0.0,0.0,0.0,3.2428,0.0,0.0,3.3488,0.0,0.0,0.0,0.0,0.0,0.0,0.0,0.0,0.0,0.0,0.0,0.0,0.0,0.0,0.0,0.0,0.0,0.0,0.0,0.0,0.0,0.0,3.5946,3.5119,3.4018,3.2832,3.1528,3.0178,2.9535,2.9535,2.8822,2.819,2.7705,0.0,0.0,0.0,0.0,0.0,0.0,0.0,0.0,0.0,0.0,0.0,0.0,0.0,0.0,0.0,0.0,0.0,0.0,0.0,0.0,0.0,0.0,0.0,0.0,0.0,0.0,3.3572,3.4658,3.5831,0.0,0.0,0.0,0.0,0.0,0.0,0.0,0.0,0.0,3.8217,3.7717,3.7044,3.6697,3.6499,3.6559,3.7206,3.7035,3.667,3.62,3.6043,3.6094,0.0,0.0,0.0,0.0,0.0,0.0,0.0,0.0,0.0,0.0,0.0,0.0,0.0,0.0,0.0,0.0,0.0,0.0,0.0,0.0,0.0,0.0,0.0,0.0,0.0,0.0,0.0,3.4722,3.5215,0.0,0.0,0.0,0.0,0.0,0.0,0.0,0.0,0.0,0.0,0.0,3.7046,3.7086,0.0,0.0,0.0,0.0,0.0,0.0,0.0,0.0,0.0,0.0,0.0,0.0,3.6671,3.6747,3.5062,3.3925,3.3436,3.1731,3.0837,3.0837,3.0163,2.9433,2.8666,0.0,0.0,0.0,0.0,0.0,0.0,0.0,0.0,0.0,0.0,0.0,0.0,0.0,0.0,0.0,0.0,0.0,0.0,0.0,0.0,0.0,0.0,0.0,0.0,0.0,3.4202,0.0,0.0,0.0,0.0,0.0,0.0,0.0,0.0,0.0,0.0,0.0,3.9076,3.9029,3.8602,3.8075,3.7631,3.7412,3.7252,0.0,0.0,0.0,0.0,0.0,0.0,0.0,0.0,0.0,0.0,0.0,0.0,0.0,0.0,4.1549,3.9711,3.8711,3.7997,3.7543,0.0,0.0,0.0,0.0,0.0,0.0,0.0,0.0,0.0,0.0,0.0,0.0,0.0,0.0,3.6226,3.6462,3.6281,0.0,0.0,0.0,0.0,0.0,0.0,0.0,0.0,3.7834,3.7554,3.7536,3.7617,3.7845,0.0,3.823,3.8262,0.0,0.0,0.0,0.0,0.0,0.0,0.0,0.0,3.7597,3.7647,3.6052,3.4863,3.4144,3.2647,3.1735,3.1511,3.0753,3.0033,2.941,2.9231,2.9175,0.0,0.0,0.0,0.0,0.0,0.0,0.0,0.0,0.0,0.0,0.0,0.0,0.0,0.0,0.0,0.0,0.0,0.0,0.0,0.0,0.0,0.0,0.0,3.5838,0.0,0.0,0.0,0.0,0.0,0.0,0.0,0.0,0.0,4.0558,4.0515,4.0499,4.0071,3.9803,3.9484,3.8932,0.0,0.0,0.0,0.0,0.0,0.0,0.0,3.8458,3.858,3.9348,4.0178,4.0891,4.2331,4.3421,4.3394,0.0,0.0,4.1065,4.0108,3.9562,3.9509,3.8952,3.8493,3.8493,3.8266,3.8227,0.0,0.0,0.0,0.0,0.0,0.0,0.0,0.0,3.6841,3.6849,0.0,3.715,0.0,0.0,0.0,0.0,0.0,3.8637,0.0,0.0,3.9075,3.9263,3.9919,4.0043,4.0143,4.0115,3.9987,3.9947,3.9939,3.9522,0.0,0.0,0.0,0.0,0.0,0.0,3.8732,3.7741,3.691,3.5519,3.3619,3.2871,3.2153,3.1511,3.0611,3.0101,2.9914,2.923,2.8796,2.881,2.952,0.0,0.0,0.0,0.0,0.0,0.0,0.0,0.0,0.0,0.0,0.0,0.0,0.0,0.0,0.0,0.0,0.0,0.0,0.0,0.0,3.6397,0.0,0.0,0.0,0.0,0.0,0.0,0.0,0.0,0.0,0.0,4.346,4.222,4.1367,4.1414,0.0,0.0,0.0,0.0,4.0539,4.0492,4.0374,4.022,4.0185,4.0185,4.0309,4.0641,0.0,0.0,4.3559,4.4141,4.4233,4.38,4.3444,4.2877,4.2028,4.1754,4.1625,4.1428,4.0863,4.0516,4.0462,3.9904,3.9499,3.9909,0.0,0.0,0.0,0.0,4.0476,4.0754,4.1407,4.0791,4.0411,4.0141,3.9832,0.0,0.0,0.0,0.0,0.0,0.0,4.0667,4.1422,4.0816,4.0687,4.0986,4.1014,4.1026,4.101,4.0998,4.1234,4.1729,4.163,4.0825,3.9427,0.0,0.0,0.0,0.0,3.9087,3.8444,3.7192,3.5776,3.4249,3.311,3.2139,3.1366,3.1099,3.0894,3.0763,3.0397,3.0353,3.067,3.0374,0.0,0.0,0.0,0.0,0.0,0.0,0.0,0.0,0.0,0.0,0.0,0.0,0.0,0.0,0.0,0.0,0.0,0.0,0.0,3.5114,3.6398,3.77,0.0,0.0,0.0,0.0,0.0,0.0,0.0,0.0,0.0,4.4724,4.3734,4.3167,0.0,0.0,4.231,4.2027,4.1917,4.1677,4.1142,4.114,0.0,4.0681,4.0746,4.0882,4.0969,4.1663,4.2621,4.388,4.4394,4.458,4.4397,4.4317,4.3994,4.3199,4.2253,4.1624,4.1492,4.1327,4.1243,4.1194,4.1026,4.0891,4.2559,4.2185,4.1342,4.1549,4.2382,4.2118,4.2301,4.2759,4.2367,4.194,4.1544,4.1131,4.1056,4.1216,4.1422,0.0,0.0,0.0,4.1371,4.1944,4.1481,4.1324,4.1397,4.1397,4.1397,4.1397,4.1397,4.1612,4.2059,4.2357,4.1811,4.0512,0.0,0.0,4.1485,4.0575,3.9764,3.9124,3.7896,3.6579,3.5293,3.4057,3.3087,3.2361,3.2158,3.2029,3.1928,3.1737,3.1796,3.2072,3.168,3.1615,0.0,0.0,0.0,0.0,0.0,0.0,0.0,0.0,0.0,0.0,0.0,3.6148,3.6246,0.0,0.0,0.0,3.5002,3.5591,3.7012,3.7934,0.0,0.0,0.0,0.0,0.0,0.0,0.0,4.5361,4.5496,4.5584,4.5604,4.4934,4.4312,4.4083,4.3516,4.3037,4.2803,0.0,4.246,4.19,4.1867,4.1818,4.1489,4.1538,4.1686,4.1866,4.2445,4.3075,4.3809,4.4153,4.4257,4.4274,4.4274,4.4125,4.3681,4.2912,4.2332,4.2317,4.211,4.1949,4.1917,4.1706,4.1492,4.4558,4.4356,4.2446,4.1917,4.2343,4.2641,4.2367,4.1765,4.2348,4.2096,4.1305,4.1448,4.1828,4.2397,4.2367,0.0,4.251,4.1745,4.1465,4.1534,4.1562,4.1562,4.1591,4.1579,4.1591,4.1579,4.1591,4.1591,4.1657,4.2286,4.2501,4.2404,4.2892,4.299,4.2615,4.1531,4.0576,3.975,3.8853,3.7719,3.6416,3.5483,3.4667,3.3876,3.3468,3.3196,3.3183,3.3038,3.3055,3.313,3.3259,3.3041,3.2517,0.0,0.0,0.0,0.0,0.0,0.0,0.0,0.0,0.0,0.0,0.0,0.0,0.0,0.0,3.6835,3.6677,0.0,3.9408,4.0372,0.0,0.0,0.0,4.4299,4.4347,4.4973,4.5629,4.6269,0.0,0.0,4.6141,4.5684,4.492,4.36,4.3402,4.3342,4.3174,4.3143,4.3035,4.2648,4.2507,4.2445,4.2333,4.2333,4.2492,4.2881,4.3355,4.3509,4.3602,4.3648,4.3615,4.3648,4.3615,4.3615,4.3615,4.3522,4.3615,4.3539,4.3082,4.2679,4.2648,4.2205,4.1819,4.3328,4.3047,4.2302,4.3104,4.4847,4.4389,4.4264,4.4304,4.3694,4.2874,4.1991,4.2223,4.2671,4.3274,4.3018,4.2942,4.2972,4.3016,4.2921,4.2709,4.298,4.3069,4.3069,4.3085,4.3069,4.3069,4.3052,4.3085,4.3085,4.3251,4.3274,4.3171,4.3276,4.3204,4.2941,4.1656,4.0732,4.015,3.8837,3.7599,3.6432,3.6169,3.5307,3.3796,3.3653,3.3411,3.3083,3.3025,3.3414,3.4253,3.4342,3.4423,3.4654,3.4222,0.0,0.0,0.0,0.0,0.0,0.0,0.0,0.0,0.0,3.8529,3.9945,0.0,3.8762,0.0,3.9108,3.9202,4.023,4.115,0.0,0.0,4.4407,4.5245,4.5738,4.5872,4.6138,4.6687,4.6217,4.5807,4.5667,4.5088,4.4408,4.3671,4.3568,4.3539,4.3509,4.3462,4.3372,4.3035,4.2943,4.2867,4.2633,4.257,4.2695,4.3052,4.3157,4.3295,4.3568,4.3615,4.3615,4.3615,4.3615,4.3615,4.3615,4.3615,4.3615,4.3598,4.3462,4.3355,4.3372,4.3204,4.3066,4.2772,4.2585,4.2412,4.3118,4.4338,4.3773,4.376,4.4023,4.3458,4.2911,4.2397,4.2539,4.2803,4.3143,4.2974,4.2865,4.2912,4.3082,4.3052,4.2912,4.3235,4.3372,4.3402,4.3539,4.3615,4.3615,4.3615,4.3522,4.3372,4.3372,4.3248,4.3035,4.3052,4.2959,4.2772,4.1904,4.116,4.0586,3.9122,3.803,3.748,3.7205,3.6483,3.5268,3.5012,3.4797,3.461,3.4523,3.4812,3.5417,3.5759,3.5922,3.584,3.5972,3.6243,0.0,0.0,0.0,0.0,0.0,0.0,0.0,0.0,0.0,0.0,0.0,4.083,4.1889,4.1051,4.0972,4.2315,4.2588,4.3257,4.4656,4.5218,4.5686,4.6032,4.6008,4.6187,4.6791,4.6228,4.5848,4.5877,4.5393,4.4808,4.4263,4.4191,4.4018,4.3671,4.3615,4.3522,4.3372,4.3325,4.3265,4.3066,4.3052,4.3096,4.3265,4.3325,4.3386,4.3568,4.3615,4.3615,4.3615,4.3615,4.3615,4.3615,4.3615,4.3615,4.3615,4.3615,4.3615,4.3582,4.3363,4.3102,4.2585,4.2522,4.2491,4.2459,4.2428,4.2174,4.2238,4.2523,4.2539,4.2522,4.2522,4.2507,4.2522,4.2601,4.2554,4.2554,4.2617,4.2648,4.271,4.2756,4.3096,4.3279,4.3339,4.3608,4.373,4.3687,4.3717,4.3492,4.3174,4.3174,4.3021,4.271,4.2664,4.2586,4.2412,4.214,4.1602,4.0778,3.9422,3.877,3.8881,3.8484,3.7982,3.7351,3.6934,3.6745,3.6845,3.6732,3.6708,3.6803,3.7401,3.7464,3.6866,3.7812,3.8381,0.0,3.8381,0.0,0.0,0.0,0.0,0.0,0.0,0.0,0.0,4.2616,4.3295,4.3766,4.2789,4.2902,4.4811,4.4446,4.4624,4.5905,4.608,4.608,4.6064,4.6064,4.625,4.6801,4.6486,4.6219,4.6243,4.5906,4.5405,4.4865,4.4746,4.4513,4.3889,4.373,4.37,4.3628,4.3615,4.3568,4.3539,4.3568,4.3568,4.3615,4.3568,4.3628,4.37,4.37,4.37,4.37,4.3717,4.3687,4.3628,4.3658,4.37,4.3717,4.3647,4.3518,4.3396,4.2969,4.2489,4.2444,4.2174,4.1916,4.1785,4.1769,4.172,4.1883,4.2222,4.2206,4.2206,4.2158,4.19,4.2093,4.2555,4.2333,4.2333,4.2617,4.2881,4.3202,4.3604,4.3914,4.4248,4.4563,4.4635,4.4502,4.4196,4.4167,4.3935,4.3509,4.3509,4.3402,4.3251,4.2976,4.2728,4.2571,0.0,0.0,0.0,3.9552,3.9422,3.932,3.9872,3.9647,3.8603,3.8483,0.0,3.8173,3.8112,3.8365,3.8886,3.9044,0.0,0.0,0.0,0.0,0.0,0.0,0.0,0.0,0.0,0.0,0.0,4.3557,4.3745,4.3361,4.4496,4.5017,4.4575,4.4812,4.5393,4.6309,4.6297,4.657,4.7389,4.7489,4.7505,4.7489,4.7505,4.7457,4.7201,4.6597,4.6079,4.5824,4.5179,4.4744,4.4709,4.4586,4.453,4.4378,4.4253,4.4023,4.3687,4.3658,4.3628,4.3615,4.3628,4.3687,4.3615,4.3615,4.3759,4.4109,4.4167,4.4167,4.415,4.4167,4.4035,4.3717,4.3923,4.4167,4.4167,4.368,4.3176,4.2775,4.2618,4.2353,4.251,0.0,4.219,4.2269,0.0,4.2553,4.2647,4.274,4.211,4.1851,4.1883,4.2029,4.2285,4.2601,4.2725,4.2911,4.3047,4.3216,4.341,4.3676,4.4001,4.4259,4.4451,4.4625,4.4597,4.4406,4.4406,4.4207,4.3802,4.3802,4.3684,4.3443,4.3262,4.3141,4.3033,4.2229,4.1318,4.0315,3.9594,3.9371,3.9679,3.9636,3.9532,3.9365,3.9257,0.0,0.0,0.0,0.0,0.0,0.0,0.0,0.0,0.0,0.0,3.9518,3.951,3.9644,3.995,4.0607,4.1618,4.3012,4.4374,4.5342,4.5744,4.6439,4.6682,4.6326,4.6633,4.6981,4.7304,4.7355,4.7489,4.7852,4.7901,4.7901,4.7852,4.7554,4.7398,4.7418,4.6535,4.5903,4.6157,4.5521,4.5302,4.5613,4.539,4.5206,4.5288,4.4806,4.4321,4.4162,4.4076,4.4064,4.4105,4.4133,4.415,4.4133,4.4191,4.4316,4.4541,4.4614,4.4597,4.4614,4.4569,4.4502,4.4316,4.4429,4.4614,4.458,4.4309,4.383,4.3216,4.2278,4.1491,4.3056,4.2967,4.2982,4.3162,4.3495,4.3495,4.3495,4.3423,0.0,0.0,0.0,4.2506,4.2756,4.2787,4.3273,4.3542,4.3571,4.3617,4.366,4.3806,4.4071,4.4259,4.4344,4.4614,4.4697,4.4614,4.4614,4.4429,4.4088,4.4088,4.3956,4.3689,4.3601,4.3542,4.3433,4.2381,4.1786,4.1601,3.9966,3.9385,4.0082,3.9452,3.9422,4.0134,3.9945,3.9945,4.0102,3.9945,3.9929,4.0039,4.0039,4.0388,4.1055,4.1007,4.1183,4.1725,4.1588,4.1536,4.165,4.1642,4.2003,4.2982,4.5023,4.6662,4.7636,4.7802,4.7901,4.7901,4.7901,4.795,4.808,4.8063,4.8144,4.824,4.8272,4.8289,4.8222,4.7558,4.7354,4.7556,4.6576,4.5959,4.6589,4.6168,4.6091,4.6821,4.656,4.6204,4.6305,4.5352,4.4502,4.4541,4.4457,4.4502,4.4625,4.4652,4.4708,4.4652,4.4773,4.491,4.5018,4.5018,4.5018,4.5018,4.5018,4.4964,4.4927,4.5073,4.5086,4.4881,4.4932,4.4771,4.3793,4.2209,4.1176,4.4683,4.4398,4.4398,4.4048,4.3495,4.3495,4.3495,4.3482,4.3287,4.3243,4.3243,4.3333,4.3363,4.3393,4.3436,4.3647,4.3943,4.3943,4.4316,4.4944,4.4998,4.523,4.5546,4.5615,4.5441,4.5123,4.5096,4.4862,4.4474,4.4446,4.4418,4.4316,4.4071,4.381,4.3495,4.3324,4.3215,4.3122,4.1398,4.0499,4.0515,4.1102,4.1388,4.1321,4.1305,4.1337,4.1337,4.1321,4.1581,4.2121,4.2153,4.245,4.3032,4.2502,4.2265,4.2331,4.1774,4.1699,4.2328,4.2365,4.3156,4.5081,4.7147,4.7959,4.6971,4.752,4.7901,4.7934,4.7967,4.8127,4.8666,4.8742,4.8941,4.9509,4.9666,4.9713,4.9555,4.8871,4.8232,4.7814,4.6993,4.646,4.6648,4.6554,4.6744,4.741,4.7472,4.7417,4.709,4.5766,4.4632,4.453,4.4502,4.4502,4.4642,4.4669,4.4831,4.4708,4.4906,4.5245,4.5623,4.5624,4.5641,4.5572,4.5624,4.5441,4.5147,4.5782,4.5848,4.5096,4.5217,4.5096,4.3877,4.2971,4.2517,4.5941,4.5781,4.5794,4.5786,4.5738,4.5365,4.4942,4.4541,4.4524,4.414,4.3571,4.3898,4.4042,4.4071,4.4384,4.4625,4.4752,4.4769,4.4961,4.53,4.53,4.5406,4.5563,4.5581,4.5502,4.53,4.53,4.5194,4.4988,4.5005,4.4988,4.4961,4.4807,4.4513,4.4054,4.4026,4.3852,4.3495,4.2327,4.1862,4.2176,4.2219,4.2366,4.2583,4.263,4.2647,4.2647,4.2647,4.2771,4.3078,4.2731,4.2848,4.3433,4.2875,4.2659,4.3011,4.343,4.3815,4.415,4.453,4.5303,4.6646,4.7636,4.8306,4.848,4.8839,4.9043,4.9043,4.9043,4.8978,4.8873,4.8851,4.8831,4.8758,4.9097,4.9355,4.9286,4.8683,4.8224,4.8155,4.7276,4.6769,4.7165,4.7217,4.7493,4.812,4.8293,4.8172,4.7775,4.691,4.6075,4.5833,4.5675,4.547,4.5206,4.5608,4.5878,4.5956,4.6108,4.6508,4.6968,4.689,4.6767,4.7047,4.6855,4.6699,4.669,4.7265,4.7091,4.6401,4.5877,4.5563,4.4998,4.4717,4.4058,4.7234,4.7189,4.7172,4.7381,4.762,4.6896,4.6268,4.5673,4.5483,4.4862,4.4083,4.4485,4.4714,4.4752,4.5194,4.5414,4.5414,4.5414,4.5414,4.5414,4.5414,4.5414,4.5414,4.5414,4.5414,4.5414,4.5414,4.5414,4.5414,4.5414,4.5414,4.5414,4.5414,4.5167,4.4714,4.4697,4.4457,4.3934,4.3427,4.3268,4.3462,4.2978,4.2962,4.3446,4.3466,4.3495,4.3495,4.3495,4.3571,4.3702,4.3215,4.3239,4.3872,4.3628,4.3662,4.4231,4.5358,4.6085,4.6085,4.6546,4.7096,4.7638,4.7844,4.8448,4.9562,5.008,5.0252,5.0235,5.0056,4.9654,4.8971,4.8781,4.8499,4.7844,4.8344,4.8827,4.8741,4.8275,4.812,4.8551,4.7665,4.7148,4.7724,4.7931,4.8241,4.8879,4.9051,4.881,4.8338,4.8086,4.7727,4.7351,4.7057,4.6746,4.6256,4.6752,4.7213,4.73,4.7447,4.7777,4.8136,4.7933,4.7854,4.8171,4.7986,4.782,4.8355,4.8653,4.8214,4.7206,4.6803,4.6645,4.6137,4.6024,4.5344,4.8677,4.861,4.8587,4.8236,4.7655,4.6958,4.6596,4.6389,4.5707,4.5327,4.5194,4.5291,4.5318,4.53,4.5388,4.5414,4.5414,4.5414,4.5414,4.5414,4.5414,4.5414,4.5414,4.5414,4.5414,4.5414,4.5414,4.5414,4.5414,4.5414,4.5414,4.5414,4.5414,4.5371,4.53,4.5318,4.5291,4.522,4.5152,4.4612,4.3555,4.3429,4.3446,4.3495,4.3512,4.3495,4.3604,4.3495,4.3794,4.4344,4.4367,4.4574,4.5209,4.5822,4.6227,4.6302,4.7045,4.7513,4.7485,4.7558,4.762,4.7724,4.8327,4.8741,4.9051,5.0188,5.0994,5.089,5.0373,4.9735,4.8896,4.881,4.8482,4.7827,4.8344,4.8792,4.8775,4.8741,4.8723,4.8758,4.812,4.7862,4.8534,4.8689,4.8999,4.9637,4.9752,4.9717,4.9545,4.9051,4.8717,4.8521,4.8173,4.7842,4.7725,4.7971,4.8146,4.8181,4.8312,4.8548,4.8696,4.8661,4.8503,4.8837,4.8556,4.8521,4.8766,4.8977,4.8802,4.7425,4.7267,4.7705,4.6635,4.6196,4.5533,4.9536,4.9482,4.9499,4.9051,4.8327,4.8027,4.7379,4.6596,4.6259,4.5845,4.5432,4.5414,4.5414,4.5414,4.5414,4.5414,4.5414,4.5414,4.5414,4.5414,4.5414,4.5414,4.5414,4.5414,4.5414,4.5414,4.5414,4.5414,4.5414,4.5414,4.5414,4.5414,4.5414,4.5414,4.5414,4.5414,4.5414,4.5414,4.5414,4.5123,4.4691,4.4608,4.4625,4.4676,4.5094,4.5331,4.5382,4.5739,4.6107,4.6332,4.5983,4.6059,4.6724,4.6655,4.6793,4.7207,4.7931,4.8579,4.9045,4.8603,4.8534,4.9028,4.8879,4.9154,5.005,5.0373,5.0614,5.0994,5.0838,5.0355,4.9568,4.9085,4.8499,4.7976,4.8344,4.8792,4.8792,4.8792,4.8947,4.9327,4.8827,4.8637,4.9338,4.9528,4.9666,4.9959,5.0011,5.0011,4.9976,4.9717,4.9591,4.9573,4.9398,4.881,4.8231,4.8499,4.8781,4.8931,4.9091,4.9293,4.975,4.9451,4.9328,4.9767,4.9451,4.9451,4.9943,4.9978,4.9785,4.8144,4.6758,4.6775,4.5747,4.5898,4.5877,5.0011,5.0011,5.0011,4.9683,4.9131,4.8879,4.8189,4.7251,4.701,4.6552,4.6069,4.6017,4.6035,4.6,4.5811,4.5828,4.6,4.6035,4.6035,4.6035,4.6017,4.6017,4.6017,4.5793,4.5828,4.5931,4.5604,4.5414,4.5414,4.5414,4.5414,4.5414,4.5414,4.5414,4.5414,4.5414,4.5414,4.5414,4.5414,4.5414,4.5432,4.5604,4.5621,4.55,4.6155,4.6586,4.6631,4.7338,4.7717,4.7672,4.701,4.6941,4.7603,4.72,4.7338,4.8252,4.881,4.939,4.9976,4.9476,4.9361,4.9873,4.9441,4.9568,5.0476,5.0493,5.0562,5.0994,5.1097,5.0718,4.9752,4.9137,4.8499,4.7872,4.8344,4.8775,4.8792,4.8947,4.939,4.9855,4.9447,4.9309,4.9838,4.9976,4.9976,4.9993,5.0011,5.0011,5.0011,4.9993,5.0005,5.012,5.0114,4.9699,4.8737,4.9077,4.9535,4.9624,4.9771,5.0054,5.0659,5.0178,4.9977,5.0213,5.0109,5.0136,5.0434,5.0627,5.0311,4.8802,4.7337,4.6179,4.5705,4.5951,4.6144,5.0011,5.0011,5.0011,4.9976,4.9873,4.9137,4.8758,4.8499,4.7958,4.7586,4.7482,4.7482,4.7579,4.7482,4.6879,4.6931,4.751,4.7482,4.7448,4.7476,4.7482,4.7579,4.7534,4.6906,4.6906,4.7241,4.6086,4.5466,4.5414,4.5414,4.5414,4.5414,4.5449,4.5449,4.5466,4.5483,4.5432,4.5483,4.5432,4.5414,4.5483,4.6104,4.6113,4.5604,4.6251,4.669,4.6734,4.7355,4.7769,4.7751,4.7113,4.701,4.7665,4.7707,4.8344,4.9631,4.989,4.9924,4.9976,4.9924,4.9942,4.9993,4.9924,4.9959,5.0149,5.058,5.089,5.105,5.1011,5.0459,4.9286,4.9016,4.8637,4.8017,4.8413,4.881,4.8844,4.9493,4.989,4.9993,4.9878,4.9844,4.9993,5.0011,5.0011,5.0011,5.0011,5.0011,5.0011,5.0011,4.9993,4.9993,5.0022,5.0057,5.0163,5.0046,5.0133,5.0206,5.0119,5.0349,5.0429,5.0457,5.054,5.0622,5.0599,5.0653,5.0838,5.0557,4.9925,4.8731,4.7249,4.6232,4.5916,4.6074,4.6214,5.0011,5.0011,5.0011,5.0011,4.9976,4.9683,4.9286,4.8775,4.8517,4.812,4.7769,4.7717,4.7948,4.8379,4.812,4.7879,4.7734,4.7717,4.7717,4.7717,4.7717,4.7717,4.7683,4.7424,4.7424,4.7482,4.6655,4.5897,4.5432,4.5414,4.5414,4.55,4.5914,4.6155,4.6138,4.6155,4.6155,4.613,4.5673,4.5414,4.5432,4.5673,4.5897,4.6224,4.7389,4.7775,4.731,4.851,4.9183,4.9183,4.8413,4.8372,4.9079,4.9183,4.9407,4.9924,5.0011,5.0011,5.0011,5.0011,5.0011,5.0011,5.0011,5.0011,5.0028,5.0235,5.0407,5.0407,5.0407,5.0062,4.9786,4.9562,4.9459,4.9286,4.9407,4.9562,4.9631,4.9838,5.0011,5.0011,5.0011,5.0011,5.0011,5.0011,5.0011,5.0011,5.0011,5.0011,5.0011,5.0011,5.0011,5.0011,5.0011,5.004,5.0109,5.02,5.0257,5.0285,5.0296,5.0352,5.0425,5.0425,5.0446,5.0557,5.0675,5.0792,5.0784,4.9943,4.9363,4.8784,4.7284,4.6354,4.6214,4.6214,4.6214,5.0011,5.0011,5.0011,5.0011,5.0011,5.0011,4.97,4.9217,4.9172,4.8896,4.851,4.8459,4.8706,4.912,4.9172,4.8959,4.8493,4.8459,4.843,4.8441,4.8459,4.843,4.8396,4.8172,4.8189,4.8275,4.7683,4.6924,4.6224,4.6138,4.6138,4.6207,4.6707,4.6975,4.6941,4.6734,4.6586,4.6458,4.5793,4.5414,4.5449,4.5897,4.6242,4.6793,4.8286,4.881,4.8103,4.9321,5.0011,4.9907,4.9223,4.9034,4.9562,4.9873,5.0011,5.0028,5.0235,5.0235,5.008,5.0235,5.0269,5.0028,5.0011,5.0011,5.0011,5.0011,5.0011,5.0011,5.0011,5.0011,5.0011,4.9993,5.0011,5.0011,5.0011,5.0011,5.0011,4.9993,5.0011,5.0011,5.0011,5.0011,5.0011,5.0011,5.0011,5.0011,5.0011,5.0011,5.0011,5.0011,5.0011,5.0011,5.0011,5.0011,5.0022,5.0092,5.0149,5.0149,5.0178,5.0263,5.032,5.0331,5.0369,5.0464,5.0575,5.0702,5.0328,4.9469,4.8907,4.8556,4.7407,4.6267,4.6214,4.6214,4.6214,5.0011,5.0011,5.0011,5.0011,5.0011,5.0011,4.9993,4.9924,4.9924,4.9821,4.97,4.9873,4.9786,4.9942,4.9873,4.9924,4.9804,4.9752,4.9752,4.9769,4.9821,4.9821,4.9769,4.9103,4.9068,4.9614,4.9079,4.8327,4.7534,4.7448,4.7465,4.7569,4.7603,4.7689,4.7707,4.7096,4.6682,4.65,4.588,4.5414,4.5569,4.6603,4.7017,4.6889,4.8631,4.9407,4.8775,4.9562,5.0011,4.9924,4.9304,4.8827,4.9085,4.9631,5.0011,5.0097,5.0631,5.0666,5.0166,5.0597,5.058,5.0287,5.0062,5.0183,5.0304,5.0183,5.0131,5.0149,5.0045,5.0011,5.0011,5.0011,5.0011,5.0011,5.0011,5.0011,5.0011,5.0011,5.0011,5.0011,5.0011,5.0011,5.0011,5.0011,5.0011,5.0011,5.0011,5.0011,5.0011,5.0011,5.0011,5.0011,5.0011,5.0011,5.0011,4.9993,4.9993,4.9993,5.0022,5.008,5.0138,5.0166,5.0235,5.0331,5.0519,5.0657,5.0618,4.975,4.8889,4.831,4.7126,4.6284,4.6214,4.6214,4.6214,5.0011,5.0011,5.0011,5.0011,5.0011,5.0011,5.0011,5.0011,5.0011,5.0011,5.0011,5.0011,5.0011,5.0011,5.0011,5.0011,5.0011,5.0011,5.0011,5.0011,5.0011,5.0011,4.9942,4.9752,4.9476,4.92,4.893,4.8413,4.7872,4.7751,4.7717,4.7758,4.8224,4.8448,4.8413,4.7769,4.7372,4.7207,4.6052,4.5414,4.5414,4.5862,4.6242,4.6717,4.782,4.8465,4.8792,4.9597,4.9976,5.0011,4.9769,4.9631,4.9683,4.9873,4.9993,5.0028,5.02,5.0287,5.008,5.0235,5.0545,5.0666,5.0752,5.1045,5.1373,5.1028,5.0787,5.0683,5.0321,5.0011,5.0011,5.0011,5.0011,5.0011,5.0011,5.0011,5.0011,5.0011,5.0011,5.0011,5.0011,5.0011,5.0011,5.0011,5.0011,5.0011,5.0011,5.0011,5.0011,5.0011,5.0011,5.0011,5.0011,5.0011,5.0011,5.0011,5.0011,5.0011,5.0011,5.0011,5.0011,5.004,5.0109,5.0246,5.0453,5.0507,5.0468,4.989,4.8924,4.8109,4.7144,4.6618,4.6319,4.6214,4.6214,5.0011,5.0011,5.0011,5.0011,5.0011,5.0011,5.0011,5.0011,5.0011,5.0011,5.0011,5.0011,5.0011,5.0011,5.0011,5.0011,5.0011,5.0011,5.0011,5.0011,5.0011,5.0011,5.0011,5.0011,4.9786,4.9355,4.924,4.9028,4.8568,4.8562,4.8579,4.8683,4.9045,4.9223,4.9183,4.8499,4.8,4.7569,4.6466,4.569,4.5518,4.569,4.6234,4.6983,4.7707,4.8448,4.9189,4.9752,5.0011,5.0011,5.0011,5.0011,5.0011,4.9993,5.0011,5.0045,5.0235,5.0338,5.008,5.0304,5.0597,5.1011,5.1097,5.1425,5.1942,5.1718,5.1429,5.1033,5.0718,5.0304,5.0062,5.0011,5.0011,5.0011,5.0011,5.0011,5.0011,5.0011,5.0011,5.0011,5.0011,5.0011,5.0011,5.0011,5.0011,5.0011,5.0011,5.0011,5.0011,5.0011,5.0011,5.0011,5.0011,5.0011,5.0011,5.0011,5.0011,5.0011,5.0011,5.0011,5.0011,5.0011,5.0068,5.0246,5.0453,5.027,5.0196,4.9372,4.8486,4.7783,4.7197,4.6618,4.6214,4.6214,4.6214,5.0011,5.0011,5.0011,5.0011,5.0011,5.0011,5.0011,5.0011,5.0011,5.0011,5.0011,5.0011,5.0011,5.0011,5.0011,5.0011,5.0011,5.0011,5.0011,5.0011,5.0011,5.0011,5.0011,5.0011,4.9942,4.9907,4.9924,4.9907,4.9706,4.9752,4.9993,4.9838,4.9821,4.9959,4.9735,4.92,4.8413,4.781,4.701,4.6217,4.5707,4.6182,4.6906,4.7603,4.8327,4.9016,4.9597,4.989,5.0011,5.0011,5.0011,5.0011,5.0011,5.0028,5.0149,5.0218,5.0787,5.0787,5.0493,5.0838,5.1183,5.1287,5.1425,5.1511,5.2235,5.2339,5.1981,5.136,5.1102,5.0752,5.0183,5.0011,5.0011,5.0011,5.0011,5.0011,5.0011,5.0011,5.0011,5.0011,5.0011,5.0011,5.0011,5.0011,5.0011,5.0011,5.0011,5.0011,5.0011,5.0011,5.0011,5.0011,5.0011,5.0011,5.0011,5.0011,5.0011,5.0011,5.0011,5.0011,5.0011,5.0011,5.0068,5.0246,5.0345,5.0145,4.9809,4.9144,4.8512,4.7959,4.7309,4.653,4.6214,4.6214,4.6214,5.0011,5.0011,5.0011,5.0011,5.0011,5.0011,5.0011,5.0011,5.0011,5.0011,5.0011,5.0011,5.0011,5.0011,5.0011,5.0011,5.0011,5.0011,5.0011,5.0011,5.0011,5.0011,5.0011,5.0011,5.0011,5.0011,5.0011,5.0011,5.0011,4.9993,4.9976,5.0011,5.0028,5.0028,4.9861,4.9258,4.8741,4.8327,4.7234,4.6828,4.6983,4.669,4.6975,4.77,4.8448,4.893,4.9189,4.9671,4.9993,5.0011,5.0011,5.0011,5.008,5.0493,5.0769,5.0942,5.1459,5.1826,5.1653,5.1722,5.186,5.1994,5.2304,5.2873,5.3046,5.308,5.2701,5.2028,5.1447,5.0821,5.02,5.0011,5.0011,5.0011,5.0011,5.0011,5.0011,5.0011,5.0011,5.0011,5.0011,5.0011,5.0011,5.0011,5.0011,5.0011,5.0011,5.0011,5.0011,5.0011,5.0011,5.0011,5.0011,5.0011,5.0011,5.0011,5.0011,5.0011,5.0011,5.0011,5.0011,5.0011,5.008,5.0217,5.0331,5.0192,4.9903,4.9415,4.882,4.8135,4.7274,4.6477,4.6284,4.6214,4.6214,5.0011,5.0011,5.0011,5.0011,5.0011,5.0011,5.0011,5.0011,5.0011,5.0011,5.0011,5.0011,5.0011,5.0011,5.0011,5.0011,5.0011,5.0011,5.0011,5.0011,5.0011,5.0011,5.0011,5.0011,5.0011,5.0011,5.0011,4.9775,4.9602,4.9821,4.9821,4.97,5.0166,5.0442,5.0493,5.0033,4.9568,4.9154,4.8131,4.7638,4.7638,4.7303,4.7758,4.8476,4.9166,4.9482,5.0137,5.0395,5.0355,5.0097,5.0011,5.0131,5.0476,5.0826,5.1205,5.1528,5.1964,5.217,5.217,5.2188,5.2343,5.2597,5.2977,5.3253,5.3615,5.3632,5.3063,5.2239,5.1774,5.1097,5.0252,5.0011,5.0011,5.0011,5.0011,5.0011,5.0011,5.0011,5.0011,5.0011,5.0011,5.0011,5.0011,5.0011,5.0011,5.0011,5.0011,5.0011,5.0011,5.0011,5.0011,5.0011,5.0011,5.0011,5.0011,5.0011,5.0011,5.0011,5.0011,5.0011,5.0011,5.0011,5.008,5.0178,5.0246,5.023,4.9909,4.9485,4.8802,4.8066,4.7197,4.6653,4.6442,4.6214,4.6214,5.0011,5.0011,5.0011,5.0011,5.0011,5.0011,5.0011,5.0011,5.0011,5.0011,5.0011,5.0011,5.0011,5.0011,5.0011,5.0011,5.0011,5.0011,5.0011,5.0011,5.0011,5.0011,5.0011,5.0011,5.0011,5.0011,5.0011,4.9637,4.9482,4.9855,4.9769,4.9804,5.0636,5.1149,5.1218,5.1136,5.0838,5.0257,4.9499,4.8965,4.8689,4.8545,4.8982,5.0045,5.0269,5.0873,5.1481,5.1515,5.0976,5.0304,5.0235,5.0666,5.1183,5.1269,5.1683,5.227,5.2515,5.2619,5.2498,5.267,5.2718,5.3166,5.2822,5.2908,5.3891,5.3804,5.3322,5.2546,5.2274,5.1412,5.0292,5.0011,5.0011,5.0011,5.0011,5.0011,5.0011,5.0011,5.0011,5.0011,5.0011,5.0011,5.0011,5.0011,5.0011,5.0011,5.0011,5.0011,5.0011,5.0011,5.0011,5.0011,5.0011,5.0011,5.0011,5.0011,5.0011,5.0011,5.0011,5.0011,5.0011,4.9993,5.008,5.0166,5.0206,5.0111,4.9851,4.936,4.8855,4.832,4.7662,4.7074,4.6582,4.6319,4.6214,5.0011,5.0011,5.0011,5.0011,5.0011,5.0011,5.0011,5.0011,5.0011,5.0011,5.0011,5.0011,5.0011,5.0011,5.0011,5.0011,5.0011,5.0011,5.0011,5.0011,5.0011,5.0011,5.0011,5.0011,5.0011,5.0011,5.0011,4.9861,4.9907,5.0338,5.0787,5.0735,5.1343,5.1964,5.1977,5.1964,5.1912,5.1584,5.0947,5.074,5.0826,5.0476,5.0654,5.1567,5.1701,5.1856,5.2067,5.205,5.1877,5.1757,5.1722,5.1873,5.2046,5.2511,5.2873,5.3166,5.3667,5.3942,5.3977,5.3873,5.3787,5.3477,5.3667,5.3908,5.358,5.4063,5.3804,5.3218,5.2567,5.1666,5.0355,5.0028,5.0011,5.0011,5.0011,5.0011,5.0011,5.0011,5.0011,5.0011,5.0011,5.0011,5.0011,5.0011,5.0011,5.0011,5.0011,5.0011,5.0011,5.0011,5.0011,5.0011,5.0011,5.0011,5.0062,5.0149,5.0287,5.0287,5.0252,5.0235,5.0218,5.0011,5.0022,5.008,5.0149,5.0003,4.9889,4.9724,4.9326,4.8759,4.8267,4.7885,4.7442,4.6875,4.6688,5.0011,5.0011,5.0011,5.0011,5.0011,5.0011,5.0011,5.0011,5.0011,5.0011,5.0011,5.0011,5.0011,5.0011,5.0011,5.0011,5.0011,5.0011,5.0011,5.0011,5.0011,5.0011,5.0011,5.0011,5.0011,5.0011,5.0011,5.0011,5.02,5.0718,5.1063,5.1235,5.2183,5.2718,5.277,5.277,5.2787,5.2615,5.1998,5.1826,5.2033,5.1843,5.1981,5.2615,5.2804,5.2891,5.3256,5.2942,5.2994,5.3184,5.327,5.3115,5.2856,5.3184,5.3529,5.396,5.4218,5.4512,5.4494,5.4494,5.4322,5.3942,5.4029,5.3994,5.3822,5.4046,5.3787,5.3442,5.2925,5.2166,5.0718,5.0114,5.0045,5.0011,5.0011,5.0011,5.0011,5.0011,5.0011,5.0011,5.0011,5.0011,5.0011,5.0011,5.0011,5.0011,5.0011,5.0011,5.0011,5.0011,5.0011,5.0011,5.0011,5.0028,5.0114,5.0304,5.0619,5.0683,5.07,5.07,5.07,5.0355,5.0011,5.0051,5.008,5.0149,5.002,4.9893,4.9932,4.9704,4.9354,4.8919,4.8792,4.8919,4.8667,5.0011,5.0011,5.0011,5.0011,5.0011,5.0011,5.0011,5.0011,5.0011,5.0011,5.0011,5.0011,5.0011,5.0011,5.0011,5.0011,5.0011,5.0011,5.0011,5.0011,5.0011,5.0011,5.0011,5.0011,5.0131,5.0149,5.0269,5.0252,5.0476,5.1011,5.1735,5.177,5.2666,5.3339,5.3511,5.3425,5.3408,5.3425,5.3011,5.267,5.2722,5.2684,5.2998,5.3408,5.358,5.3787,5.4063,5.3891,5.3822,5.446,5.4512,5.4167,5.3787,5.3598,5.3787,5.4477,5.4494,5.4512,5.4512,5.4512,5.4494,5.4494,5.4011,5.3925,5.4201,5.4063,5.3822,5.3632,5.3322,5.2666,5.1304,5.0649,5.0218,5.0045,5.0011,5.0011,5.0011,5.0011,5.0011,5.0011,5.0011,5.0011,5.0011,5.0011,5.0011,5.0011,5.0011,5.0011,5.0011,5.0011,5.0011,5.0183,5.0252,5.0407,5.0511,5.0562,5.089,5.0856,5.0925,5.0994,5.0959,5.0493,5.0097,5.0011,5.0022,5.008,5.027,5.0378,5.0437,5.0529,5.0756,5.0702,5.0838,5.1057,5.0631,5.0011,5.0011,5.0011,5.0011,5.0011,5.0011,5.0011,5.0011,5.0011,5.0011,5.0011,5.0011,5.0011,5.0011,5.0011,5.0011,5.0011,5.0011,5.0011,5.0011,5.0011,5.0011,5.0011,5.0131,5.0355,5.0804,5.0994,5.1045,5.1356,5.2235,5.2735,5.3028,5.3287,5.3701,5.3873,5.3804,5.3736,5.3994,5.3908,5.3891,5.3891,5.3908,5.3942,5.4201,5.4201,5.4322,5.4425,5.4408,5.4391,5.4494,5.4512,5.4425,5.4287,5.4253,5.4356,5.446,5.4512,5.4512,5.4512,5.4512,5.4512,5.4477,5.4322,5.427,5.4425,5.4374,5.4201,5.4063,5.3615,5.2787,5.1287,5.0942,5.058,5.0235,5.0011,5.0011,5.0011,5.0011,5.0011,5.0011,5.0011,5.0011,5.0011,5.0011,5.0011,5.0011,5.0011,5.0011,5.0011,5.0011,5.0011,5.0269,5.0597,5.0804,5.0994,5.1011,5.1114,5.0937,5.0971,5.1139,5.0984,5.0493,5.0218,5.0252,5.0149,5.0074,5.0334,5.0743,5.1385,5.1784,5.2177,5.2595,5.2743,5.2834,5.231,5.0011,5.0011,5.0011,5.0011,5.0011,5.0011,5.0011,5.0011,5.0011,5.0011,5.0011,5.0011,5.0011,5.0011,5.0011,5.0011,5.0011,5.0011,5.0011,5.0011,5.0011,5.0011,5.0114,5.0355,5.0735,5.1269,5.1804,5.2235,5.2339,5.2959,5.3598,5.3925,5.3977,5.3994,5.3977,5.3994,5.3908,5.4115,5.4305,5.4512,5.4512,5.4512,5.4494,5.4512,5.4512,5.4512,5.4512,5.4512,5.4512,5.4512,5.4512,5.4512,5.4512,5.4512,5.4512,5.4512,5.4512,5.4512,5.4512,5.4512,5.4512,5.4512,5.4512,5.4512,5.4512,5.4494,5.4512,5.4339,5.3822,5.2942,5.1821,5.1378,5.0769,5.02,5.0011,5.0011,5.0011,5.0011,5.0011,5.0011,5.0011,5.0011,5.0011,5.0011,5.0011,5.0011,5.0011,5.0011,5.0011,5.0011,5.0011,5.0338,5.0666,5.0873,5.1114,5.1287,5.1356,5.1213,5.1043,5.1228,5.1332,5.0986,5.0783,5.0713,5.054,5.0355,5.0749,5.1315,5.2167,5.3167,5.3968,5.4569,5.462,5.4504,5.4074,5.0011,5.0011,5.0011,5.0011,5.0011,5.0011,5.0011,5.0011,5.0011,5.0011,5.0011,5.0011,5.0011,5.0011,5.0011,5.0011,5.0011,5.0011,5.0011,5.0011,5.0011,5.0028,5.0407,5.0787,5.1304,5.1977,5.2615,5.3408,5.327,5.358,5.3994,5.4184,5.4374,5.4167,5.3873,5.3994,5.3891,5.4011,5.4149,5.4494,5.4494,5.4356,5.4391,5.4494,5.4512,5.4512,5.4512,5.4512,5.4512,5.4512,5.4512,5.4512,5.4512,5.4512,5.4512,5.4512,5.4512,5.4512,5.4512,5.4512,5.4512,5.4512,5.4512,5.4512,5.4512,5.4512,5.4494,5.4391,5.4046,5.3373,5.2546,5.1757,5.108,5.0442,5.0149,5.0011,5.0011,5.0011,5.0011,5.0011,5.0011,5.0011,5.0011,5.0011,5.0011,5.0011,5.0011,5.0011,5.0011,5.0011,5.008,5.0378,5.0654,5.089,5.1132,5.1412,5.1515,5.158,5.1379,5.1329,5.1562,5.1684,5.1541,5.1396,5.1114,5.1058,5.1477,5.2055,5.3107,5.4286,5.5728,5.646,5.6401,5.6388,5.6173,5.0011,5.0011,5.0011,5.0011,5.0011,5.0011,5.0011,5.0011,5.0011,5.0011,4.9907,5.0011,5.0011,5.0011,5.0011,5.0011,5.0011,5.0011,5.0011,5.0011,5.0097,5.0407,5.0873,5.1011,5.1994,5.2718,5.3253,5.3391,5.3598,5.4063,5.4339,5.4408,5.4063,5.3753,5.4063,5.396,5.3839,5.4253,5.4443,5.4512,5.4425,5.3977,5.4063,5.4356,5.4512,5.4512,5.4512,5.4512,5.4512,5.4512,5.4512,5.4512,5.4512,5.4512,5.4512,5.4512,5.4512,5.4512,5.4512,5.4512,5.4512,5.4512,5.4512,5.4512,5.4512,5.4512,5.4512,5.4512,5.4356,5.3942,5.3184,5.2515,5.1787,5.1045,5.0442,5.0166,5.0011,5.0011,5.0011,5.0011,5.0011,5.0011,5.0011,5.0011,5.0011,5.0011,5.0011,5.0011,5.0011,5.0011,5.0062,5.0355,5.0688,5.0925,5.089,5.1235,5.1373,5.1614,5.1535,5.1352,5.1612,5.1854,5.2348,5.2177,5.1928,5.1955,5.2386,5.3143,5.4133,5.5204,5.6369,5.7349,5.8116,5.8072,5.7749,5.0011,5.0011,5.0011,5.0011,5.0011,5.0011,5.0011,5.0011,4.9993,4.9752,4.951,4.9809,5.0011,5.0011,5.0011,5.0011,5.0011,5.0011,5.0011,5.0183,5.0407,5.0804,5.1252,5.1959,5.2942,5.3287,5.3804,5.4063,5.4167,5.4253,5.4512,5.446,5.4167,5.3908,5.4132,5.4011,5.3925,5.4046,5.4236,5.4494,5.4425,5.4236,5.4167,5.4494,5.4512,5.4512,5.4512,5.4512,5.4512,5.4512,5.4512,5.4512,5.4512,5.4512,5.4512,5.4512,5.4512,5.4512,5.4512,5.4512,5.4512,5.4512,5.4512,5.4512,5.4512,5.4512,5.4512,5.4512,5.4512,5.4167,5.3615,5.3115,5.2235,5.1442,5.0804,5.0355,5.0097,5.0011,5.0011,5.0011,5.0011,5.0011,5.0022,5.008,5.0051,5.0011,5.0011,5.0011,5.0011,5.0011,5.0097,5.0252,5.0614,5.0959,5.0821,5.0856,5.0833,5.1008,5.1144,5.1134,5.1503,5.1871,5.2418,5.3026,5.312,5.3233,5.3414,5.4052,5.4872,5.5889,5.693,5.7674,5.8359,5.8428,5.8198,5.0183,5.0011,5.0011,5.0011,5.0011,5.0011,5.0011,5.0011,5.0011,4.9683,4.9361,4.9735,5.0011,5.0011,5.0011,5.0011,5.0011,5.0011,5.0149,5.0442,5.0838,5.1321,5.1977,5.2908,5.3425,5.3667,5.4167,5.4253,5.4201,5.4391,5.4512,5.4512,5.4443,5.4218,5.4011,5.4132,5.4253,5.3942,5.4046,5.427,5.4425,5.427,5.4305,5.4443,5.4512,5.4512,5.4512,5.4512,5.4512,5.4512,5.4512,5.4512,5.4512,5.4512,5.4512,5.4512,5.4512,5.4512,5.4512,5.4512,5.4512,5.4512,5.4512,5.4512,5.4512,5.4512,5.4512,5.4512,5.4512,5.4201,5.3804,5.3546,5.2701,5.189,5.1183,5.0666,5.0235,5.0149,5.0062,5.0011,5.0011,5.0011,5.0051,5.0178,5.0149,5.0022,5.0011,5.0011,5.0011,5.0011,5.0062,5.0166,5.0304,5.0718,5.0873,5.07,5.0574,5.0581,5.0742,5.0998,5.1431,5.203,5.2674,5.3269,5.3684,5.3631,5.3318,5.447,5.5589,5.6265,5.6982,5.7789,5.8331,5.8443,5.8532,5.0631,5.0011,5.0011,5.0011,5.0011,5.0011,5.0011,5.0011,5.0011,4.9959,4.9821,4.9942,4.9907,5.0011,5.0011,5.0011,5.0011,5.0011,5.0407,5.0821,5.12,5.1925,5.2666,5.3287,5.3736,5.4253,5.4477,5.4115,5.3804,5.4149,5.4356,5.4494,5.427,5.4374,5.4356,5.4322,5.446,5.4167,5.4029,5.4063,5.4184,5.4098,5.396,5.4408,5.4512,5.4512,5.4512,5.4512,5.4512,5.4512,5.4512,5.4512,5.4512,5.4512,5.4512,5.4512,5.4512,5.4512,5.4512,5.4512,5.4512,5.4512,5.4512,5.4512,5.4512,5.4512,5.4512,5.4512,5.4512,5.4477,5.4167,5.3804,5.3149,5.2477,5.1787,5.1149,5.0683,5.0287,5.0183,5.0045,5.0011,5.0011,5.0022,5.0149,5.0166,5.004,5.0011,5.0011,5.0011,5.0011,5.0011,5.0045,5.0045,5.0355,5.0856,5.0718,5.0431,5.0654,5.0914,5.1149,5.1446,5.2085,5.2631,5.2748,5.2966,5.3091,5.342,5.4345,5.525,5.6205,5.7004,5.7684,5.8238,5.8465,5.8572,5.0683,5.0028,5.0011,5.0011,5.0011,5.0011,5.0011,5.0011,5.0011,5.0011,4.9976,4.9545,4.9545,4.989,5.0011,5.0011,5.008,5.0528,5.0838,5.1183,5.1632,5.2408,5.3132,5.3494,5.3753,5.4322,5.4443,5.4132,5.3546,5.3718,5.3373,5.3356,5.3529,5.377,5.3891,5.4236,5.446,5.446,5.4253,5.4287,5.4322,5.4322,5.4218,5.4443,5.4512,5.4512,5.4512,5.4512,5.4512,5.4512,5.4512,5.4543,5.4543,5.4543,5.4543,5.4512,5.4512,5.4512,5.4512,5.4512,5.4512,5.4512,5.4512,5.4512,5.4512,5.4512,5.4512,5.4512,5.4512,5.4512,5.4425,5.4218,5.3822,5.3149,5.2459,5.177,5.1097,5.0649,5.0252,5.0097,5.0028,5.0011,5.0051,5.0138,5.0097,5.004,5.0011,5.0011,5.0011,5.0011,5.0011,5.0011,5.0011,5.0011,5.0459,5.0367,5.0218,5.0656,5.1068,5.1237,5.1418,5.175,5.2182,5.2245,5.2277,5.2386,5.2907,5.3954,5.4812,5.549,5.6439,5.7405,5.794,5.8301,5.8333,5.0666,5.0045,5.0011,5.0011,5.0011,5.0011,5.0011,5.0011,5.0011,5.0011,4.9959,4.9396,4.9441,4.989,5.0011,5.0011,5.02,5.07,5.1166,5.1563,5.1981,5.2684,5.308,5.327,5.3304,5.3977,5.3856,5.3408,5.2994,5.3028,5.2425,5.208,5.2304,5.2684,5.3218,5.377,5.427,5.446,5.4512,5.4512,5.4512,5.4494,5.4477,5.4512,5.4512,5.4512,5.4512,5.4512,5.4512,5.4589,5.4634,5.4683,5.4652,5.4637,5.4669,5.4575,5.4512,5.4512,5.4512,5.4512,5.4512,5.4512,5.4512,5.4512,5.4512,5.4512,5.4512,5.4512,5.4512,5.4512,5.4512,5.4391,5.4063,5.3356,5.3201,5.2563,5.1511,5.0873,5.0459,5.0131,5.0062,5.0011,4.9993,5.008,5.0051,5.004,5.0011,5.0011,5.0011,5.0011,5.0011,5.0011,5.0011,5.0011,5.0028,5.0074,5.0207,5.0672,5.1025,5.1202,5.1405,5.166,5.1849,5.198,5.1923,5.1768,5.2126,5.2823,5.3682,5.4589,5.5698,5.6842,5.694,5.7225,5.7497,5.0683,5.0028,5.0011,5.0011,5.0011,5.0011,5.0011,5.0011,5.0011,5.0011,5.0011,4.9873,4.989,5.0011,5.0011,5.008,5.0355,5.0925,5.1563,5.2166,5.217,5.2718,5.2839,5.2873,5.2649,5.3046,5.2942,5.2584,5.2239,5.2239,5.1447,5.0821,5.1097,5.1718,5.227,5.3046,5.3787,5.4408,5.4494,5.4512,5.4512,5.4512,5.4512,5.4512,5.4512,5.4512,5.4512,5.4512,5.4512,5.4526,5.5,5.5,5.4728,5.5061,5.5048,5.4652,5.4543,5.4512,5.4512,5.4512,5.4512,5.4512,5.4512,5.4512,5.4512,5.4512,5.4589,5.4665,5.4575,5.4526,5.4543,5.4523,5.4171,5.387,5.3715,5.3314,5.2291,5.1338,5.0976,5.0424,5.0149,5.0011,5.0011,5.0011,5.0011,5.0011,5.0011,5.0011,5.0011,5.0011,5.0011,5.0011,5.0011,5.0011,5.0011,5.0011,5.0195,5.0657,5.107,5.1262,5.1416,5.1596,5.1723,5.1753,5.1348,5.092,5.1135,5.1489,5.266,5.3882,5.5101,5.6043,5.6061,5.6258,5.6659,5.0683,5.0011,5.0011,5.0011,5.0011,5.0011,5.0011,5.0011,5.0011,5.0011,5.0011,5.0011,5.0011,5.0011,5.0097,5.0287,5.0821,5.1511,5.2252,5.2856,5.2494,5.277,5.2804,5.2252,5.1895,5.2343,5.2222,5.1791,5.1464,5.1464,5.0976,5.0355,5.0373,5.1063,5.2114,5.3011,5.377,5.4374,5.4512,5.4512,5.4512,5.4512,5.4512,5.4512,5.4512,5.4512,5.4512,5.4512,5.4512,5.4557,5.5061,5.5224,5.5061,5.5402,5.5343,5.5,5.4834,5.4512,5.4512,5.4512,5.4512,5.4543,5.4512,5.4512,5.4512,5.4512,5.4697,5.4834,5.4652,5.4697,5.5,5.5091,5.4834,5.452,5.4285,5.3983,5.3203,5.2296,5.1619,5.0925,5.0476,5.0149,5.0028,5.0109,5.012,5.008,5.008,5.0022,4.9993,5.0011,5.0011,5.0011,5.0011,5.0011,5.0011,5.0011,5.0235,5.0712,5.1131,5.1467,5.1569,5.1594,5.1394,5.1323,5.0658,5.0109,5.0645,5.1272,5.2147,5.3271,5.4448,5.5322,5.5563,5.5831,5.6189,5.0442,5.0011,5.0011,5.0011,5.0011,5.0011,5.0011,5.0011,5.0011,5.0011,5.0011,5.0011,5.0011,5.0062,5.0321,5.0545,5.1235,5.2201,5.2718,5.327,5.2563,5.2597,5.2339,5.1614,5.1304,5.1567,5.1533,5.1171,5.1166,5.0826,5.0459,5.0114,5.0028,5.0735,5.1718,5.2528,5.3304,5.3908,5.4218,5.4512,5.4512,5.4512,5.4512,5.4512,5.4512,5.4512,5.4512,5.4512,5.4512,5.4665,5.5,5.5385,5.5461,5.5589,5.5676,5.556,5.5194,5.4896,5.4834,5.4575,5.462,5.4834,5.4634,5.4512,5.4512,5.4512,5.4683,5.4759,5.4697,5.4803,5.5061,5.5194,5.5194,5.4834,5.4743,5.4452,5.3679,5.2766,5.205,5.1373,5.0718,5.039,5.0057,5.0223,5.0285,5.0217,5.0149,5.0109,5.0022,5.0011,5.0011,5.0011,5.0011,5.0011,5.0011,5.0011,5.0274,5.0739,5.1158,5.1594,5.1594,5.1594,5.1262,5.0884,5.0432,5.0184,5.0537,5.1158,5.2114,5.2895,5.3687,5.4445,5.4988,5.5219,5.539,5.0011,5.0011,5.0011,5.0011,5.0011,5.0011,5.0011,5.0011,5.0011,5.0011,5.0011,5.0011,5.008,5.0206,5.0769,5.12,5.1476,5.2701,5.3097,5.3063,5.2425,5.2339,5.1718,5.089,5.0718,5.0666,5.0666,5.0683,5.0925,5.0511,5.0131,5.0028,5.0011,5.0476,5.1132,5.1791,5.2666,5.3477,5.4201,5.4443,5.4512,5.4512,5.4512,5.4512,5.4512,5.4512,5.4543,5.4589,5.462,5.4834,5.5194,5.5414,5.5705,5.6027,5.6221,5.6111,5.5676,5.5502,5.5355,5.5018,5.5048,5.5313,5.5,5.4697,5.462,5.4697,5.4821,5.4852,5.479,5.4728,5.479,5.5,5.5194,5.5122,5.5134,5.4574,5.3808,5.308,5.2459,5.1787,5.1097,5.0614,5.0172,5.0206,5.0331,5.0206,5.0138,5.0138,5.008,5.0011,5.0011,5.0011,5.0011,5.0011,5.0011,5.0011,5.0453,5.0964,5.1262,5.1619,5.1619,5.1594,5.1262,5.0884,5.0359,5.0331,5.083,5.1442,5.215,5.2849,5.3441,5.365,5.4209,5.4088,5.4169,5.0011,5.0011,5.0011,5.0011,5.0011,5.0011,5.0011,5.0011,5.0011,5.0011,5.0011,5.0011,5.0269,5.0804,5.0998,5.177,5.2321,5.2718,5.2959,5.2735,5.2097,5.1632,5.1097,5.0562,5.0287,5.0218,5.0183,5.0114,5.0269,5.0011,5.0011,5.0011,5.0011,5.0218,5.0545,5.105,5.2183,5.3201,5.4029,5.4305,5.446,5.4477,5.4494,5.4512,5.4512,5.4512,5.4543,5.4865,5.4987,5.5194,5.6065,5.6554,5.666,5.6783,5.6783,5.6312,5.6111,5.6027,5.6017,5.5858,5.583,5.5943,5.5773,5.5513,5.5296,5.5217,5.5234,5.5291,5.5326,5.5404,5.5434,5.5566,5.5389,5.5152,5.5217,5.5039,5.4291,5.3629,5.2973,5.1998,5.1309,5.058,5.0172,5.0178,5.0263,5.0138,5.0126,5.0166,5.0109,5.0022,5.0011,5.0011,5.0011,5.0011,5.0011,5.0011,5.0602,5.1158,5.1442,5.1743,5.1939,5.1817,5.1373,5.091,5.0415,5.0657,5.1288,5.1817,5.2268,5.2761,5.3292,5.3306,5.3336,5.3439,5.3539,5.0011,5.0011,5.0011,5.0011,5.0011,5.0011,5.0011,5.0011,5.0011,5.0011,5.0011,5.0011,5.0424,5.1063,5.1412,5.1981,5.2735,5.2856,5.2908,5.2408,5.1649,5.1338,5.0873,5.0407,5.0114,5.0011,5.0011,5.0028,5.0011,5.0011,5.0011,5.0011,5.0011,5.0011,5.0252,5.0856,5.1735,5.2735,5.3546,5.3942,5.4167,5.4356,5.4494,5.4477,5.4477,5.4474,5.4557,5.5,5.5147,5.5355,5.6258,5.6686,5.6964,5.7259,5.7401,5.7015,5.6731,5.6678,5.6554,5.6357,5.6421,5.6501,5.6465,5.6231,5.6243,5.6244,5.6301,5.6356,5.6303,5.6268,5.6279,5.6215,5.5642,5.5126,5.5309,5.5522,5.4905,5.4236,5.3314,5.227,5.1425,5.0597,5.0241,5.0264,5.0263,5.0235,5.0348,5.0499,5.0291,4.9993,5.0011,5.0011,5.0011,5.0011,5.0011,5.008,5.0602,5.1131,5.1467,5.1768,5.215,5.1915,5.1339,5.0884,5.0443,5.0847,5.1288,5.1793,5.2268,5.2761,5.3124,5.3209,5.3314,5.3398,5.3538,5.0011,5.0011,5.0011,5.0011,5.0011,5.0011,5.0011,5.0011,5.0011,5.0011,5.0011,5.0011,5.0407,5.1097,5.158,5.208,5.2528,5.2718,5.2494,5.2119,5.1269,5.0856,5.0666,5.0355,5.0062,5.0011,5.0011,5.0011,5.0011,5.0011,5.0011,5.0011,5.0011,5.0011,5.0114,5.0545,5.12,5.177,5.2597,5.3166,5.3598,5.4011,5.4408,5.4339,5.435,5.4378,5.4548,5.4738,5.4887,5.5337,5.583,5.6421,5.7065,5.7637,5.7821,5.7774,5.7401,5.7259,5.7091,5.6887,5.6912,5.6887,5.6757,5.6835,5.6997,5.7209,5.7234,5.7219,5.7163,5.7461,5.757,5.6872,5.6217,5.5692,5.5579,5.5569,5.5182,5.4509,5.3654,5.2611,5.1614,5.0851,5.0679,5.0717,5.0499,5.0443,5.0481,5.0712,5.0592,5.0206,5.0051,5.0051,5.0011,5.0011,5.0011,5.0149,5.0602,5.1052,5.1442,5.1866,5.2244,5.1842,5.1262,5.0884,5.0564,5.0766,5.1131,5.1669,5.2173,5.2676,5.2999,5.3164,5.3269,5.3375,5.3477,5.0011,5.0011,5.0011,5.0011,5.0011,5.0011,5.0011,5.0011,5.0011,5.0011,5.0011,5.0062,5.0424,5.1114,5.1338,5.1873,5.2718,5.2166,5.1946,5.1567,5.0907,5.0459,5.0321,5.0149,5.0011,5.0011,5.0011,5.0011,5.0011,5.0011,5.0011,5.0011,5.0011,5.0011,5.0011,5.0373,5.0597,5.1149,5.1533,5.2494,5.327,5.3442,5.3667,5.3614,5.358,5.4119,5.4525,5.5314,5.5902,5.6577,5.713,5.7522,5.7797,5.7932,5.7997,5.7955,5.7821,5.7726,5.7637,5.7498,5.7522,5.7613,5.7613,5.766,5.7802,5.8,5.8077,5.8044,5.8223,5.8574,5.8447,5.7562,5.6758,5.6246,5.5801,5.5599,5.5425,5.4697,5.3952,5.2943,5.1869,5.1464,5.1256,5.1036,5.078,5.0712,5.0739,5.082,5.0803,5.0547,5.0263,5.0195,5.0022,5.0011,5.0011,5.0149,5.0575,5.1026,5.1442,5.1866,5.2268,5.1964,5.1518,5.1026,5.0749,5.0973,5.121,5.1493,5.2012,5.2545,5.2955,5.3164,5.3227,5.3314,5.3416,5.0011,5.0011,5.0011,5.0011,5.0011,5.0011,5.0011,5.0011,5.0011,5.0011,5.0011,5.0062,5.0407,5.1028,5.1114,5.136,5.2235,5.1545,5.1166,5.0856,5.0649,5.02,5.0011,5.0011,5.0011,5.0011,5.0011,5.0011,5.0011,5.0011,5.0011,5.0011,5.0011,5.0011,5.0011,5.0045,5.0373,5.1045,5.1085,5.174,5.2822,5.2873,5.2873,5.2784,5.3142,5.3631,5.3961,5.4795,5.5579,5.6543,5.7315,5.7784,5.7932,5.7978,5.7978,5.7978,5.7955,5.7978,5.7978,5.7978,5.7978,5.7978,5.7978,5.7886,5.8032,5.8233,5.8664,5.8732,5.9285,5.967,5.874,5.7819,5.7079,5.6507,5.6118,5.5836,5.5469,5.4882,5.4153,5.3307,5.252,5.2211,5.1923,5.1549,5.1339,5.1288,5.1262,5.1017,5.0991,5.0946,5.0637,5.035,5.0218,5.0062,5.0011,5.0178,5.0481,5.0937,5.1424,5.1467,5.1644,5.1891,5.1817,5.1324,5.1105,5.1288,5.15,5.1812,5.2,5.2477,5.285,5.3185,5.3209,5.3272,5.3375,5.0011,5.0011,5.0011,5.0011,5.0011,5.0011,5.0011,5.0011,5.0011,5.0011,5.0011,5.0011,5.0424,5.0769,5.0959,5.0998,5.0998,5.0925,5.0562,5.0459,5.0166,5.0028,5.0011,5.0011,5.0011,5.0011,5.0011,5.0011,5.0011,5.0011,5.0011,5.0011,5.0011,5.0011,5.0028,5.0252,5.0683,5.1222,5.1447,5.1464,5.1808,5.2033,5.205,5.2226,5.2515,5.2874,5.3195,5.3762,5.4698,5.5945,5.7288,5.778,5.7978,5.7978,5.7978,5.7978,5.7978,5.7978,5.7978,5.7978,5.7978,5.7978,5.7978,5.8052,5.8198,5.8542,5.8954,5.9229,5.9803,5.9963,5.9026,5.8161,5.7441,5.6859,5.6496,5.5989,5.5479,5.5056,5.4383,5.3639,5.3311,5.2971,5.2781,5.234,5.2033,5.199,5.1779,5.146,5.1245,5.1211,5.1034,5.0739,5.0517,5.0321,5.008,5.0281,5.0537,5.092,5.1322,5.1105,5.1149,5.1843,5.2101,5.1676,5.1537,5.2019,5.2151,5.2355,5.2534,5.2684,5.2868,5.3185,5.3188,5.3251,5.3336,5.0011,5.0011,5.0011,5.0011,5.0011,5.0011,5.0011,5.0011,5.0011,5.0011,5.0011,5.0011,5.0149,5.0235,5.0218,5.0424,5.0809,5.0597,5.0752,5.0821,5.02,5.0045,5.0011,5.0011,5.0011,5.0011,5.0011,5.0011,5.0011,5.0011,5.0011,5.0011,5.0011,5.0028,5.0114,5.0424,5.0843,5.1257,5.1269,5.1166,5.1188,5.1326,5.1291,5.146,5.1667,5.2608,5.3409,5.4055,5.5194,5.6392,5.7414,5.7808,5.7905,5.7886,5.7886,5.7721,5.774,5.7886,5.7868,5.7941,5.796,5.7978,5.7978,5.7997,5.8235,5.8597,5.8781,5.8579,5.9171,5.9918,5.9323,5.8514,5.78,5.7385,5.6983,5.618,5.5484,5.5224,5.4796,5.4357,5.4039,5.408,5.4282,5.37,5.2973,5.2852,5.2598,5.2191,5.1132,5.1229,5.1493,5.1144,5.0845,5.0459,5.0166,5.0449,5.0745,5.1096,5.1507,5.1809,5.2082,5.2282,5.2353,5.2452,5.2758,5.3254,5.3282,5.3003,5.3128,5.3248,5.3123,5.3203,5.328,5.3506,5.385]}]]